Time,TemperatureF,DewpointF,PressureIn,WindDirection,WindDirectionDegrees,WindSpeedMPH,WindSpeedGustMPH,Humidity,HourlyPrecipIn,Conditions,Clouds,dailyrainin,SoftwareType,DateUTC
2013-09-17 00:00:00,37.6,36.3,30.32,NW,326,0.0,2.0,95,0.00,,---,0.05,VWS V14.01,2013-09-17 04:00:00,
2013-09-17 00:01:00,36.7,35.7,30.34,NW,304,1.0,2.0,96,0.00,,---,0.00,VWS V14.01,2013-09-17 04:01:00,
2013-09-17 00:02:00,36.7,35.7,30.33,NW,304,1.0,2.0,96,0.00,,---,0.00,VWS V14.01,2013-09-17 04:02:00,
2013-09-17 00:03:00,36.6,35.6,30.33,NW,305,1.0,2.0,96,0.00,,---,0.00,VWS V14.01,2013-09-17 04:03:00,
2013-09-17 00:04:00,37.7,36.7,30.32,North,8,1.0,3.0,96,0.00,,---,0.05,VWS V14.01,2013-09-17 04:04:00,
2013-09-17 00:05:00,37.8,36.8,30.32,NNW,332,1.0,4.0,96,0.00,,---,0.05,VWS V14.01,2013-09-17 04:05:00,
2013-09-17 00:06:00,36.7,35.9,30.33,WNW,297,1.0,2.0,97,0.00,,---,0.00,VWS V14.01,2013-09-17 04:06:00,
2013-09-17 00:07:00,37.9,36.9,30.32,NNW,333,1.0,4.0,96,0.00,,---,0.05,VWS V14.01,2013-09-17 04:07:00,
2013-09-17 00:08:00,37.9,36.9,30.32,NNW,334,0.0,4.0,96,0.00,,---,0.05,VWS V14.01,2013-09-17 04:08:00,
2013-09-17 00:09:00,37.9,36.9,30.32,NW,323,1.0,4.0,96,0.00,,---,0.05,VWS V14.01,2013-09-17 04:09:00,
2013-09-17 00:10:00,36.5,35.5,30.34,WNW,297,0.0,1.0,96,0.00,,---,0.00,VWS V14.01,2013-09-17 04:10:00,
2013-09-17 00:11:00,37.9,36.9,30.32,NNW,338,1.0,2.0,96,0.00,,---,0.05,VWS V14.01,2013-09-17 04:11:00,
2013-09-17 00:12:00,37.9,36.9,30.32,NNW,338,1.0,2.0,96,0.00,,---,0.05,VWS V14.01,2013-09-17 04:12:00,
2013-09-17 00:13:00,36.5,35.7,30.34,WNW,296,0.0,1.0,97,0.00,,---,0.00,VWS V14.01,2013-09-17 04:13:00,
2013-09-17 00:14:00,36.5,35.7,30.34,WNW,298,0.0,1.0,97,0.00,,---,0.00,VWS V14.01,2013-09-17 04:14:00,
2013-09-17 00:15:00,37.9,36.9,30.33,NW,319,0.0,4.0,96,0.00,,---,0.05,VWS V14.01,2013-09-17 04:15:00,
2013-09-17 00:16:00,37.9,36.9,30.33,NW,319,0.0,4.0,96,0.00,,---,0.05,VWS V14.01,2013-09-17 04:16:00,
2013-09-17 00:17:00,36.5,35.7,30.34,NW,319,0.0,2.0,97,0.00,,---,0.00,VWS V14.01,2013-09-17 04:17:00,
2013-09-17 00:18:00,36.5,35.7,30.34,NW,319,1.0,2.0,97,0.00,,---,0.00,VWS V14.01,2013-09-17 04:18:00,
2013-09-17 00:19:00,36.5,35.7,30.34,NW,319,1.0,2.0,97,0.00,,---,0.00,VWS V14.01,2013-09-17 04:19:00,
2013-09-17 00:20:00,36.4,35.6,30.34,NW,319,1.0,2.0,97,0.00,,---,0.00,VWS V14.01,2013-09-17 04:20:00,
2013-09-17 00:21:00,37.7,36.7,30.33,NW,311,0.0,1.0,96,0.00,,---,0.05,VWS V14.01,2013-09-17 04:21:00,
2013-09-17 00:22:00,36.3,35.5,30.34,WNW,292,0.0,1.0,97,0.00,,---,0.00,VWS V14.01,2013-09-17 04:22:00,
2013-09-17 00:23:00,36.3,35.5,30.34,WNW,293,1.0,1.0,97,0.00,,---,0.00,VWS V14.01,2013-09-17 04:23:00,
2013-09-17 00:24:00,36.3,35.5,30.34,WNW,293,0.0,1.0,97,0.00,,---,0.00,VWS V14.01,2013-09-17 04:24:00,
2013-09-17 00:25:00,36.3,35.5,30.34,WNW,301,1.0,1.0,97,0.00,,---,0.00,VWS V14.01,2013-09-17 04:25:00,
2013-09-17 00:26:00,36.3,35.5,30.34,NNW,342,1.0,2.0,97,0.00,,---,0.00,VWS V14.01,2013-09-17 04:26:00,
2013-09-17 00:27:00,36.4,35.6,30.34,NNW,342,0.0,2.0,97,0.00,,---,0.00,VWS V14.01,2013-09-17 04:27:00,
2013-09-17 00:28:00,36.4,35.6,30.34,NNW,342,0.0,2.0,97,0.00,,---,0.00,VWS V14.01,2013-09-17 04:28:00,
2013-09-17 00:29:00,37.5,36.5,30.33,NNW,328,0.0,3.0,96,0.00,,---,0.05,VWS V14.01,2013-09-17 04:29:00,
2013-09-17 00:30:00,37.5,36.5,30.33,North,352,1.0,3.0,96,0.00,,---,0.05,VWS V14.01,2013-09-17 04:30:00,
2013-09-17 00:31:00,37.5,36.5,30.33,NW,315,2.0,3.0,96,0.00,,---,0.05,VWS V14.01,2013-09-17 04:31:00,
2013-09-17 00:32:00,36.3,35.5,30.34,NW,305,1.0,1.0,97,0.00,,---,0.00,VWS V14.01,2013-09-17 04:32:00,
2013-09-17 00:33:00,36.3,35.5,30.34,NW,316,2.0,2.0,97,0.00,,---,0.00,VWS V14.01,2013-09-17 04:33:00,
2013-09-17 00:34:00,37.5,36.5,30.33,NW,318,1.0,2.0,96,0.00,,---,0.05,VWS V14.01,2013-09-17 04:34:00,
2013-09-17 00:35:00,37.4,36.4,30.33,NW,323,1.0,2.0,96,0.00,,---,0.05,VWS V14.01,2013-09-17 04:35:00,
2013-09-17 00:36:00,36.3,35.5,30.34,NW,322,0.0,2.0,97,0.00,,---,0.00,VWS V14.01,2013-09-17 04:36:00,
2013-09-17 00:37:00,36.2,35.4,30.35,NW,308,1.0,2.0,97,0.00,,---,0.00,VWS V14.01,2013-09-17 04:37:00,
2013-09-17 00:38:00,37.4,36.4,30.33,NW,312,1.0,2.0,96,0.00,,---,0.05,VWS V14.01,2013-09-17 04:38:00,
2013-09-17 00:39:00,37.4,36.4,30.33,NW,311,2.0,2.0,96,0.00,,---,0.05,VWS V14.01,2013-09-17 04:39:00,
2013-09-17 00:40:00,36.1,35.3,30.35,NW,314,1.0,3.0,97,0.00,,---,0.00,VWS V14.01,2013-09-17 04:40:00,
2013-09-17 00:41:00,37.4,36.4,30.33,NW,310,2.0,3.0,96,0.00,,---,0.05,VWS V14.01,2013-09-17 04:41:00,
2013-09-17 00:42:00,36.1,35.3,30.35,NW,324,1.0,3.0,97,0.00,,---,0.00,VWS V14.01,2013-09-17 04:42:00,
2013-09-17 00:43:00,37.3,36.3,30.33,NW,314,1.0,3.0,96,0.00,,---,0.05,VWS V14.01,2013-09-17 04:43:00,
2013-09-17 00:44:00,37.2,36.2,30.33,NW,314,1.0,3.0,96,0.00,,---,0.05,VWS V14.01,2013-09-17 04:44:00,
2013-09-17 00:45:00,37.2,36.2,30.33,NW,315,0.0,3.0,96,0.00,,---,0.05,VWS V14.01,2013-09-17 04:45:00,
2013-09-17 00:46:00,37.1,36.1,30.33,NW,314,1.0,3.0,96,0.00,,---,0.05,VWS V14.01,2013-09-17 04:46:00,
2013-09-17 00:47:00,37.1,36.1,30.33,WNW,302,1.0,3.0,96,0.00,,---,0.05,VWS V14.01,2013-09-17 04:47:00,
2013-09-17 00:48:00,37.1,36.1,30.33,WNW,302,1.0,3.0,96,0.00,,---,0.05,VWS V14.01,2013-09-17 04:48:00,
2013-09-17 00:49:00,37.0,36.0,30.33,WNW,302,0.0,3.0,96,0.00,,---,0.05,VWS V14.01,2013-09-17 04:49:00,
2013-09-17 00:50:00,36.9,35.9,30.33,WNW,302,0.0,3.0,96,0.00,,---,0.05,VWS V14.01,2013-09-17 04:50:00,
2013-09-17 00:51:00,36.9,35.9,30.33,WNW,302,0.0,1.0,96,0.00,,---,0.05,VWS V14.01,2013-09-17 04:51:00,
2013-09-17 00:52:00,36.9,35.9,30.33,WNW,302,1.0,1.0,96,0.00,,---,0.05,VWS V14.01,2013-09-17 04:52:00,
2013-09-17 00:53:00,36.2,35.4,30.35,NW,314,1.0,3.0,97,0.00,,---,0.00,VWS V14.01,2013-09-17 04:53:00,
2013-09-17 00:54:00,36.2,35.4,30.35,NNW,329,2.0,5.0,97,0.00,,---,0.00,VWS V14.01,2013-09-17 04:54:00,
2013-09-17 00:55:00,36.8,35.8,30.34,WNW,302,0.0,1.0,96,0.00,,---,0.05,VWS V14.01,2013-09-17 04:55:00,
2013-09-17 00:56:00,36.7,35.7,30.33,WNW,302,0.0,1.0,96,0.00,,---,0.05,VWS V14.01,2013-09-17 04:56:00,
2013-09-17 00:57:00,36.7,35.7,30.34,WNW,302,1.0,1.0,96,0.00,,---,0.05,VWS V14.01,2013-09-17 04:57:00,
2013-09-17 00:58:00,36.2,35.4,30.35,NNW,329,1.0,5.0,97,0.00,,---,0.00,VWS V14.01,2013-09-17 04:58:00,
2013-09-17 00:59:00,36.7,35.7,30.34,WNW,302,1.0,2.0,96,0.00,,---,0.05,VWS V14.01,2013-09-17 04:59:00,
2013-09-17 01:00:00,36.7,35.7,30.34,NW,304,1.0,2.0,96,0.00,,---,0.05,VWS V14.01,2013-09-17 05:00:00,
2013-09-17 01:01:00,36.7,35.7,30.34,NW,304,1.0,2.0,96,0.00,,---,0.00,VWS V14.01,2013-09-17 05:01:00,
2013-09-17 01:02:00,36.2,35.4,30.35,NW,313,1.0,3.0,97,0.00,,---,0.00,VWS V14.01,2013-09-17 05:02:00,
2013-09-17 01:03:00,36.2,35.4,30.35,NW,314,0.0,2.0,97,0.00,,---,0.00,VWS V14.01,2013-09-17 05:03:00,
2013-09-17 01:04:00,36.6,35.6,30.33,WNW,297,1.0,2.0,96,0.00,,---,0.00,VWS V14.01,2013-09-17 05:04:00,
2013-09-17 01:05:00,36.6,35.6,30.33,WNW,297,2.0,2.0,96,0.00,,---,0.00,VWS V14.01,2013-09-17 05:05:00,
2013-09-17 01:06:00,36.1,35.3,30.35,NW,324,0.0,2.0,97,0.00,,---,0.00,VWS V14.01,2013-09-17 05:06:00,
2013-09-17 01:07:00,36.7,35.9,30.34,WNW,297,0.0,2.0,97,0.00,,---,0.00,VWS V14.01,2013-09-17 05:07:00,
2013-09-17 01:08:00,36.6,35.8,30.34,WNW,296,0.0,2.0,97,0.00,,---,0.00,VWS V14.01,2013-09-17 05:08:00,
2013-09-17 01:09:00,36.5,35.5,30.34,WNW,297,0.0,2.0,96,0.00,,---,0.00,VWS V14.01,2013-09-17 05:09:00,
2013-09-17 01:10:00,36.5,35.5,30.34,WNW,297,0.0,1.0,96,0.00,,---,0.00,VWS V14.01,2013-09-17 05:10:00,
2013-09-17 01:11:00,36.5,35.7,30.34,WNW,297,1.0,1.0,97,0.00,,---,0.00,VWS V14.01,2013-09-17 05:11:00,
2013-09-17 01:12:00,36.6,35.8,30.34,WNW,297,1.0,1.0,97,0.00,,---,0.00,VWS V14.01,2013-09-17 05:12:00,
2013-09-17 01:13:00,36.1,35.3,30.35,NW,307,1.0,2.0,97,0.00,,---,0.00,VWS V14.01,2013-09-17 05:13:00,
2013-09-17 01:14:00,36.5,35.7,30.34,WNW,298,0.0,1.0,97,0.00,,---,0.00,VWS V14.01,2013-09-17 05:14:00,
2013-09-17 01:15:00,36.4,35.4,30.34,North,359,1.0,2.0,96,0.00,,---,0.00,VWS V14.01,2013-09-17 05:15:00,
2013-09-17 01:16:00,36.5,35.7,30.34,NW,317,1.0,2.0,97,0.00,,---,0.00,VWS V14.01,2013-09-17 05:16:00,
2013-09-17 01:17:00,36.5,35.7,30.34,NW,319,0.0,2.0,97,0.00,,---,0.00,VWS V14.01,2013-09-17 05:17:00,
2013-09-17 01:18:00,36.5,35.7,30.34,NW,319,1.0,2.0,97,0.00,,---,0.00,VWS V14.01,2013-09-17 05:18:00,
2013-09-17 01:19:00,36.5,35.7,30.34,NW,319,1.0,2.0,97,0.00,,---,0.00,VWS V14.01,2013-09-17 05:19:00,
2013-09-17 01:20:00,36.0,35.2,30.36,NW,308,0.0,2.0,97,0.00,,---,0.00,VWS V14.01,2013-09-17 05:20:00,
2013-09-17 01:21:00,36.4,35.6,30.34,West,281,0.0,1.0,97,0.00,,---,0.00,VWS V14.01,2013-09-17 05:21:00,
2013-09-17 01:22:00,36.3,35.5,30.34,WNW,292,0.0,1.0,97,0.00,,---,0.00,VWS V14.01,2013-09-17 05:22:00,
2013-09-17 01:23:00,36.3,35.5,30.34,WNW,293,1.0,1.0,97,0.00,,---,0.00,VWS V14.01,2013-09-17 05:23:00,
2013-09-17 01:24:00,37.3,36.3,30.33,NW,314,1.0,3.0,96,0.00,,---,0.05,VWS V14.01,2013-09-17 05:24:00,
2013-09-17 01:25:00,36.3,35.5,30.34,WNW,301,1.0,1.0,97,0.00,,---,0.00,VWS V14.01,2013-09-17 05:25:00,
2013-09-17 01:26:00,36.3,35.5,30.34,NNW,342,1.0,2.0,97,0.00,,---,0.00,VWS V14.01,2013-09-17 05:26:00,
2013-09-17 01:27:00,36.4,35.6,30.34,NNW,342,0.0,2.0,97,0.00,,---,0.00,VWS V14.01,2013-09-17 05:27:00,
2013-09-17 01:28:00,36.4,35.6,30.34,NNW,342,0.0,2.0,97,0.00,,---,0.00,VWS V14.01,2013-09-17 05:28:00,
2013-09-17 01:29:00,37.1,36.1,30.33,WNW,302,1.0,3.0,96,0.00,,---,0.05,VWS V14.01,2013-09-17 05:29:00,
2013-09-17 01:30:00,36.4,35.6,30.34,NNW,335,0.0,2.0,97,0.00,,---,0.00,VWS V14.01,2013-09-17 05:30:00,
2013-09-17 01:31:00,36.4,35.6,30.34,NNW,334,0.0,1.0,97,0.00,,---,0.00,VWS V14.01,2013-09-17 05:31:00,
2013-09-17 01:32:00,36.3,35.5,30.34,NW,305,1.0,1.0,97,0.00,,---,0.00,VWS V14.01,2013-09-17 05:32:00,
2013-09-17 01:33:00,36.3,35.5,30.34,NW,316,2.0,2.0,97,0.00,,---,0.00,VWS V14.01,2013-09-17 05:33:00,
2013-09-17 01:34:00,36.9,35.9,30.33,WNW,302,1.0,1.0,96,0.00,,---,0.05,VWS V14.01,2013-09-17 05:34:00,
2013-09-17 01:35:00,36.3,35.5,30.34,NW,322,0.0,2.0,97,0.00,,---,0.00,VWS V14.01,2013-09-17 05:35:00,
2013-09-17 01:36:00,36.3,35.5,30.34,NW,322,0.0,2.0,97,0.00,,---,0.00,VWS V14.01,2013-09-17 05:36:00,
2013-09-17 01:37:00,36.2,35.4,30.35,NW,308,1.0,2.0,97,0.00,,---,0.00,VWS V14.01,2013-09-17 05:37:00,
2013-09-17 01:38:00,36.2,35.4,30.35,NW,314,0.0,2.0,97,0.00,,---,0.00,VWS V14.01,2013-09-17 05:38:00,
2013-09-17 01:39:00,36.2,35.4,30.35,NNW,338,0.0,3.0,97,0.00,,---,0.00,VWS V14.01,2013-09-17 05:39:00,
2013-09-17 01:40:00,36.1,35.3,30.35,NW,314,1.0,3.0,97,0.00,,---,0.00,VWS V14.01,2013-09-17 05:40:00,
2013-09-17 01:41:00,36.7,35.7,30.34,NW,304,1.0,2.0,96,0.00,,---,0.05,VWS V14.01,2013-09-17 05:41:00,
2013-09-17 01:42:00,36.1,35.3,30.35,NW,324,1.0,3.0,97,0.00,,---,0.00,VWS V14.01,2013-09-17 05:42:00,
2013-09-17 01:43:00,36.2,35.4,30.35,NW,305,2.0,3.0,97,0.00,,---,0.00,VWS V14.01,2013-09-17 05:43:00,
2013-09-17 01:44:00,36.2,35.4,30.35,WNW,285,1.0,3.0,97,0.00,,---,0.00,VWS V14.01,2013-09-17 05:44:00,
2013-09-17 01:45:00,36.2,35.4,30.35,NNW,328,1.0,3.0,97,0.00,,---,0.00,VWS V14.01,2013-09-17 05:45:00,
2013-09-17 01:46:00,36.2,35.4,30.35,NW,307,1.0,3.0,97,0.00,,---,0.00,VWS V14.01,2013-09-17 05:46:00,
2013-09-17 01:47:00,36.2,35.4,30.35,WNW,300,1.0,3.0,97,0.00,,---,0.00,VWS V14.01,2013-09-17 05:47:00,
2013-09-17 01:48:00,36.7,35.9,30.34,WNW,297,0.0,2.0,97,0.00,,---,0.00,VWS V14.01,2013-09-17 05:48:00,
2013-09-17 01:49:00,36.2,35.4,30.35,NW,319,1.0,3.0,97,0.00,,---,0.00,VWS V14.01,2013-09-17 05:49:00,
2013-09-17 01:50:00,36.3,35.5,30.35,NW,319,0.0,3.0,97,0.00,,---,0.00,VWS V14.01,2013-09-17 05:50:00,
2013-09-17 01:51:00,36.2,35.4,30.35,North,358,1.0,3.0,97,0.00,,---,0.00,VWS V14.01,2013-09-17 05:51:00,
2013-09-17 01:52:00,36.2,35.4,30.35,NW,314,1.0,3.0,97,0.00,,---,0.00,VWS V14.01,2013-09-17 05:52:00,
2013-09-17 01:53:00,36.6,35.8,30.34,WNW,297,1.0,1.0,97,0.00,,---,0.00,VWS V14.01,2013-09-17 05:53:00,
2013-09-17 01:54:00,36.2,35.4,30.35,NNW,329,2.0,5.0,97,0.00,,---,0.00,VWS V14.01,2013-09-17 05:54:00,
2013-09-17 01:55:00,36.2,35.4,30.35,NW,312,1.0,5.0,97,0.00,,---,0.00,VWS V14.01,2013-09-17 05:55:00,
2013-09-17 01:56:00,36.2,35.4,30.35,WNW,297,0.0,5.0,97,0.00,,---,0.00,VWS V14.01,2013-09-17 05:56:00,
2013-09-17 01:57:00,36.2,35.4,30.35,NW,319,0.0,5.0,97,0.00,,---,0.00,VWS V14.01,2013-09-17 05:57:00,
2013-09-17 01:58:00,36.2,35.4,30.35,NNW,329,1.0,5.0,97,0.00,,---,0.00,VWS V14.01,2013-09-17 05:58:00,
2013-09-17 01:59:00,36.3,35.5,30.35,NW,326,2.0,3.0,97,0.00,,---,0.00,VWS V14.01,2013-09-17 05:59:00,
2013-09-17 02:00:00,36.3,35.5,30.35,WNW,302,1.0,3.0,97,0.00,,---,0.00,VWS V14.01,2013-09-17 06:00:00,
2013-09-17 02:01:00,36.2,35.4,30.35,NW,314,1.0,3.0,97,0.00,,---,0.00,VWS V14.01,2013-09-17 06:01:00,
2013-09-17 02:02:00,36.2,35.4,30.35,NW,313,1.0,3.0,97,0.00,,---,0.00,VWS V14.01,2013-09-17 06:02:00,
2013-09-17 02:03:00,36.2,35.4,30.35,NW,314,0.0,2.0,97,0.00,,---,0.00,VWS V14.01,2013-09-17 06:03:00,
2013-09-17 02:04:00,36.1,35.3,30.35,North,352,1.0,2.0,97,0.00,,---,0.00,VWS V14.01,2013-09-17 06:04:00,
2013-09-17 02:05:00,36.1,35.3,30.35,NW,324,0.0,2.0,97,0.00,,---,0.00,VWS V14.01,2013-09-17 06:05:00,
2013-09-17 02:06:00,36.1,35.3,30.35,NW,324,0.0,2.0,97,0.00,,---,0.00,VWS V14.01,2013-09-17 06:06:00,
2013-09-17 02:07:00,36.1,35.3,30.35,NW,323,0.0,2.0,97,0.00,,---,0.00,VWS V14.01,2013-09-17 06:07:00,
2013-09-17 02:08:00,36.1,35.3,30.35,WNW,291,1.0,2.0,97,0.00,,---,0.00,VWS V14.01,2013-09-17 06:08:00,
2013-09-17 02:09:00,36.1,35.3,30.35,WNW,301,1.0,1.0,97,0.00,,---,0.00,VWS V14.01,2013-09-17 06:09:00,
2013-09-17 02:10:00,36.4,35.6,30.34,NNW,343,0.0,2.0,97,0.00,,---,0.00,VWS V14.01,2013-09-17 06:10:00,
2013-09-17 02:11:00,36.1,35.3,30.35,NW,322,1.0,1.0,97,0.00,,---,0.00,VWS V14.01,2013-09-17 06:11:00,
2013-09-17 02:12:00,36.1,35.3,30.35,NW,317,1.0,1.0,97,0.00,,---,0.00,VWS V14.01,2013-09-17 06:12:00,
2013-09-17 02:13:00,36.1,35.3,30.35,NW,307,1.0,2.0,97,0.00,,---,0.00,VWS V14.01,2013-09-17 06:13:00,
2013-09-17 02:14:00,36.1,35.3,30.35,NW,308,1.0,2.0,97,0.00,,---,0.00,VWS V14.01,2013-09-17 06:14:00,
2013-09-17 02:15:00,36.3,35.5,30.34,WNW,294,1.0,2.0,97,0.00,,---,0.00,VWS V14.01,2013-09-17 06:15:00,
2013-09-17 02:16:00,36.0,35.2,30.35,NNW,336,2.0,2.0,97,0.00,,---,0.00,VWS V14.01,2013-09-17 06:16:00,
2013-09-17 02:17:00,36.0,35.2,30.35,NW,321,2.0,2.0,97,0.00,,---,0.00,VWS V14.01,2013-09-17 06:17:00,
2013-09-17 02:18:00,36.0,35.2,30.35,NW,326,2.0,2.0,97,0.00,,---,0.00,VWS V14.01,2013-09-17 06:18:00,
2013-09-17 02:19:00,36.0,35.2,30.35,NW,308,1.0,2.0,97,0.00,,---,0.00,VWS V14.01,2013-09-17 06:19:00,
2013-09-17 02:20:00,36.2,35.4,30.35,NNW,338,0.0,3.0,97,0.00,,---,0.00,VWS V14.01,2013-09-17 06:20:00,
2013-09-17 02:21:00,36.0,35.2,30.35,NNW,347,0.0,2.0,97,0.00,,---,0.00,VWS V14.01,2013-09-17 06:21:00,
2013-09-17 02:22:00,35.9,35.1,30.35,NW,314,1.0,2.0,97,0.00,,---,0.00,VWS V14.01,2013-09-17 06:22:00,
2013-09-17 02:23:00,35.9,35.1,30.36,WNW,287,0.0,2.0,97,0.00,,---,0.00,VWS V14.01,2013-09-17 06:23:00,
2013-09-17 02:24:00,35.9,35.1,30.36,WNW,287,0.0,2.0,97,0.00,,---,0.00,VWS V14.01,2013-09-17 06:24:00,
2013-09-17 02:25:00,36.2,35.4,30.35,WNW,285,1.0,3.0,97,0.00,,---,0.00,VWS V14.01,2013-09-17 06:25:00,
2013-09-17 02:26:00,35.8,35.0,30.35,WNW,288,0.0,2.0,97,0.00,,---,0.00,VWS V14.01,2013-09-17 06:26:00,
2013-09-17 02:27:00,35.8,35.0,30.35,WNW,290,0.0,2.0,97,0.00,,---,0.00,VWS V14.01,2013-09-17 06:27:00,
2013-09-17 02:28:00,35.8,35.0,30.35,WNW,290,0.0,1.0,97,0.00,,---,0.00,VWS V14.01,2013-09-17 06:28:00,
2013-09-17 02:29:00,35.8,35.0,30.35,WNW,291,0.0,1.0,97,0.00,,---,0.00,VWS V14.01,2013-09-17 06:29:00,
2013-09-17 02:30:00,36.2,35.4,30.35,NW,319,1.0,3.0,97,0.00,,---,0.00,VWS V14.01,2013-09-17 06:30:00,
2013-09-17 02:31:00,35.8,35.0,30.35,NNW,338,0.0,2.0,97,0.00,,---,0.00,VWS V14.01,2013-09-17 06:31:00,
2013-09-17 02:32:00,35.8,35.0,30.35,NW,326,0.0,2.0,97,0.00,,---,0.00,VWS V14.01,2013-09-17 06:32:00,
2013-09-17 02:33:00,35.8,35.0,30.35,NW,326,0.0,2.0,97,0.00,,---,0.00,VWS V14.01,2013-09-17 06:33:00,
2013-09-17 02:34:00,35.8,35.0,30.35,NW,319,2.0,2.0,97,0.00,,---,0.00,VWS V14.01,2013-09-17 06:34:00,
2013-09-17 02:35:00,35.8,35.0,30.35,NW,323,0.0,2.0,97,0.00,,---,0.00,VWS V14.01,2013-09-17 06:35:00,
2013-09-17 02:36:00,36.2,35.4,30.35,NW,312,1.0,5.0,97,0.00,,---,0.00,VWS V14.01,2013-09-17 06:36:00,
2013-09-17 02:37:00,35.8,35.0,30.35,NW,323,1.0,2.0,97,0.00,,---,0.00,VWS V14.01,2013-09-17 06:37:00,
2013-09-17 02:38:00,35.7,34.9,30.35,NW,323,1.0,2.0,97,0.00,,---,0.00,VWS V14.01,2013-09-17 06:38:00,
2013-09-17 02:39:00,35.7,34.9,30.35,NW,323,1.0,2.0,97,0.00,,---,0.00,VWS V14.01,2013-09-17 06:39:00,
2013-09-17 02:40:00,35.6,34.8,30.35,NW,309,2.0,2.0,97,0.00,,---,0.00,VWS V14.01,2013-09-17 06:40:00,
2013-09-17 02:41:00,36.3,35.5,30.35,WNW,302,1.0,3.0,97,0.00,,---,0.00,VWS V14.01,2013-09-17 06:41:00,
2013-09-17 02:42:00,35.6,34.8,30.35,WNW,302,1.0,2.0,97,0.00,,---,0.00,VWS V14.01,2013-09-17 06:42:00,
2013-09-17 02:43:00,35.6,34.8,30.35,WNW,302,1.0,2.0,97,0.00,,---,0.00,VWS V14.01,2013-09-17 06:43:00,
2013-09-17 02:44:00,35.6,34.8,30.35,WNW,302,1.0,2.0,97,0.00,,---,0.00,VWS V14.01,2013-09-17 06:44:00,
2013-09-17 02:45:00,35.5,34.5,30.35,WNW,302,1.0,2.0,96,0.00,,---,0.00,VWS V14.01,2013-09-17 06:45:00,
2013-09-17 02:46:00,36.1,35.3,30.35,NW,324,0.0,2.0,97,0.00,,---,0.00,VWS V14.01,2013-09-17 06:46:00,
2013-09-17 02:47:00,35.4,34.4,30.35,WNW,302,1.0,2.0,96,0.00,,---,0.00,VWS V14.01,2013-09-17 06:47:00,
2013-09-17 02:48:00,35.4,34.6,30.36,WNW,293,1.0,2.0,97,0.00,,---,0.00,VWS V14.01,2013-09-17 06:48:00,
2013-09-17 02:49:00,35.3,34.5,30.36,WNW,294,0.0,2.0,97,0.00,,---,0.00,VWS V14.01,2013-09-17 06:49:00,
2013-09-17 02:50:00,35.3,34.5,30.36,WNW,302,1.0,2.0,97,0.00,,---,0.00,VWS V14.01,2013-09-17 06:50:00,
2013-09-17 02:51:00,36.1,35.3,30.35,WNW,301,0.0,1.0,97,0.00,,---,0.00,VWS V14.01,2013-09-17 06:51:00,
2013-09-17 02:52:00,35.3,34.5,30.36,WNW,302,0.0,1.0,97,0.00,,---,0.00,VWS V14.01,2013-09-17 06:52:00,
2013-09-17 02:53:00,35.2,34.4,30.36,WNW,302,1.0,1.0,97,0.00,,---,0.00,VWS V14.01,2013-09-17 06:53:00,
2013-09-17 02:54:00,35.2,34.4,30.36,NW,321,1.0,1.0,97,0.00,,---,0.00,VWS V14.01,2013-09-17 06:54:00,
2013-09-17 02:55:00,35.2,34.4,30.36,NW,319,1.0,2.0,97,0.00,,---,0.00,VWS V14.01,2013-09-17 06:55:00,
2013-09-17 02:56:00,36.0,35.2,30.35,NW,322,1.0,2.0,97,0.00,,---,0.00,VWS V14.01,2013-09-17 06:56:00,
2013-09-17 02:57:00,35.2,34.4,30.36,WNW,297,1.0,2.0,97,0.00,,---,0.00,VWS V14.01,2013-09-17 06:57:00,
2013-09-17 02:58:00,35.2,34.4,30.36,WNW,297,1.0,2.0,97,0.00,,---,0.00,VWS V14.01,2013-09-17 06:58:00,
2013-09-17 02:59:00,35.2,34.4,30.36,NW,308,1.0,2.0,97,0.00,,---,0.00,VWS V14.01,2013-09-17 06:59:00,
2013-09-17 03:00:00,35.2,34.4,30.36,NW,308,0.0,2.0,97,0.00,,---,0.00,VWS V14.01,2013-09-17 07:00:00,
2013-09-17 03:01:00,35.2,34.4,30.36,NW,322,0.0,2.0,97,0.00,,---,0.00,VWS V14.01,2013-09-17 07:01:00,
2013-09-17 03:02:00,36.0,35.2,30.35,NNW,347,0.0,2.0,97,0.00,,---,0.00,VWS V14.01,2013-09-17 07:02:00,
2013-09-17 03:03:00,35.2,34.4,30.36,NW,309,0.0,3.0,97,0.00,,---,0.00,VWS V14.01,2013-09-17 07:03:00,
2013-09-17 03:04:00,35.2,34.4,30.36,NW,309,0.0,3.0,97,0.00,,---,0.00,VWS V14.01,2013-09-17 07:04:00,
2013-09-17 03:05:00,35.2,34.4,30.36,NW,309,0.0,3.0,97,0.00,,---,0.00,VWS V14.01,2013-09-17 07:05:00,
2013-09-17 03:06:00,35.2,34.4,30.36,NW,309,0.0,3.0,97,0.00,,---,0.00,VWS V14.01,2013-09-17 07:06:00,
2013-09-17 03:07:00,35.8,35.0,30.35,WNW,288,0.0,2.0,97,0.00,,---,0.00,VWS V14.01,2013-09-17 07:07:00,
2013-09-17 03:08:00,35.2,34.4,30.36,WNW,301,1.0,2.0,97,0.00,,---,0.00,VWS V14.01,2013-09-17 07:08:00,
2013-09-17 03:09:00,35.2,34.4,30.36,WNW,300,2.0,2.0,97,0.00,,---,0.00,VWS V14.01,2013-09-17 07:09:00,
2013-09-17 03:10:00,35.2,34.4,30.37,NW,322,1.0,2.0,97,0.00,,---,0.00,VWS V14.01,2013-09-17 07:10:00,
2013-09-17 03:11:00,35.2,34.4,30.37,NW,312,1.0,2.0,97,0.00,,---,0.00,VWS V14.01,2013-09-17 07:11:00,
2013-09-17 03:12:00,35.8,35.0,30.35,NNW,338,0.0,2.0,97,0.00,,---,0.00,VWS V14.01,2013-09-17 07:12:00,
2013-09-17 03:13:00,35.1,34.3,30.37,WNW,302,1.0,2.0,97,0.00,,---,0.00,VWS V14.01,2013-09-17 07:13:00,
2013-09-17 03:14:00,35.1,34.3,30.37,WNW,302,1.0,2.0,97,0.00,,---,0.00,VWS V14.01,2013-09-17 07:14:00,
2013-09-17 03:15:00,35.1,34.3,30.37,NW,309,0.0,2.0,97,0.00,,---,0.00,VWS V14.01,2013-09-17 07:15:00,
2013-09-17 03:16:00,35.1,34.3,30.37,NW,309,0.0,2.0,97,0.00,,---,0.00,VWS V14.01,2013-09-17 07:16:00,
2013-09-17 03:17:00,35.8,35.0,30.35,NW,323,0.0,2.0,97,0.00,,---,0.00,VWS V14.01,2013-09-17 07:17:00,
2013-09-17 03:18:00,35.1,34.3,30.37,WNW,290,0.0,2.0,97,0.00,,---,0.00,VWS V14.01,2013-09-17 07:18:00,
2013-09-17 03:19:00,35.1,34.3,30.37,NW,316,0.0,2.0,97,0.00,,---,0.00,VWS V14.01,2013-09-17 07:19:00,
2013-09-17 03:20:00,35.1,34.3,30.37,NW,316,0.0,2.0,97,0.00,,---,0.00,VWS V14.01,2013-09-17 07:20:00,
2013-09-17 03:21:00,35.1,34.3,30.37,NW,316,0.0,2.0,97,0.00,,---,0.00,VWS V14.01,2013-09-17 07:21:00,
2013-09-17 03:22:00,35.6,34.8,30.35,WNW,302,1.0,2.0,97,0.00,,---,0.00,VWS V14.01,2013-09-17 07:22:00,
2013-09-17 03:23:00,35.0,34.2,30.37,NW,316,0.0,2.0,97,0.00,,---,0.00,VWS V14.01,2013-09-17 07:23:00,
2013-09-17 03:24:00,34.9,34.1,30.37,NW,316,0.0,1.0,97,0.00,,---,0.00,VWS V14.01,2013-09-17 07:24:00,
2013-09-17 03:25:00,34.9,34.1,30.37,NW,316,0.0,0.0,97,0.00,,---,0.00,VWS V14.01,2013-09-17 07:25:00,
2013-09-17 03:26:00,34.9,34.1,30.37,WNW,291,0.0,1.0,97,0.00,,---,0.00,VWS V14.01,2013-09-17 07:26:00,
2013-09-17 03:27:00,35.4,34.4,30.36,WNW,302,1.0,1.0,96,0.00,,---,0.00,VWS V14.01,2013-09-17 07:27:00,
2013-09-17 03:28:00,35.0,34.2,30.37,WNW,291,0.0,1.0,97,0.00,,---,0.00,VWS V14.01,2013-09-17 07:28:00,
2013-09-17 03:29:00,34.9,34.1,30.37,WNW,291,0.0,1.0,97,0.00,,---,0.00,VWS V14.01,2013-09-17 07:29:00,
2013-09-17 03:30:00,34.9,34.1,30.37,WNW,291,0.0,1.0,97,0.00,,---,0.00,VWS V14.01,2013-09-17 07:30:00,
2013-09-17 03:31:00,34.9,34.1,30.37,NW,326,0.0,1.0,97,0.00,,---,0.00,VWS V14.01,2013-09-17 07:31:00,
2013-09-17 03:32:00,35.3,34.5,30.35,WNW,302,1.0,2.0,97,0.00,,---,0.00,VWS V14.01,2013-09-17 07:32:00,
2013-09-17 03:33:00,34.9,34.1,30.37,NNW,346,0.0,1.0,97,0.00,,---,0.00,VWS V14.01,2013-09-17 07:33:00,
2013-09-17 03:34:00,34.9,34.1,30.37,NW,312,0.0,1.0,97,0.00,,---,0.00,VWS V14.01,2013-09-17 07:34:00,
2013-09-17 03:35:00,34.9,34.1,30.37,NW,315,1.0,2.0,97,0.00,,---,0.00,VWS V14.01,2013-09-17 07:35:00,
2013-09-17 03:36:00,35.0,34.2,30.37,NW,314,0.0,2.0,97,0.00,,---,0.00,VWS V14.01,2013-09-17 07:36:00,
2013-09-17 03:37:00,35.2,34.4,30.36,WNW,293,1.0,2.0,97,0.00,,---,0.00,VWS V14.01,2013-09-17 07:37:00,
2013-09-17 03:38:00,35.0,34.2,30.37,NW,315,0.0,2.0,97,0.00,,---,0.00,VWS V14.01,2013-09-17 07:38:00,
2013-09-17 03:39:00,35.0,34.2,30.37,NW,315,0.0,2.0,97,0.00,,---,0.00,VWS V14.01,2013-09-17 07:39:00,
2013-09-17 03:40:00,35.0,34.2,30.37,NW,314,0.0,1.0,97,0.00,,---,0.00,VWS V14.01,2013-09-17 07:40:00,
2013-09-17 03:41:00,35.0,34.2,30.37,NW,315,0.0,1.0,97,0.00,,---,0.00,VWS V14.01,2013-09-17 07:41:00,
2013-09-17 03:42:00,35.2,34.4,30.36,NW,322,0.0,2.0,97,0.00,,---,0.00,VWS V14.01,2013-09-17 07:42:00,
2013-09-17 03:43:00,34.9,34.1,30.37,NW,319,0.0,1.0,97,0.00,,---,0.00,VWS V14.01,2013-09-17 07:43:00,
2013-09-17 03:44:00,34.9,34.1,30.37,NNW,344,1.0,1.0,97,0.00,,---,0.00,VWS V14.01,2013-09-17 07:44:00,
2013-09-17 03:45:00,34.9,34.1,30.37,NW,322,0.0,1.0,97,0.00,,---,0.00,VWS V14.01,2013-09-17 07:45:00,
2013-09-17 03:46:00,34.9,34.1,30.37,NW,315,0.0,1.0,97,0.00,,---,0.00,VWS V14.01,2013-09-17 07:46:00,
2013-09-17 03:47:00,35.2,34.4,30.36,NW,309,0.0,3.0,97,0.00,,---,0.00,VWS V14.01,2013-09-17 07:47:00,
2013-09-17 03:48:00,34.9,34.1,30.37,WNW,300,1.0,1.0,97,0.00,,---,0.00,VWS V14.01,2013-09-17 07:48:00,
2013-09-17 03:49:00,34.9,34.1,30.37,NNW,334,3.0,3.0,97,0.00,,---,0.00,VWS V14.01,2013-09-17 07:49:00,
2013-09-17 03:50:00,34.9,34.1,30.37,WNW,300,0.0,3.0,97,0.00,,---,0.00,VWS V14.01,2013-09-17 07:50:00,
2013-09-17 03:51:00,34.9,34.1,30.37,WNW,301,1.0,3.0,97,0.00,,---,0.00,VWS V14.01,2013-09-17 07:51:00,
2013-09-17 03:52:00,35.2,34.4,30.37,NW,312,1.0,2.0,97,0.00,,---,0.00,VWS V14.01,2013-09-17 07:52:00,
2013-09-17 03:53:00,34.8,34.0,30.37,NW,309,1.0,3.0,97,0.00,,---,0.00,VWS V14.01,2013-09-17 07:53:00,
2013-09-17 03:54:00,34.8,34.0,30.37,WNW,297,1.0,2.0,97,0.00,,---,0.00,VWS V14.01,2013-09-17 07:54:00,
2013-09-17 03:55:00,34.8,34.0,30.37,NW,319,1.0,2.0,97,0.00,,---,0.00,VWS V14.01,2013-09-17 07:55:00,
2013-09-17 03:56:00,34.8,34.0,30.37,NW,324,1.0,2.0,97,0.00,,---,0.00,VWS V14.01,2013-09-17 07:56:00,
2013-09-17 03:57:00,35.1,34.3,30.37,NW,309,0.0,2.0,97,0.00,,---,0.00,VWS V14.01,2013-09-17 07:57:00,
2013-09-17 03:58:00,34.8,34.0,30.37,NW,311,1.0,2.0,97,0.00,,---,0.00,VWS V14.01,2013-09-17 07:58:00,
2013-09-17 03:59:00,34.8,34.0,30.37,NW,318,1.0,2.0,97,0.00,,---,0.00,VWS V14.01,2013-09-17 07:59:00,
2013-09-17 04:00:00,34.8,34.0,30.37,NNW,342,2.0,2.0,97,0.00,,---,0.00,VWS V14.01,2013-09-17 08:00:00,
2013-09-17 04:01:00,34.9,34.1,30.37,NW,321,2.0,3.0,97,0.00,,---,0.00,VWS V14.01,2013-09-17 08:01:00,
2013-09-17 04:02:00,35.1,34.3,30.37,NW,316,0.0,2.0,97,0.00,,---,0.00,VWS V14.01,2013-09-17 08:02:00,
2013-09-17 04:03:00,35.1,34.3,30.38,NNW,335,1.0,3.0,97,0.00,,---,0.00,VWS V14.01,2013-09-17 08:03:00,
2013-09-17 04:04:00,35.1,34.3,30.37,NNW,328,1.0,3.0,97,0.00,,---,0.00,VWS V14.01,2013-09-17 08:04:00,
2013-09-17 04:05:00,35.1,34.3,30.38,North,352,0.0,3.0,97,0.00,,---,0.00,VWS V14.01,2013-09-17 08:05:00,
2013-09-17 04:06:00,35.1,34.3,30.38,NNW,342,1.0,3.0,97,0.00,,---,0.00,VWS V14.01,2013-09-17 08:06:00,
2013-09-17 04:07:00,34.9,34.1,30.37,WNW,291,0.0,1.0,97,0.00,,---,0.00,VWS V14.01,2013-09-17 08:07:00,
2013-09-17 04:08:00,35.2,34.4,30.38,NW,315,2.0,3.0,97,0.00,,---,0.00,VWS V14.01,2013-09-17 08:08:00,
2013-09-17 04:09:00,35.3,34.5,30.38,NW,319,2.0,3.0,97,0.00,,---,0.00,VWS V14.01,2013-09-17 08:09:00,
2013-09-17 04:10:00,35.3,34.5,30.37,NW,314,1.0,3.0,97,0.00,,---,0.00,VWS V14.01,2013-09-17 08:10:00,
2013-09-17 04:11:00,35.4,34.6,30.38,NW,314,0.0,3.0,97,0.00,,---,0.00,VWS V14.01,2013-09-17 08:11:00,
2013-09-17 04:12:00,34.9,34.1,30.37,NW,326,0.0,1.0,97,0.00,,---,0.00,VWS V14.01,2013-09-17 08:12:00,
2013-09-17 04:13:00,35.3,34.3,30.38,NW,314,1.0,2.0,96,0.00,,---,0.00,VWS V14.01,2013-09-17 08:13:00,
2013-09-17 04:14:00,35.3,34.3,30.38,NW,309,0.0,2.0,96,0.00,,---,0.00,VWS V14.01,2013-09-17 08:14:00,
2013-09-17 04:15:00,35.3,34.3,30.38,NW,314,1.0,2.0,96,0.00,,---,0.00,VWS V14.01,2013-09-17 08:15:00,
2013-09-17 04:16:00,35.2,34.2,30.38,NNW,329,1.0,2.0,96,0.00,,---,0.00,VWS V14.01,2013-09-17 08:16:00,
2013-09-17 04:17:00,35.0,34.2,30.37,NW,314,0.0,2.0,97,0.00,,---,0.00,VWS V14.01,2013-09-17 08:17:00,
2013-09-17 04:18:00,35.2,34.2,30.38,NNW,328,1.0,2.0,96,0.00,,---,0.00,VWS V14.01,2013-09-17 08:18:00,
2013-09-17 04:19:00,35.2,34.2,30.38,NNW,336,1.0,2.0,96,0.00,,---,0.00,VWS V14.01,2013-09-17 08:19:00,
2013-09-17 04:20:00,35.2,34.2,30.38,WNW,300,1.0,2.0,96,0.00,,---,0.00,VWS V14.01,2013-09-17 08:20:00,
2013-09-17 04:21:00,35.2,34.2,30.38,WNW,300,0.0,2.0,96,0.00,,---,0.00,VWS V14.01,2013-09-17 08:21:00,
2013-09-17 04:22:00,35.0,34.2,30.37,NW,315,0.0,1.0,97,0.00,,---,0.00,VWS V14.01,2013-09-17 08:22:00,
2013-09-17 04:23:00,35.2,34.2,30.38,WNW,299,1.0,2.0,96,0.00,,---,0.00,VWS V14.01,2013-09-17 08:23:00,
2013-09-17 04:24:00,35.2,34.2,30.38,WNW,300,0.0,2.0,96,0.00,,---,0.00,VWS V14.01,2013-09-17 08:24:00,
2013-09-17 04:25:00,35.2,34.2,30.38,NW,321,1.0,2.0,96,0.00,,---,0.00,VWS V14.01,2013-09-17 08:25:00,
2013-09-17 04:26:00,35.1,34.1,30.38,NNW,340,2.0,3.0,96,0.00,,---,0.00,VWS V14.01,2013-09-17 08:26:00,
2013-09-17 04:27:00,34.9,34.1,30.37,NW,315,0.0,1.0,97,0.00,,---,0.00,VWS V14.01,2013-09-17 08:27:00,
2013-09-17 04:28:00,35.1,34.1,30.38,NW,314,1.0,3.0,96,0.00,,---,0.00,VWS V14.01,2013-09-17 08:28:00,
2013-09-17 04:29:00,35.1,34.1,30.38,NW,315,1.0,3.0,96,0.00,,---,0.00,VWS V14.01,2013-09-17 08:29:00,
2013-09-17 04:30:00,35.0,34.0,30.38,NW,304,0.0,3.0,96,0.00,,---,0.00,VWS V14.01,2013-09-17 08:30:00,
2013-09-17 04:31:00,34.9,33.9,30.38,NW,323,1.0,2.0,96,0.00,,---,0.00,VWS V14.01,2013-09-17 08:31:00,
2013-09-17 04:32:00,34.9,34.1,30.37,WNW,301,1.0,3.0,97,0.00,,---,0.00,VWS V14.01,2013-09-17 08:32:00,
2013-09-17 04:33:00,34.9,33.9,30.38,North,356,1.0,2.0,96,0.00,,---,0.00,VWS V14.01,2013-09-17 08:33:00,
2013-09-17 04:34:00,34.9,33.9,30.38,NW,315,0.0,2.0,96,0.00,,---,0.00,VWS V14.01,2013-09-17 08:34:00,
2013-09-17 04:35:00,34.9,33.9,30.38,NW,312,1.0,2.0,96,0.00,,---,0.00,VWS V14.01,2013-09-17 08:35:00,
2013-09-17 04:36:00,34.9,33.9,30.38,NW,311,0.0,2.0,96,0.00,,---,0.00,VWS V14.01,2013-09-17 08:36:00,
2013-09-17 04:37:00,34.8,34.0,30.37,NW,324,1.0,2.0,97,0.00,,---,0.00,VWS V14.01,2013-09-17 08:37:00,
2013-09-17 04:38:00,34.8,33.8,30.38,NW,311,0.0,2.0,96,0.00,,---,0.00,VWS V14.01,2013-09-17 08:38:00,
2013-09-17 04:39:00,34.7,33.7,30.39,NW,311,0.0,2.0,96,0.00,,---,0.00,VWS V14.01,2013-09-17 08:39:00,
2013-09-17 04:40:00,34.7,33.7,30.39,WNW,295,0.0,3.0,96,0.00,,---,0.00,VWS V14.01,2013-09-17 08:40:00,
2013-09-17 04:41:00,34.7,33.7,30.39,WNW,295,1.0,3.0,96,0.00,,---,0.00,VWS V14.01,2013-09-17 08:41:00,
2013-09-17 04:42:00,34.9,34.1,30.37,NW,321,2.0,3.0,97,0.00,,---,0.00,VWS V14.01,2013-09-17 08:42:00,
2013-09-17 04:43:00,34.6,33.6,30.39,NNW,330,1.0,3.0,96,0.00,,---,0.00,VWS V14.01,2013-09-17 08:43:00,
2013-09-17 04:44:00,34.6,33.6,30.39,NNW,330,0.0,3.0,96,0.00,,---,0.00,VWS V14.01,2013-09-17 08:44:00,
2013-09-17 04:45:00,34.6,33.6,30.39,NNW,336,1.0,3.0,96,0.00,,---,0.00,VWS V14.01,2013-09-17 08:45:00,
2013-09-17 04:46:00,34.6,33.6,30.39,NNW,336,2.0,3.0,96,0.00,,---,0.00,VWS V14.01,2013-09-17 08:46:00,
2013-09-17 04:47:00,35.1,34.3,30.38,NNW,342,1.0,3.0,97,0.00,,---,0.00,VWS V14.01,2013-09-17 08:47:00,
2013-09-17 04:48:00,34.7,33.7,30.39,NW,324,1.0,4.0,96,0.00,,---,0.00,VWS V14.01,2013-09-17 08:48:00,
2013-09-17 04:49:00,34.8,33.8,30.39,NW,326,2.0,4.0,96,0.00,,---,0.00,VWS V14.01,2013-09-17 08:49:00,
2013-09-17 04:50:00,34.8,34.0,30.39,NW,326,2.0,4.0,97,0.00,,---,0.00,VWS V14.01,2013-09-17 08:50:00,
2013-09-17 04:51:00,34.9,34.1,30.39,NW,324,3.0,4.0,97,0.00,,---,0.00,VWS V14.01,2013-09-17 08:51:00,
2013-09-17 04:52:00,35.4,34.6,30.38,NW,314,0.0,3.0,97,0.00,,---,0.00,VWS V14.01,2013-09-17 08:52:00,
2013-09-17 04:53:00,35.0,34.0,30.39,NW,323,0.0,4.0,96,0.00,,---,0.00,VWS V14.01,2013-09-17 08:53:00,
2013-09-17 04:54:00,35.0,34.0,30.39,NNW,335,2.0,4.0,96,0.00,,---,0.00,VWS V14.01,2013-09-17 08:54:00,
2013-09-17 04:55:00,35.1,34.1,30.39,North,356,3.0,4.0,96,0.00,,---,0.00,VWS V14.01,2013-09-17 08:55:00,
2013-09-17 04:56:00,35.1,34.1,30.39,North,6,2.0,4.0,96,0.00,,---,0.00,VWS V14.01,2013-09-17 08:56:00,
2013-09-17 04:57:00,35.2,34.2,30.38,NNW,329,1.0,2.0,96,0.00,,---,0.00,VWS V14.01,2013-09-17 08:57:00,
2013-09-17 04:58:00,35.2,34.2,30.39,NW,319,2.0,4.0,96,0.00,,---,0.00,VWS V14.01,2013-09-17 08:58:00,
2013-09-17 04:59:00,35.2,34.2,30.39,NW,319,3.0,5.0,96,0.00,,---,0.00,VWS V14.01,2013-09-17 08:59:00,
2013-09-17 05:00:00,35.2,34.2,30.39,NNW,328,3.0,5.0,96,0.00,,---,0.00,VWS V14.01,2013-09-17 09:00:00,
2013-09-17 05:01:00,35.2,34.2,30.39,NNW,348,1.0,5.0,96,0.00,,---,0.00,VWS V14.01,2013-09-17 09:01:00,
2013-09-17 05:02:00,35.2,34.2,30.38,WNW,300,0.0,2.0,96,0.00,,---,0.00,VWS V14.01,2013-09-17 09:02:00,
2013-09-17 05:03:00,35.2,34.2,30.39,North,354,1.0,5.0,96,0.00,,---,0.00,VWS V14.01,2013-09-17 09:03:00,
2013-09-17 05:04:00,35.1,34.1,30.39,NW,324,0.0,3.0,96,0.00,,---,0.00,VWS V14.01,2013-09-17 09:04:00,
2013-09-17 05:05:00,35.2,34.2,30.40,NW,319,1.0,3.0,96,0.00,,---,0.00,VWS V14.01,2013-09-17 09:05:00,
2013-09-17 05:06:00,35.1,34.1,30.40,NW,319,0.0,3.0,96,0.00,,---,0.00,VWS V14.01,2013-09-17 09:06:00,
2013-09-17 05:07:00,35.1,34.1,30.38,NNW,340,2.0,3.0,96,0.00,,---,0.00,VWS V14.01,2013-09-17 09:07:00,
2013-09-17 05:08:00,35.0,33.7,30.40,NNW,346,3.0,3.0,95,0.00,,---,0.00,VWS V14.01,2013-09-17 09:08:00,
2013-09-17 05:09:00,35.0,33.7,30.40,NW,322,2.0,4.0,95,0.00,,---,0.00,VWS V14.01,2013-09-17 09:09:00,
2013-09-17 05:10:00,35.0,34.0,30.40,NNW,345,1.0,4.0,96,0.00,,---,0.00,VWS V14.01,2013-09-17 09:10:00,
2013-09-17 05:11:00,35.1,34.1,30.40,NNW,328,2.0,4.0,96,0.00,,---,0.00,VWS V14.01,2013-09-17 09:11:00,
2013-09-17 05:12:00,34.9,33.9,30.38,NW,323,1.0,2.0,96,0.00,,---,0.00,VWS V14.01,2013-09-17 09:12:00,
2013-09-17 05:13:00,35.0,34.0,30.40,NNW,328,2.0,4.0,96,0.00,,---,0.00,VWS V14.01,2013-09-17 09:13:00,
2013-09-17 05:14:00,35.1,34.1,30.40,North,349,3.0,4.0,96,0.00,,---,0.00,VWS V14.01,2013-09-17 09:14:00,
2013-09-17 05:15:00,35.1,34.1,30.40,NW,318,1.0,4.0,96,0.00,,---,0.00,VWS V14.01,2013-09-17 09:15:00,
2013-09-17 05:16:00,35.1,34.1,30.40,NNW,348,2.0,4.0,96,0.00,,---,0.00,VWS V14.01,2013-09-17 09:16:00,
2013-09-17 05:17:00,34.9,33.9,30.38,NW,311,0.0,2.0,96,0.00,,---,0.00,VWS V14.01,2013-09-17 09:17:00,
2013-09-17 05:18:00,35.2,34.2,30.40,NW,321,2.0,4.0,96,0.00,,---,0.00,VWS V14.01,2013-09-17 09:18:00,
2013-09-17 05:19:00,35.1,34.1,30.40,WNW,301,1.0,4.0,96,0.00,,---,0.00,VWS V14.01,2013-09-17 09:19:00,
2013-09-17 05:20:00,35.2,34.2,30.40,North,7,2.0,4.0,96,0.00,,---,0.00,VWS V14.01,2013-09-17 09:20:00,
2013-09-17 05:21:00,35.2,34.2,30.40,NW,323,4.0,4.0,96,0.00,,---,0.00,VWS V14.01,2013-09-17 09:21:00,
2013-09-17 05:22:00,34.7,33.7,30.39,WNW,295,1.0,3.0,96,0.00,,---,0.00,VWS V14.01,2013-09-17 09:22:00,
2013-09-17 05:23:00,35.3,34.3,30.40,North,350,2.0,5.0,96,0.00,,---,0.00,VWS V14.01,2013-09-17 09:23:00,
2013-09-17 05:24:00,35.3,34.3,30.40,NW,307,2.0,5.0,96,0.00,,---,0.00,VWS V14.01,2013-09-17 09:24:00,
2013-09-17 05:25:00,35.2,34.2,30.40,NW,324,1.0,5.0,96,0.00,,---,0.00,VWS V14.01,2013-09-17 09:25:00,
2013-09-17 05:26:00,35.2,33.9,30.41,WNW,300,3.0,5.0,95,0.00,,---,0.00,VWS V14.01,2013-09-17 09:26:00,
2013-09-17 05:27:00,34.6,33.6,30.39,NNW,336,2.0,3.0,96,0.00,,---,0.00,VWS V14.01,2013-09-17 09:27:00,
2013-09-17 05:28:00,35.2,33.9,30.41,NW,322,2.0,5.0,95,0.00,,---,0.00,VWS V14.01,2013-09-17 09:28:00,
2013-09-17 05:29:00,35.2,33.9,30.41,North,1,2.0,5.0,95,0.00,,---,0.00,VWS V14.01,2013-09-17 09:29:00,
2013-09-17 05:30:00,35.2,33.9,30.41,NW,326,2.0,5.0,95,0.00,,---,0.00,VWS V14.01,2013-09-17 09:30:00,
2013-09-17 05:31:00,35.2,33.9,30.41,NNW,335,3.0,5.0,95,0.00,,---,0.00,VWS V14.01,2013-09-17 09:31:00,
2013-09-17 05:32:00,34.9,34.1,30.39,NW,324,3.0,4.0,97,0.00,,---,0.00,VWS V14.01,2013-09-17 09:32:00,
2013-09-17 05:33:00,35.2,33.9,30.41,NNW,338,2.0,4.0,95,0.00,,---,0.00,VWS V14.01,2013-09-17 09:33:00,
2013-09-17 05:34:00,35.2,33.9,30.41,NNW,332,4.0,4.0,95,0.00,,---,0.00,VWS V14.01,2013-09-17 09:34:00,
2013-09-17 05:35:00,35.3,34.0,30.41,NNW,341,1.0,4.0,95,0.00,,---,0.00,VWS V14.01,2013-09-17 09:35:00,
2013-09-17 05:36:00,35.3,34.0,30.41,North,6,1.0,4.0,95,0.00,,---,0.00,VWS V14.01,2013-09-17 09:36:00,
2013-09-17 05:37:00,35.1,34.1,30.39,North,6,2.0,4.0,96,0.00,,---,0.00,VWS V14.01,2013-09-17 09:37:00,
2013-09-17 05:38:00,35.3,34.0,30.41,NW,319,1.0,4.0,95,0.00,,---,0.00,VWS V14.01,2013-09-17 09:38:00,
2013-09-17 05:39:00,35.3,34.0,30.41,NW,323,1.0,4.0,95,0.00,,---,0.00,VWS V14.01,2013-09-17 09:39:00,
2013-09-17 05:40:00,35.4,34.1,30.41,NW,309,3.0,3.0,95,0.00,,---,0.00,VWS V14.01,2013-09-17 09:40:00,
2013-09-17 05:41:00,35.4,34.1,30.41,NNW,346,1.0,3.0,95,0.00,,---,0.00,VWS V14.01,2013-09-17 09:41:00,
2013-09-17 05:42:00,35.2,34.2,30.39,NNW,348,1.0,5.0,96,0.00,,---,0.00,VWS V14.01,2013-09-17 09:42:00,
2013-09-17 05:43:00,35.4,34.1,30.41,NNW,346,2.0,5.0,95,0.00,,---,0.00,VWS V14.01,2013-09-17 09:43:00,
2013-09-17 05:44:00,35.4,34.1,30.41,NNW,328,3.0,5.0,95,0.00,,---,0.00,VWS V14.01,2013-09-17 09:44:00,
2013-09-17 05:45:00,35.5,34.2,30.41,NW,306,2.0,5.0,95,0.00,,---,0.00,VWS V14.01,2013-09-17 09:45:00,
2013-09-17 05:46:00,35.5,34.2,30.41,NW,311,2.0,5.0,95,0.00,,---,0.00,VWS V14.01,2013-09-17 09:46:00,
2013-09-17 05:47:00,35.1,34.1,30.40,NW,319,0.0,3.0,96,0.00,,---,0.00,VWS V14.01,2013-09-17 09:47:00,
2013-09-17 05:48:00,35.5,34.2,30.41,NW,319,2.0,4.0,95,0.00,,---,0.00,VWS V14.01,2013-09-17 09:48:00,
2013-09-17 05:49:00,35.5,34.2,30.41,NW,325,1.0,4.0,95,0.00,,---,0.00,VWS V14.01,2013-09-17 09:49:00,
2013-09-17 05:50:00,35.5,34.2,30.41,NNW,328,1.0,4.0,95,0.00,,---,0.00,VWS V14.01,2013-09-17 09:50:00,
2013-09-17 05:51:00,35.5,34.2,30.41,NW,319,1.0,3.0,95,0.00,,---,0.00,VWS V14.01,2013-09-17 09:51:00,
2013-09-17 05:52:00,35.1,34.1,30.40,NNW,328,2.0,4.0,96,0.00,,---,0.00,VWS V14.01,2013-09-17 09:52:00,
2013-09-17 05:53:00,35.5,34.2,30.41,NW,315,1.0,2.0,95,0.00,,---,0.00,VWS V14.01,2013-09-17 09:53:00,
2013-09-17 05:54:00,35.4,34.1,30.41,NW,314,1.0,2.0,95,0.00,,---,0.00,VWS V14.01,2013-09-17 09:54:00,
2013-09-17 05:55:00,35.4,34.1,30.41,NW,323,0.0,2.0,95,0.00,,---,0.00,VWS V14.01,2013-09-17 09:55:00,
2013-09-17 05:56:00,35.3,34.0,30.41,NW,323,0.0,2.0,95,0.00,,---,0.00,VWS V14.01,2013-09-17 09:56:00,
2013-09-17 05:57:00,35.1,34.1,30.40,NNW,348,2.0,4.0,96,0.00,,---,0.00,VWS V14.01,2013-09-17 09:57:00,
2013-09-17 05:58:00,35.3,34.0,30.41,WNW,292,0.0,2.0,95,0.00,,---,0.00,VWS V14.01,2013-09-17 09:58:00,
2013-09-17 05:59:00,35.3,34.0,30.41,North,356,2.0,2.0,95,0.00,,---,0.00,VWS V14.01,2013-09-17 09:59:00,
2013-09-17 06:00:00,35.2,33.9,30.42,NW,308,1.0,2.0,95,0.00,,---,0.00,VWS V14.01,2013-09-17 10:00:00,
2013-09-17 06:01:00,35.3,34.0,30.42,NW,324,0.0,3.0,95,0.00,,---,0.00,VWS V14.01,2013-09-17 10:01:00,
2013-09-17 06:02:00,35.2,34.2,30.40,NW,323,4.0,4.0,96,0.00,,---,0.00,VWS V14.01,2013-09-17 10:02:00,
2013-09-17 06:03:00,35.3,34.0,30.42,NW,319,1.0,3.0,95,0.00,,---,0.00,VWS V14.01,2013-09-17 10:03:00,
2013-09-17 06:04:00,35.3,34.0,30.42,NW,319,0.0,3.0,95,0.00,,---,0.00,VWS V14.01,2013-09-17 10:04:00,
2013-09-17 06:05:00,35.3,34.0,30.42,NW,319,1.0,3.0,95,0.00,,---,0.00,VWS V14.01,2013-09-17 10:05:00,
2013-09-17 06:06:00,35.3,34.0,30.42,NNW,330,1.0,3.0,95,0.00,,---,0.00,VWS V14.01,2013-09-17 10:06:00,
2013-09-17 06:07:00,35.2,33.9,30.41,WNW,300,3.0,5.0,95,0.00,,---,0.00,VWS V14.01,2013-09-17 10:07:00,
2013-09-17 06:08:00,35.2,33.9,30.42,NW,307,2.0,3.0,95,0.00,,---,0.00,VWS V14.01,2013-09-17 10:08:00,
2013-09-17 06:09:00,35.2,33.9,30.42,NW,319,2.0,3.0,95,0.00,,---,0.00,VWS V14.01,2013-09-17 10:09:00,
2013-09-17 06:10:00,35.2,33.9,30.42,NW,319,0.0,3.0,95,0.00,,---,0.00,VWS V14.01,2013-09-17 10:10:00,
2013-09-17 06:11:00,35.3,34.0,30.42,NW,321,1.0,3.0,95,0.00,,---,0.00,VWS V14.01,2013-09-17 10:11:00,
2013-09-17 06:12:00,35.2,33.9,30.41,NNW,335,3.0,5.0,95,0.00,,---,0.00,VWS V14.01,2013-09-17 10:12:00,
2013-09-17 06:13:00,35.2,33.9,30.43,WNW,302,1.0,3.0,95,0.00,,---,0.00,VWS V14.01,2013-09-17 10:13:00,
2013-09-17 06:14:00,35.2,33.9,30.43,NW,314,0.0,3.0,95,0.00,,---,0.00,VWS V14.01,2013-09-17 10:14:00,
2013-09-17 06:15:00,35.2,33.9,30.43,NNW,329,0.0,3.0,95,0.00,,---,0.00,VWS V14.01,2013-09-17 10:15:00,
2013-09-17 06:16:00,35.2,33.9,30.43,NW,306,2.0,2.0,95,0.00,,---,0.00,VWS V14.01,2013-09-17 10:16:00,
2013-09-17 06:17:00,35.3,34.0,30.41,North,6,1.0,4.0,95,0.00,,---,0.00,VWS V14.01,2013-09-17 10:17:00,
2013-09-17 06:18:00,35.2,33.9,30.43,NW,308,1.0,3.0,95,0.00,,---,0.00,VWS V14.01,2013-09-17 10:18:00,
2013-09-17 06:19:00,35.2,33.9,30.43,NW,308,0.0,3.0,95,0.00,,---,0.00,VWS V14.01,2013-09-17 10:19:00,
2013-09-17 06:20:00,35.2,33.9,30.43,NW,307,1.0,3.0,95,0.00,,---,0.00,VWS V14.01,2013-09-17 10:20:00,
2013-09-17 06:21:00,35.1,33.8,30.43,NW,309,1.0,3.0,95,0.00,,---,0.00,VWS V14.01,2013-09-17 10:21:00,
2013-09-17 06:22:00,35.4,34.1,30.41,NNW,346,1.0,3.0,95,0.00,,---,0.00,VWS V14.01,2013-09-17 10:22:00,
2013-09-17 06:23:00,35.1,33.8,30.43,WNW,293,0.0,2.0,95,0.00,,---,0.00,VWS V14.01,2013-09-17 10:23:00,
2013-09-17 06:24:00,35.1,33.8,30.43,WNW,295,0.0,2.0,95,0.00,,---,0.00,VWS V14.01,2013-09-17 10:24:00,
2013-09-17 06:25:00,35.1,33.8,30.43,NW,314,1.0,2.0,95,0.00,,---,0.00,VWS V14.01,2013-09-17 10:25:00,
2013-09-17 06:26:00,35.1,33.8,30.43,NW,305,1.0,2.0,95,0.00,,---,0.00,VWS V14.01,2013-09-17 10:26:00,
2013-09-17 06:27:00,35.5,34.2,30.41,NW,311,2.0,5.0,95,0.00,,---,0.00,VWS V14.01,2013-09-17 10:27:00,
2013-09-17 06:28:00,35.1,33.8,30.43,WNW,295,1.0,2.0,95,0.00,,---,0.00,VWS V14.01,2013-09-17 10:28:00,
2013-09-17 06:29:00,35.1,33.8,30.43,WNW,293,0.0,2.0,95,0.00,,---,0.00,VWS V14.01,2013-09-17 10:29:00,
2013-09-17 06:30:00,35.1,33.8,30.43,WNW,294,1.0,2.0,95,0.00,,---,0.00,VWS V14.01,2013-09-17 10:30:00,
2013-09-17 06:31:00,35.1,33.8,30.43,WNW,294,0.0,2.0,95,0.00,,---,0.00,VWS V14.01,2013-09-17 10:31:00,
2013-09-17 06:32:00,35.5,34.2,30.41,NW,319,1.0,3.0,95,0.00,,---,0.00,VWS V14.01,2013-09-17 10:32:00,
2013-09-17 06:33:00,35.1,33.8,30.43,NW,305,0.0,1.0,95,0.00,,---,0.00,VWS V14.01,2013-09-17 10:33:00,
2013-09-17 06:34:00,35.1,33.8,30.43,NW,305,0.0,1.0,95,0.00,,---,0.00,VWS V14.01,2013-09-17 10:34:00,
2013-09-17 06:35:00,35.2,33.9,30.43,NW,305,0.0,1.0,95,0.00,,---,0.00,VWS V14.01,2013-09-17 10:35:00,
2013-09-17 06:36:00,35.2,33.9,30.43,NW,305,0.0,1.0,95,0.00,,---,0.00,VWS V14.01,2013-09-17 10:36:00,
2013-09-17 06:37:00,35.3,34.0,30.41,NW,323,0.0,2.0,95,0.00,,---,0.00,VWS V14.01,2013-09-17 10:37:00,
2013-09-17 06:38:00,35.3,34.0,30.44,NW,308,0.0,2.0,95,0.00,,---,0.00,VWS V14.01,2013-09-17 10:38:00,
2013-09-17 06:39:00,35.3,34.0,30.44,NNW,331,1.0,2.0,95,0.00,,---,0.00,VWS V14.01,2013-09-17 10:39:00,
2013-09-17 06:40:00,35.4,34.1,30.44,NNW,332,1.0,2.0,95,0.00,,---,0.00,VWS V14.01,2013-09-17 10:40:00,
2013-09-17 06:41:00,35.5,34.5,30.44,NW,309,0.0,2.0,96,0.00,,---,0.00,VWS V14.01,2013-09-17 10:41:00,
2013-09-17 06:42:00,35.3,34.0,30.42,NW,324,0.0,3.0,95,0.00,,---,0.00,VWS V14.01,2013-09-17 10:42:00,
2013-09-17 06:43:00,35.7,34.4,30.44,NW,311,1.0,2.0,95,0.00,,---,0.00,VWS V14.01,2013-09-17 10:43:00,
2013-09-17 06:44:00,35.8,34.5,30.44,NW,312,1.0,2.0,95,0.00,,---,0.00,VWS V14.01,2013-09-17 10:44:00,
2013-09-17 06:45:00,35.9,34.6,30.44,NW,314,1.0,2.0,95,0.00,,---,0.00,VWS V14.01,2013-09-17 10:45:00,
2013-09-17 06:46:00,35.9,34.6,30.44,NW,314,0.0,1.0,95,0.00,,---,0.00,VWS V14.01,2013-09-17 10:46:00,
2013-09-17 06:47:00,35.3,34.0,30.42,NNW,330,1.0,3.0,95,0.00,,---,0.00,VWS V14.01,2013-09-17 10:47:00,
2013-09-17 06:48:00,36.1,34.8,30.44,NW,318,1.0,2.0,95,0.00,,---,0.00,VWS V14.01,2013-09-17 10:48:00,
2013-09-17 06:49:00,36.2,34.9,30.44,NW,318,0.0,2.0,95,0.00,,---,0.00,VWS V14.01,2013-09-17 10:49:00,
2013-09-17 06:50:00,36.3,35.0,30.44,NW,318,1.0,2.0,95,0.00,,---,0.00,VWS V14.01,2013-09-17 10:50:00,
2013-09-17 06:51:00,36.4,35.1,30.44,NW,318,1.0,2.0,95,0.00,,---,0.00,VWS V14.01,2013-09-17 10:51:00,
2013-09-17 06:52:00,35.3,34.0,30.42,NW,321,1.0,3.0,95,0.00,,---,0.00,VWS V14.01,2013-09-17 10:52:00,
2013-09-17 06:53:00,36.6,35.3,30.44,NW,309,1.0,2.0,95,0.00,,---,0.00,VWS V14.01,2013-09-17 10:53:00,
2013-09-17 06:54:00,36.7,35.4,30.44,NNW,343,1.0,3.0,95,0.00,,---,0.00,VWS V14.01,2013-09-17 10:54:00,
2013-09-17 06:55:00,36.8,35.5,30.44,NW,326,0.0,3.0,95,0.00,,---,0.00,VWS V14.01,2013-09-17 10:55:00,
2013-09-17 06:56:00,36.9,35.6,30.44,NW,322,2.0,3.0,95,0.00,,---,0.00,VWS V14.01,2013-09-17 10:56:00,
2013-09-17 06:57:00,35.2,33.9,30.43,NW,306,2.0,2.0,95,0.00,,---,0.00,VWS V14.01,2013-09-17 10:57:00,
2013-09-17 06:58:00,37.2,35.9,30.44,NNW,336,1.0,3.0,95,0.00,,---,0.00,VWS V14.01,2013-09-17 10:58:00,
2013-09-17 06:59:00,37.3,35.7,30.44,NW,319,0.0,3.0,94,0.00,,---,0.00,VWS V14.01,2013-09-17 10:59:00,
2013-09-17 07:00:00,37.5,35.9,30.44,NW,319,0.0,3.0,94,0.00,,---,0.00,VWS V14.01,2013-09-17 11:00:00,
2013-09-17 07:01:00,37.5,35.9,30.44,NW,319,1.0,2.0,94,0.00,,---,0.00,VWS V14.01,2013-09-17 11:01:00,
2013-09-17 07:02:00,35.1,33.8,30.43,NW,309,1.0,3.0,95,0.00,,---,0.00,VWS V14.01,2013-09-17 11:02:00,
2013-09-17 07:03:00,37.7,36.1,30.44,North,358,0.0,2.0,94,0.00,,---,0.00,VWS V14.01,2013-09-17 11:03:00,
2013-09-17 07:04:00,37.9,36.3,30.44,NW,321,1.0,1.0,94,0.00,,---,0.00,VWS V14.01,2013-09-17 11:04:00,
2013-09-17 07:05:00,38.0,36.4,30.44,North,11,1.0,2.0,94,0.00,,---,0.00,VWS V14.01,2013-09-17 11:05:00,
2013-09-17 07:06:00,38.1,36.5,30.44,NW,313,1.0,2.0,94,0.00,,---,0.00,VWS V14.01,2013-09-17 11:06:00,
2013-09-17 07:07:00,35.1,33.8,30.43,NW,305,1.0,2.0,95,0.00,,---,0.00,VWS V14.01,2013-09-17 11:07:00,
2013-09-17 07:08:00,38.3,36.5,30.44,NNW,328,1.0,2.0,93,0.00,,---,0.00,VWS V14.01,2013-09-17 11:08:00,
2013-09-17 07:09:00,38.3,36.5,30.44,NW,316,2.0,4.0,93,0.00,,---,0.00,VWS V14.01,2013-09-17 11:09:00,
2013-09-17 07:10:00,38.4,36.6,30.44,NW,315,1.0,4.0,93,0.00,,---,0.00,VWS V14.01,2013-09-17 11:10:00,
2013-09-17 07:11:00,38.5,36.7,30.44,NW,309,2.0,4.0,93,0.00,,---,0.00,VWS V14.01,2013-09-17 11:11:00,
2013-09-17 07:12:00,35.1,33.8,30.43,WNW,294,0.0,2.0,95,0.00,,---,0.00,VWS V14.01,2013-09-17 11:12:00,
2013-09-17 07:13:00,38.7,36.6,30.44,NNW,340,5.0,5.0,92,0.00,,---,0.00,VWS V14.01,2013-09-17 11:13:00,
2013-09-17 07:14:00,38.8,36.7,30.44,NW,316,1.0,5.0,92,0.00,,---,0.00,VWS V14.01,2013-09-17 11:14:00,
2013-09-17 07:15:00,38.8,36.7,30.44,WNW,302,2.0,5.0,92,0.00,,---,0.00,VWS V14.01,2013-09-17 11:15:00,
2013-09-17 07:16:00,38.9,36.8,30.44,NNE,30,2.0,5.0,92,0.00,,---,0.00,VWS V14.01,2013-09-17 11:16:00,
2013-09-17 07:17:00,35.2,33.9,30.43,NW,305,0.0,1.0,95,0.00,,---,0.00,VWS V14.01,2013-09-17 11:17:00,
2013-09-17 07:18:00,39.1,37.0,30.44,NW,305,4.0,6.0,92,0.00,,---,0.00,VWS V14.01,2013-09-17 11:18:00,
2013-09-17 07:19:00,39.1,36.7,30.44,NW,316,4.0,6.0,91,0.00,,---,0.00,VWS V14.01,2013-09-17 11:19:00,
2013-09-17 07:20:00,39.2,36.8,30.44,NW,316,2.0,6.0,91,0.00,,---,0.00,VWS V14.01,2013-09-17 11:20:00,
2013-09-17 07:21:00,39.3,36.9,30.45,NNW,328,5.0,6.0,91,0.00,,---,0.00,VWS V14.01,2013-09-17 11:21:00,
2013-09-17 07:22:00,35.5,34.5,30.44,NW,309,0.0,2.0,96,0.00,,---,0.00,VWS V14.01,2013-09-17 11:22:00,
2013-09-17 07:23:00,39.5,37.1,30.44,NNW,338,4.0,5.0,91,0.00,,---,0.00,VWS V14.01,2013-09-17 11:23:00,
2013-09-17 07:24:00,39.6,37.2,30.45,NW,318,1.0,5.0,91,0.00,,---,0.00,VWS V14.01,2013-09-17 11:24:00,
2013-09-17 07:25:00,39.6,37.2,30.45,NNE,31,2.0,5.0,91,0.00,,---,0.00,VWS V14.01,2013-09-17 11:25:00,
2013-09-17 07:26:00,39.8,37.4,30.45,NNE,12,1.0,4.0,91,0.00,,---,0.00,VWS V14.01,2013-09-17 11:26:00,
2013-09-17 07:27:00,35.9,34.6,30.44,NW,314,0.0,1.0,95,0.00,,---,0.00,VWS V14.01,2013-09-17 11:27:00,
2013-09-17 07:28:00,39.9,37.2,30.45,NNW,333,1.0,5.0,90,0.00,,---,0.00,VWS V14.01,2013-09-17 11:28:00,
2013-09-17 07:29:00,40.0,37.3,30.45,NNE,24,3.0,5.0,90,0.00,,---,0.00,VWS V14.01,2013-09-17 11:29:00,
2013-09-17 07:30:00,40.1,37.4,30.45,NNW,342,2.0,5.0,90,0.00,,---,0.00,VWS V14.01,2013-09-17 11:30:00,
2013-09-17 07:31:00,40.2,37.5,30.45,NNW,347,4.0,5.0,90,0.00,,---,0.00,VWS V14.01,2013-09-17 11:31:00,
2013-09-17 07:32:00,36.4,35.1,30.44,NW,318,1.0,2.0,95,0.00,,---,0.00,VWS V14.01,2013-09-17 11:32:00,
2013-09-17 07:33:00,40.3,37.6,30.45,NW,320,3.0,5.0,90,0.00,,---,0.00,VWS V14.01,2013-09-17 11:33:00,
2013-09-17 07:34:00,40.4,37.7,30.45,NW,325,3.0,5.0,90,0.00,,---,0.00,VWS V14.01,2013-09-17 11:34:00,
2013-09-17 07:35:00,40.4,37.7,30.45,WNW,302,3.0,5.0,90,0.00,,---,0.00,VWS V14.01,2013-09-17 11:35:00,
2013-09-17 07:36:00,40.5,37.8,30.45,WNW,294,2.0,7.0,90,0.00,,---,0.00,VWS V14.01,2013-09-17 11:36:00,
2013-09-17 07:37:00,36.9,35.6,30.44,NW,322,2.0,3.0,95,0.00,,---,0.00,VWS V14.01,2013-09-17 11:37:00,
2013-09-17 07:38:00,40.6,37.9,30.45,North,350,3.0,7.0,90,0.00,,---,0.00,VWS V14.01,2013-09-17 11:38:00,
2013-09-17 07:39:00,40.6,37.9,30.45,NW,326,1.0,7.0,90,0.00,,---,0.00,VWS V14.01,2013-09-17 11:39:00,
2013-09-17 07:40:00,40.6,37.9,30.45,NW,314,1.0,7.0,90,0.00,,---,0.00,VWS V14.01,2013-09-17 11:40:00,
2013-09-17 07:41:00,40.6,37.9,30.45,NW,305,3.0,4.0,90,0.00,,---,0.00,VWS V14.01,2013-09-17 11:41:00,
2013-09-17 07:42:00,37.5,35.9,30.44,NW,319,1.0,2.0,94,0.00,,---,0.00,VWS V14.01,2013-09-17 11:42:00,
2013-09-17 07:43:00,40.5,37.8,30.45,NNW,328,3.0,4.0,90,0.00,,---,0.00,VWS V14.01,2013-09-17 11:43:00,
2013-09-17 07:44:00,40.5,37.8,30.46,NNW,336,2.0,4.0,90,0.00,,---,0.00,VWS V14.01,2013-09-17 11:44:00,
2013-09-17 07:45:00,40.4,37.7,30.46,NNW,346,2.0,4.0,90,0.00,,---,0.00,VWS V14.01,2013-09-17 11:45:00,
2013-09-17 07:46:00,40.4,37.7,30.46,NNW,328,1.0,4.0,90,0.00,,---,0.00,VWS V14.01,2013-09-17 11:46:00,
2013-09-17 07:47:00,38.1,36.5,30.44,NW,313,1.0,2.0,94,0.00,,---,0.00,VWS V14.01,2013-09-17 11:47:00,
2013-09-17 07:48:00,40.6,37.9,30.46,WNW,285,2.0,7.0,90,0.00,,---,0.00,VWS V14.01,2013-09-17 11:48:00,
2013-09-17 07:49:00,40.6,37.9,30.46,NW,312,2.0,7.0,90,0.00,,---,0.00,VWS V14.01,2013-09-17 11:49:00,
2013-09-17 07:50:00,40.7,38.0,30.46,WNW,290,1.0,7.0,90,0.00,,---,0.00,VWS V14.01,2013-09-17 11:50:00,
2013-09-17 07:51:00,40.8,38.1,30.46,NW,311,2.0,7.0,90,0.00,,---,0.00,VWS V14.01,2013-09-17 11:51:00,
2013-09-17 07:52:00,38.5,36.7,30.44,NW,309,2.0,4.0,93,0.00,,---,0.00,VWS V14.01,2013-09-17 11:52:00,
2013-09-17 07:53:00,40.9,38.5,30.46,North,354,3.0,4.0,91,0.00,,---,0.00,VWS V14.01,2013-09-17 11:53:00,
2013-09-17 07:54:00,40.9,38.2,30.46,WNW,300,1.0,4.0,90,0.00,,---,0.00,VWS V14.01,2013-09-17 11:54:00,
2013-09-17 07:55:00,41.0,38.3,30.46,NW,305,2.0,4.0,90,0.00,,---,0.00,VWS V14.01,2013-09-17 11:55:00,
2013-09-17 07:56:00,40.9,38.2,30.46,NW,314,3.0,4.0,90,0.00,,---,0.00,VWS V14.01,2013-09-17 11:56:00,
2013-09-17 07:57:00,38.9,36.8,30.44,NNE,30,2.0,5.0,92,0.00,,---,0.00,VWS V14.01,2013-09-17 11:57:00,
2013-09-17 07:58:00,41.0,38.3,30.47,NW,316,5.0,5.0,90,0.00,,---,0.00,VWS V14.01,2013-09-17 11:58:00,
2013-09-17 07:59:00,41.0,38.3,30.47,North,354,3.0,6.0,90,0.00,,---,0.00,VWS V14.01,2013-09-17 11:59:00,
2013-09-17 08:00:00,40.9,37.9,30.47,NW,322,5.0,6.0,89,0.00,,---,0.00,VWS V14.01,2013-09-17 12:00:00,
2013-09-17 08:01:00,40.9,37.9,30.47,NNW,336,4.0,6.0,89,0.00,,---,0.00,VWS V14.01,2013-09-17 12:01:00,
2013-09-17 08:02:00,39.3,36.9,30.45,NNW,328,5.0,6.0,91,0.00,,---,0.00,VWS V14.01,2013-09-17 12:02:00,
2013-09-17 08:03:00,40.9,37.9,30.47,NW,316,3.0,6.0,89,0.00,,---,0.00,VWS V14.01,2013-09-17 12:03:00,
2013-09-17 08:04:00,40.9,37.9,30.47,NW,309,3.0,6.0,89,0.00,,---,0.00,VWS V14.01,2013-09-17 12:04:00,
2013-09-17 08:05:00,40.9,37.9,30.47,NW,314,3.0,7.0,89,0.00,,---,0.00,VWS V14.01,2013-09-17 12:05:00,
2013-09-17 08:06:00,40.9,38.2,30.47,NW,311,2.0,7.0,90,0.00,,---,0.00,VWS V14.01,2013-09-17 12:06:00,
2013-09-17 08:07:00,39.8,37.4,30.45,NNE,12,1.0,4.0,91,0.00,,---,0.00,VWS V14.01,2013-09-17 12:07:00,
2013-09-17 08:08:00,40.9,37.9,30.47,North,9,2.0,8.0,89,0.00,,---,0.00,VWS V14.01,2013-09-17 12:08:00,
2013-09-17 08:09:00,40.9,37.9,30.47,NW,318,3.0,8.0,89,0.00,,---,0.00,VWS V14.01,2013-09-17 12:09:00,
2013-09-17 08:10:00,41.0,38.3,30.47,North,354,2.0,8.0,90,0.00,,---,0.00,VWS V14.01,2013-09-17 12:10:00,
2013-09-17 08:11:00,41.1,38.4,30.47,NW,304,5.0,8.0,90,0.00,,---,0.00,VWS V14.01,2013-09-17 12:11:00,
2013-09-17 08:12:00,40.2,37.5,30.45,NNW,347,4.0,5.0,90,0.00,,---,0.00,VWS V14.01,2013-09-17 12:12:00,
2013-09-17 08:13:00,41.1,38.1,30.47,NNW,335,2.0,8.0,89,0.00,,---,0.00,VWS V14.01,2013-09-17 12:13:00,
2013-09-17 08:14:00,41.1,38.4,30.47,WNW,300,7.0,8.0,90,0.00,,---,0.00,VWS V14.01,2013-09-17 12:14:00,
2013-09-17 08:15:00,41.1,38.1,30.47,WNW,287,3.0,8.0,89,0.00,,---,0.00,VWS V14.01,2013-09-17 12:15:00,
2013-09-17 08:16:00,41.1,38.4,30.47,NW,322,4.0,8.0,90,0.00,,---,0.00,VWS V14.01,2013-09-17 12:16:00,
2013-09-17 08:17:00,40.5,37.8,30.45,WNW,294,2.0,7.0,90,0.00,,---,0.00,VWS V14.01,2013-09-17 12:17:00,
2013-09-17 08:18:00,41.2,38.5,30.47,NW,322,3.0,7.0,90,0.00,,---,0.00,VWS V14.01,2013-09-17 12:18:00,
2013-09-17 08:19:00,41.2,38.5,30.47,NNE,30,4.0,6.0,90,0.00,,---,0.00,VWS V14.01,2013-09-17 12:19:00,
2013-09-17 08:20:00,41.3,38.6,30.47,NNW,334,3.0,6.0,90,0.00,,---,0.00,VWS V14.01,2013-09-17 12:20:00,
2013-09-17 08:21:00,41.4,38.7,30.47,NW,324,2.0,6.0,90,0.00,,---,0.00,VWS V14.01,2013-09-17 12:21:00,
2013-09-17 08:22:00,40.6,37.9,30.45,NW,305,3.0,4.0,90,0.00,,---,0.00,VWS V14.01,2013-09-17 12:22:00,
2013-09-17 08:23:00,41.6,38.9,30.47,NNE,33,2.0,5.0,90,0.00,,---,0.00,VWS V14.01,2013-09-17 12:23:00,
2013-09-17 08:24:00,41.7,39.0,30.47,NNW,339,3.0,4.0,90,0.00,,---,0.00,VWS V14.01,2013-09-17 12:24:00,
2013-09-17 08:25:00,41.8,39.1,30.47,North,6,4.0,6.0,90,0.00,,---,0.00,VWS V14.01,2013-09-17 12:25:00,
2013-09-17 08:26:00,41.9,38.9,30.48,NNW,333,1.0,6.0,89,0.00,,---,0.00,VWS V14.01,2013-09-17 12:26:00,
2013-09-17 08:27:00,40.4,37.7,30.46,NNW,328,1.0,4.0,90,0.00,,---,0.00,VWS V14.01,2013-09-17 12:27:00,
2013-09-17 08:28:00,42.0,38.7,30.48,NE,44,5.0,10.0,88,0.00,,---,0.00,VWS V14.01,2013-09-17 12:28:00,
2013-09-17 08:29:00,42.2,38.9,30.48,NNE,13,2.0,10.0,88,0.00,,---,0.00,VWS V14.01,2013-09-17 12:29:00,
2013-09-17 08:30:00,42.4,39.1,30.47,NE,54,4.0,10.0,88,0.00,,---,0.00,VWS V14.01,2013-09-17 12:30:00,
2013-09-17 08:31:00,42.5,39.2,30.47,NE,36,4.0,10.0,88,0.00,,---,0.00,VWS V14.01,2013-09-17 12:31:00,
2013-09-17 08:32:00,40.8,38.1,30.46,NW,311,2.0,7.0,90,0.00,,---,0.00,VWS V14.01,2013-09-17 12:32:00,
2013-09-17 08:33:00,42.8,39.2,30.48,NNW,330,3.0,7.0,87,0.00,,---,0.00,VWS V14.01,2013-09-17 12:33:00,
2013-09-17 08:34:00,43.0,39.4,30.48,North,8,5.0,7.0,87,0.00,,---,0.00,VWS V14.01,2013-09-17 12:34:00,
2013-09-17 08:35:00,43.1,39.5,30.48,NNE,15,5.0,11.0,87,0.00,,---,0.00,VWS V14.01,2013-09-17 12:35:00,
2013-09-17 08:36:00,43.2,39.3,30.48,NW,308,4.0,11.0,86,0.00,,---,0.00,VWS V14.01,2013-09-17 12:36:00,
2013-09-17 08:37:00,40.9,38.2,30.46,NW,314,3.0,4.0,90,0.00,,---,0.00,VWS V14.01,2013-09-17 12:37:00,
2013-09-17 08:38:00,43.3,39.1,30.48,NW,326,6.0,11.0,85,0.00,,---,0.00,VWS V14.01,2013-09-17 12:38:00,
2013-09-17 08:39:00,43.4,39.2,30.48,NNW,338,6.0,11.0,85,0.00,,---,0.00,VWS V14.01,2013-09-17 12:39:00,
2013-09-17 08:40:00,43.5,39.3,30.48,NNW,340,3.0,9.0,85,0.00,,---,0.00,VWS V14.01,2013-09-17 12:40:00,
2013-09-17 08:41:00,43.6,39.7,30.48,NNE,20,5.0,8.0,86,0.00,,---,0.00,VWS V14.01,2013-09-17 12:41:00,
2013-09-17 08:42:00,40.9,37.9,30.47,NNW,336,4.0,6.0,89,0.00,,---,0.00,VWS V14.01,2013-09-17 12:42:00,
2013-09-17 08:43:00,43.8,39.6,30.48,NNW,330,5.0,8.0,85,0.00,,---,0.00,VWS V14.01,2013-09-17 12:43:00,
2013-09-17 08:44:00,43.9,39.7,30.48,NE,39,2.0,7.0,85,0.00,,---,0.00,VWS V14.01,2013-09-17 12:44:00,
2013-09-17 08:45:00,43.9,39.7,30.48,NW,308,4.0,7.0,85,0.00,,---,0.00,VWS V14.01,2013-09-17 12:45:00,
2013-09-17 08:46:00,44.0,39.8,30.48,NW,322,6.0,7.0,85,0.00,,---,0.00,VWS V14.01,2013-09-17 12:46:00,
2013-09-17 08:47:00,40.9,38.2,30.47,NW,311,2.0,7.0,90,0.00,,---,0.00,VWS V14.01,2013-09-17 12:47:00,
2013-09-17 08:48:00,44.1,39.3,30.48,North,349,4.0,9.0,83,0.00,,---,0.00,VWS V14.01,2013-09-17 12:48:00,
2013-09-17 08:49:00,44.2,39.7,30.48,NNW,347,5.0,9.0,84,0.00,,---,0.00,VWS V14.01,2013-09-17 12:49:00,
2013-09-17 08:50:00,44.2,39.4,30.49,North,352,10.0,10.0,83,0.00,,---,0.00,VWS V14.01,2013-09-17 12:50:00,
2013-09-17 08:51:00,44.2,39.4,30.49,NNW,333,8.0,11.0,83,0.00,,---,0.00,VWS V14.01,2013-09-17 12:51:00,
2013-09-17 08:52:00,41.1,38.4,30.47,NW,304,5.0,8.0,90,0.00,,---,0.00,VWS V14.01,2013-09-17 12:52:00,
2013-09-17 08:53:00,44.4,39.9,30.49,ENE,63,6.0,11.0,84,0.00,,---,0.00,VWS V14.01,2013-09-17 12:53:00,
2013-09-17 08:54:00,44.4,39.9,30.49,North,356,10.0,12.0,84,0.00,,---,0.00,VWS V14.01,2013-09-17 12:54:00,
2013-09-17 08:55:00,44.4,39.3,30.49,NE,39,5.0,12.0,82,0.00,,---,0.00,VWS V14.01,2013-09-17 12:55:00,
2013-09-17 08:56:00,44.4,39.3,30.49,NNE,15,4.0,12.0,82,0.00,,---,0.00,VWS V14.01,2013-09-17 12:56:00,
2013-09-17 08:57:00,41.1,38.4,30.47,NW,322,4.0,8.0,90,0.00,,---,0.00,VWS V14.01,2013-09-17 12:57:00,
2013-09-17 08:58:00,44.6,39.5,30.49,North,358,6.0,12.0,82,0.00,,---,0.00,VWS V14.01,2013-09-17 12:58:00,
2013-09-17 08:59:00,44.7,39.5,30.49,NW,310,3.0,10.0,82,0.00,,---,0.00,VWS V14.01,2013-09-17 12:59:00,
2013-09-17 09:00:00,44.7,39.9,30.49,NW,320,2.0,10.0,83,0.00,,---,0.00,VWS V14.01,2013-09-17 13:00:00,
2013-09-17 09:01:00,44.8,40.0,30.49,NNW,344,9.0,10.0,83,0.00,,---,0.00,VWS V14.01,2013-09-17 13:01:00,
2013-09-17 09:02:00,41.4,38.7,30.47,NW,324,2.0,6.0,90,0.00,,---,0.00,VWS V14.01,2013-09-17 13:02:00,
2013-09-17 09:03:00,44.9,39.4,30.49,NE,46,8.0,11.0,81,0.00,,---,0.00,VWS V14.01,2013-09-17 13:03:00,
2013-09-17 09:04:00,44.9,39.1,30.48,NNE,12,9.0,12.0,80,0.00,,---,0.00,VWS V14.01,2013-09-17 13:04:00,
2013-09-17 09:05:00,44.9,39.1,30.48,NNE,33,7.0,12.0,80,0.00,,---,0.00,VWS V14.01,2013-09-17 13:05:00,
2013-09-17 09:06:00,45.0,39.5,30.49,NW,311,3.0,12.0,81,0.00,,---,0.00,VWS V14.01,2013-09-17 13:06:00,
2013-09-17 09:07:00,41.9,38.9,30.48,NNW,333,1.0,6.0,89,0.00,,---,0.00,VWS V14.01,2013-09-17 13:07:00,
2013-09-17 09:08:00,45.1,39.6,30.49,ENE,74,4.0,12.0,81,0.00,,---,0.00,VWS V14.01,2013-09-17 13:08:00,
2013-09-17 09:09:00,45.1,39.3,30.49,NNE,20,4.0,12.0,80,0.00,,---,0.00,VWS V14.01,2013-09-17 13:09:00,
2013-09-17 09:10:00,45.3,39.8,30.49,NNE,22,6.0,10.0,81,0.00,,---,0.00,VWS V14.01,2013-09-17 13:10:00,
2013-09-17 09:11:00,45.3,39.5,30.48,NNE,29,0.0,9.0,80,0.00,,---,0.00,VWS V14.01,2013-09-17 13:11:00,
2013-09-17 09:12:00,42.5,39.2,30.47,NE,36,4.0,10.0,88,0.00,,---,0.00,VWS V14.01,2013-09-17 13:12:00,
2013-09-17 09:13:00,45.6,39.8,30.49,NE,43,6.0,8.0,80,0.00,,---,0.00,VWS V14.01,2013-09-17 13:13:00,
2013-09-17 09:14:00,45.6,39.5,30.49,ENE,61,7.0,11.0,79,0.00,,---,0.00,VWS V14.01,2013-09-17 13:14:00,
2013-09-17 09:15:00,45.5,39.0,30.49,NNE,15,6.0,11.0,78,0.00,,---,0.00,VWS V14.01,2013-09-17 13:15:00,
2013-09-17 09:16:00,45.5,39.7,30.49,North,359,4.0,11.0,80,0.00,,---,0.00,VWS V14.01,2013-09-17 13:16:00,
2013-09-17 09:17:00,43.2,39.3,30.48,NW,308,4.0,11.0,86,0.00,,---,0.00,VWS V14.01,2013-09-17 13:17:00,
2013-09-17 09:18:00,45.6,39.5,30.49,NNE,23,7.0,11.0,79,0.00,,---,0.00,VWS V14.01,2013-09-17 13:18:00,
2013-09-17 09:19:00,45.6,38.8,30.49,NNE,25,5.0,11.0,77,0.00,,---,0.00,VWS V14.01,2013-09-17 13:19:00,
2013-09-17 09:20:00,45.6,38.8,30.49,ENE,78,4.0,11.0,77,0.00,,---,0.00,VWS V14.01,2013-09-17 13:20:00,
2013-09-17 09:21:00,45.6,38.8,30.49,NE,35,2.0,11.0,77,0.00,,---,0.00,VWS V14.01,2013-09-17 13:21:00,
2013-09-17 09:22:00,43.6,39.7,30.48,NNE,20,5.0,8.0,86,0.00,,---,0.00,VWS V14.01,2013-09-17 13:22:00,
2013-09-17 09:23:00,45.6,38.5,30.49,ENE,68,1.0,11.0,76,0.00,,---,0.00,VWS V14.01,2013-09-17 13:23:00,
2013-09-17 09:24:00,45.6,38.8,30.49,NE,56,3.0,9.0,77,0.00,,---,0.00,VWS V14.01,2013-09-17 13:24:00,
2013-09-17 09:25:00,45.6,38.5,30.49,NNE,13,5.0,9.0,76,0.00,,---,0.00,VWS V14.01,2013-09-17 13:25:00,
2013-09-17 09:26:00,45.6,38.8,30.49,East,94,0.0,9.0,77,0.00,,---,0.00,VWS V14.01,2013-09-17 13:26:00,
2013-09-17 09:27:00,44.0,39.8,30.48,NW,322,6.0,7.0,85,0.00,,---,0.00,VWS V14.01,2013-09-17 13:27:00,
2013-09-17 09:28:00,45.8,38.7,30.49,North,11,2.0,8.0,76,0.00,,---,0.00,VWS V14.01,2013-09-17 13:28:00,
2013-09-17 09:29:00,45.8,38.7,30.48,NE,40,4.0,8.0,76,0.00,,---,0.00,VWS V14.01,2013-09-17 13:29:00,
2013-09-17 09:30:00,45.9,39.1,30.48,NW,314,7.0,8.0,77,0.00,,---,0.00,VWS V14.01,2013-09-17 13:30:00,
2013-09-17 09:31:00,46.0,38.9,30.49,NNE,22,4.0,12.0,76,0.00,,---,0.00,VWS V14.01,2013-09-17 13:31:00,
2013-09-17 09:32:00,44.2,39.4,30.49,NNW,333,8.0,11.0,83,0.00,,---,0.00,VWS V14.01,2013-09-17 13:32:00,
2013-09-17 09:33:00,46.0,38.5,30.49,NNE,18,4.0,12.0,75,0.00,,---,0.00,VWS V14.01,2013-09-17 13:33:00,
2013-09-17 09:34:00,46.0,38.5,30.49,NE,53,8.0,12.0,75,0.00,,---,0.00,VWS V14.01,2013-09-17 13:34:00,
2013-09-17 09:35:00,46.1,39.0,30.49,NNE,29,4.0,12.0,76,0.00,,---,0.00,VWS V14.01,2013-09-17 13:35:00,
2013-09-17 09:36:00,46.2,39.1,30.49,NE,47,5.0,8.0,76,0.00,,---,0.00,VWS V14.01,2013-09-17 13:36:00,
2013-09-17 09:37:00,46.2,38.4,30.49,NNE,20,10.0,12.0,74,0.00,,---,0.00,VWS V14.01,2013-09-17 13:37:00,
2013-09-17 09:38:00,44.5,39.7,30.49,NNE,29,5.0,12.0,83,0.00,,---,0.00,VWS V14.01,2013-09-17 13:38:00,
2013-09-17 09:39:00,46.1,39.3,30.49,NNE,23,2.0,12.0,77,0.00,,---,0.00,VWS V14.01,2013-09-17 13:39:00,
2013-09-17 09:40:00,46.3,39.5,30.49,North,8,6.0,12.0,77,0.00,,---,0.00,VWS V14.01,2013-09-17 13:40:00,
2013-09-17 09:41:00,46.3,38.5,30.49,NE,39,7.0,12.0,74,0.00,,---,0.00,VWS V14.01,2013-09-17 13:41:00,
2013-09-17 09:42:00,46.3,38.1,30.49,North,8,4.0,8.0,73,0.00,,---,0.00,VWS V14.01,2013-09-17 13:42:00,
2013-09-17 09:43:00,44.8,39.3,30.49,NNE,29,6.0,11.0,81,0.00,,---,0.00,VWS V14.01,2013-09-17 13:43:00,
2013-09-17 09:44:00,46.4,38.6,30.49,NNW,348,6.0,8.0,74,0.00,,---,0.00,VWS V14.01,2013-09-17 13:44:00,
2013-09-17 09:45:00,46.4,37.9,30.49,NE,56,4.0,8.0,72,0.00,,---,0.00,VWS V14.01,2013-09-17 13:45:00,
2013-09-17 09:46:00,46.5,38.7,30.49,NE,47,3.0,8.0,74,0.00,,---,0.00,VWS V14.01,2013-09-17 13:46:00,
2013-09-17 09:47:00,46.5,39.0,30.48,ENE,58,1.0,8.0,75,0.00,,---,0.00,VWS V14.01,2013-09-17 13:47:00,
2013-09-17 09:48:00,45.0,39.2,30.49,NNW,334,3.0,12.0,80,0.00,,---,0.00,VWS V14.01,2013-09-17 13:48:00,
2013-09-17 09:49:00,46.7,39.5,30.48,ENE,74,4.0,8.0,76,0.00,,---,0.00,VWS V14.01,2013-09-17 13:49:00,
2013-09-17 09:50:00,46.8,39.0,30.49,ENE,68,6.0,7.0,74,0.00,,---,0.00,VWS V14.01,2013-09-17 13:50:00,
2013-09-17 09:51:00,46.9,38.7,30.49,NNE,18,2.0,7.0,73,0.00,,---,0.00,VWS V14.01,2013-09-17 13:51:00,
2013-09-17 09:52:00,47.0,39.5,30.49,ENE,60,7.0,7.0,75,0.00,,---,0.00,VWS V14.01,2013-09-17 13:52:00,
2013-09-17 09:53:00,45.5,40.0,30.49,NW,322,1.0,8.0,81,0.00,,---,0.00,VWS V14.01,2013-09-17 13:53:00,
2013-09-17 09:54:00,46.9,37.3,30.49,NNE,25,1.0,11.0,69,0.00,,---,0.00,VWS V14.01,2013-09-17 13:54:00,
2013-09-17 09:55:00,46.9,37.6,30.49,NNE,20,3.0,11.0,70,0.00,,---,0.00,VWS V14.01,2013-09-17 13:55:00,
2013-09-17 09:56:00,46.9,38.4,30.49,NE,51,4.0,11.0,72,0.00,,---,0.00,VWS V14.01,2013-09-17 13:56:00,
2013-09-17 09:57:00,47.0,38.8,30.48,NNE,26,7.0,11.0,73,0.00,,---,0.00,VWS V14.01,2013-09-17 13:57:00,
2013-09-17 09:58:00,45.6,39.8,30.49,NE,48,2.0,11.0,80,0.00,,---,0.00,VWS V14.01,2013-09-17 13:58:00,
2013-09-17 09:59:00,47.1,37.1,30.49,NNW,342,4.0,12.0,68,0.00,,---,0.00,VWS V14.01,2013-09-17 13:59:00,
2013-09-17 10:00:00,47.1,36.7,30.49,NNE,19,7.0,12.0,67,0.00,,---,0.00,VWS V14.01,2013-09-17 14:00:00,
2013-09-17 10:01:00,47.0,36.6,30.49,NE,47,10.0,12.0,67,0.00,,---,0.00,VWS V14.01,2013-09-17 14:01:00,
2013-09-17 10:02:00,46.9,36.5,30.48,NNW,330,6.0,12.0,67,0.00,,---,0.00,VWS V14.01,2013-09-17 14:02:00,
2013-09-17 10:03:00,45.6,38.8,30.49,ENE,62,5.0,11.0,77,0.00,,---,0.00,VWS V14.01,2013-09-17 14:03:00,
2013-09-17 10:04:00,47.1,37.5,30.48,NE,35,2.0,12.0,69,0.00,,---,0.00,VWS V14.01,2013-09-17 14:04:00,
2013-09-17 10:05:00,47.2,37.6,30.48,NNW,340,5.0,11.0,69,0.00,,---,0.00,VWS V14.01,2013-09-17 14:05:00,
2013-09-17 10:06:00,47.2,36.8,30.48,ENE,75,9.0,16.0,67,0.00,,---,0.00,VWS V14.01,2013-09-17 14:06:00,
2013-09-17 10:07:00,47.2,36.0,30.48,NNE,26,7.0,16.0,65,0.00,,---,0.00,VWS V14.01,2013-09-17 14:07:00,
2013-09-17 10:08:00,45.7,38.9,30.49,North,356,3.0,9.0,77,0.00,,---,0.00,VWS V14.01,2013-09-17 14:08:00,
2013-09-17 10:09:00,47.1,36.0,30.49,NNE,12,6.0,16.0,65,0.00,,---,0.00,VWS V14.01,2013-09-17 14:09:00,
2013-09-17 10:10:00,47.2,36.4,30.49,NNE,12,1.0,16.0,66,0.00,,---,0.00,VWS V14.01,2013-09-17 14:10:00,
2013-09-17 10:11:00,47.2,36.4,30.49,NNE,20,6.0,11.0,66,0.00,,---,0.00,VWS V14.01,2013-09-17 14:11:00,
2013-09-17 10:12:00,47.2,36.4,30.49,NW,318,7.0,11.0,66,0.00,,---,0.00,VWS V14.01,2013-09-17 14:12:00,
2013-09-17 10:13:00,46.0,38.5,30.49,NW,324,4.0,12.0,75,0.00,,---,0.00,VWS V14.01,2013-09-17 14:13:00,
2013-09-17 10:14:00,47.3,38.0,30.49,NW,307,1.0,11.0,70,0.00,,---,0.00,VWS V14.01,2013-09-17 14:14:00,
2013-09-17 10:15:00,47.5,37.8,30.49,NNE,32,5.0,11.0,69,0.00,,---,0.00,VWS V14.01,2013-09-17 14:15:00,
2013-09-17 10:16:00,47.6,37.6,30.49,NNE,25,2.0,9.0,68,0.00,,---,0.00,VWS V14.01,2013-09-17 14:16:00,
2013-09-17 10:17:00,47.7,37.7,30.49,NNW,342,4.0,9.0,68,0.00,,---,0.00,VWS V14.01,2013-09-17 14:17:00,
2013-09-17 10:18:00,46.2,38.4,30.49,NNE,20,10.0,12.0,74,0.00,,---,0.00,VWS V14.01,2013-09-17 14:18:00,
2013-09-17 10:19:00,47.9,37.5,30.49,NW,326,3.0,8.0,67,0.00,,---,0.00,VWS V14.01,2013-09-17 14:19:00,
2013-09-17 10:20:00,48.0,38.3,30.49,ENE,61,5.0,8.0,69,0.00,,---,0.00,VWS V14.01,2013-09-17 14:20:00,
2013-09-17 10:21:00,48.1,37.7,30.49,NNE,18,10.0,10.0,67,0.00,,---,0.00,VWS V14.01,2013-09-17 14:21:00,
2013-09-17 10:22:00,48.1,37.3,30.49,NNE,12,5.0,11.0,66,0.00,,---,0.00,VWS V14.01,2013-09-17 14:22:00,
2013-09-17 10:23:00,48.1,37.3,30.49,NNE,33,4.0,11.0,66,0.00,,---,0.00,VWS V14.01,2013-09-17 14:23:00,
2013-09-17 10:24:00,46.3,38.5,30.49,NNE,12,5.0,8.0,74,0.00,,---,0.00,VWS V14.01,2013-09-17 14:24:00,
2013-09-17 10:25:00,48.1,37.3,30.49,NE,53,4.0,11.0,66,0.00,,---,0.00,VWS V14.01,2013-09-17 14:25:00,
2013-09-17 10:26:00,48.1,37.7,30.49,ESE,122,1.0,11.0,67,0.00,,---,0.00,VWS V14.01,2013-09-17 14:26:00,
2013-09-17 10:27:00,48.2,38.2,30.49,WNW,300,6.0,8.0,68,0.00,,---,0.00,VWS V14.01,2013-09-17 14:27:00,
2013-09-17 10:28:00,48.4,38.0,30.49,NNE,18,7.0,8.0,67,0.00,,---,0.00,VWS V14.01,2013-09-17 14:28:00,
2013-09-17 10:29:00,46.6,39.5,30.48,NW,306,0.0,8.0,76,0.00,,---,0.00,VWS V14.01,2013-09-17 14:29:00,
2013-09-17 10:30:00,48.5,36.9,30.49,NNE,23,4.0,10.0,64,0.00,,---,0.00,VWS V14.01,2013-09-17 14:30:00,
2013-09-17 10:31:00,48.6,36.6,30.49,NE,43,11.0,11.0,63,0.00,,---,0.00,VWS V14.01,2013-09-17 14:31:00,
2013-09-17 10:32:00,48.5,36.5,30.49,East,86,5.0,11.0,63,0.00,,---,0.00,VWS V14.01,2013-09-17 14:32:00,
2013-09-17 10:33:00,48.5,36.5,30.49,North,359,1.0,11.0,63,0.00,,---,0.00,VWS V14.01,2013-09-17 14:33:00,
2013-09-17 10:34:00,47.0,39.5,30.49,ENE,59,5.0,11.0,75,0.00,,---,0.00,VWS V14.01,2013-09-17 14:34:00,
2013-09-17 10:35:00,48.6,37.0,30.48,North,356,8.0,11.0,64,0.00,,---,0.00,VWS V14.01,2013-09-17 14:35:00,
2013-09-17 10:36:00,48.5,36.5,30.48,NNW,334,4.0,11.0,63,0.00,,---,0.00,VWS V14.01,2013-09-17 14:36:00,
2013-09-17 10:37:00,48.5,36.9,30.48,NE,53,5.0,10.0,64,0.00,,---,0.00,VWS V14.01,2013-09-17 14:37:00,
2013-09-17 10:38:00,48.5,36.9,30.48,NNW,330,4.0,10.0,64,0.00,,---,0.00,VWS V14.01,2013-09-17 14:38:00,
2013-09-17 10:39:00,47.1,37.8,30.48,NE,53,9.0,12.0,70,0.00,,---,0.00,VWS V14.01,2013-09-17 14:39:00,
2013-09-17 10:40:00,48.5,36.5,30.48,NNE,32,3.0,8.0,63,0.00,,---,0.00,VWS V14.01,2013-09-17 14:40:00,
2013-09-17 10:41:00,48.5,36.9,30.48,NW,320,3.0,8.0,64,0.00,,---,0.00,VWS V14.01,2013-09-17 14:41:00,
2013-09-17 10:42:00,48.6,37.0,30.48,NNW,342,7.0,9.0,64,0.00,,---,0.00,VWS V14.01,2013-09-17 14:42:00,
2013-09-17 10:43:00,48.6,36.6,30.48,NNW,332,3.0,9.0,63,0.00,,---,0.00,VWS V14.01,2013-09-17 14:43:00,
2013-09-17 10:44:00,47.0,37.0,30.48,NNE,33,4.0,12.0,68,0.00,,---,0.00,VWS V14.01,2013-09-17 14:44:00,
2013-09-17 10:45:00,48.6,37.4,30.48,WNW,295,3.0,9.0,65,0.00,,---,0.00,VWS V14.01,2013-09-17 14:45:00,
2013-09-17 10:46:00,48.6,37.0,30.48,WNW,301,5.0,9.0,64,0.00,,---,0.00,VWS V14.01,2013-09-17 14:46:00,
2013-09-17 10:47:00,48.7,37.1,30.48,NNW,344,5.0,9.0,64,0.00,,---,0.00,VWS V14.01,2013-09-17 14:47:00,
2013-09-17 10:48:00,48.8,38.0,30.48,NNW,348,4.0,9.0,66,0.00,,---,0.00,VWS V14.01,2013-09-17 14:48:00,
2013-09-17 10:49:00,47.2,36.0,30.49,ENE,72,4.0,16.0,65,0.00,,---,0.00,VWS V14.01,2013-09-17 14:49:00,
2013-09-17 10:50:00,49.1,39.4,30.48,NNW,334,1.0,9.0,69,0.00,,---,0.00,VWS V14.01,2013-09-17 14:50:00,
2013-09-17 10:51:00,49.2,38.7,30.48,NNE,32,3.0,9.0,67,0.00,,---,0.00,VWS V14.01,2013-09-17 14:51:00,
2013-09-17 10:52:00,49.2,38.0,30.48,NE,49,6.0,9.0,65,0.00,,---,0.00,VWS V14.01,2013-09-17 14:52:00,
2013-09-17 10:53:00,49.3,38.0,30.48,NNE,31,5.0,10.0,65,0.00,,---,0.00,VWS V14.01,2013-09-17 14:53:00,
2013-09-17 10:54:00,47.2,36.8,30.49,NW,323,4.0,11.0,67,0.00,,---,0.00,VWS V14.01,2013-09-17 14:54:00,
2013-09-17 10:55:00,49.3,37.2,30.48,NW,314,5.0,10.0,63,0.00,,---,0.00,VWS V14.01,2013-09-17 14:55:00,
2013-09-17 10:56:00,49.3,38.0,30.48,ENE,73,3.0,10.0,65,0.00,,---,0.00,VWS V14.01,2013-09-17 14:56:00,
2013-09-17 10:57:00,49.3,37.2,30.48,WNW,298,7.0,10.0,63,0.00,,---,0.00,VWS V14.01,2013-09-17 14:57:00,
2013-09-17 10:58:00,49.3,36.8,30.48,NNE,29,1.0,7.0,62,0.00,,---,0.00,VWS V14.01,2013-09-17 14:58:00,
2013-09-17 10:59:00,47.8,37.0,30.49,NNW,342,8.0,8.0,66,0.00,,---,0.00,VWS V14.01,2013-09-17 14:59:00,
2013-09-17 11:00:00,49.3,38.0,30.48,ESE,103,4.0,7.0,65,0.00,,---,0.00,VWS V14.01,2013-09-17 15:00:00,
2013-09-17 11:01:00,49.3,37.2,30.48,NE,43,3.0,7.0,63,0.00,,---,0.00,VWS V14.01,2013-09-17 15:01:00,
2013-09-17 11:02:00,49.3,36.4,30.48,ENE,75,2.0,12.0,61,0.00,,---,0.00,VWS V14.01,2013-09-17 15:02:00,
2013-09-17 11:03:00,49.3,37.7,30.48,NE,44,3.0,12.0,64,0.00,,---,0.00,VWS V14.01,2013-09-17 15:03:00,
2013-09-17 11:04:00,48.1,37.3,30.49,NNE,33,4.0,11.0,66,0.00,,---,0.00,VWS V14.01,2013-09-17 15:04:00,
2013-09-17 11:05:00,49.2,35.9,30.48,NE,51,6.0,12.0,60,0.00,,---,0.00,VWS V14.01,2013-09-17 15:05:00,
2013-09-17 11:06:00,49.2,36.3,30.48,NE,43,7.0,12.0,61,0.00,,---,0.00,VWS V14.01,2013-09-17 15:06:00,
2013-09-17 11:07:00,49.1,37.1,30.48,NNE,32,1.0,9.0,63,0.00,,---,0.00,VWS V14.01,2013-09-17 15:07:00,
2013-09-17 11:08:00,49.1,37.1,30.48,NE,43,3.0,9.0,63,0.00,,---,0.00,VWS V14.01,2013-09-17 15:08:00,
2013-09-17 11:09:00,48.4,38.0,30.49,NNE,18,7.0,8.0,67,0.00,,---,0.00,VWS V14.01,2013-09-17 15:09:00,
2013-09-17 11:10:00,49.3,38.0,30.48,East,94,2.0,8.0,65,0.00,,---,0.00,VWS V14.01,2013-09-17 15:10:00,
2013-09-17 11:11:00,49.3,38.0,30.48,NW,308,2.0,7.0,65,0.00,,---,0.00,VWS V14.01,2013-09-17 15:11:00,
2013-09-17 11:12:00,49.4,38.5,30.47,NNW,342,5.0,11.0,66,0.00,,---,0.00,VWS V14.01,2013-09-17 15:12:00,
2013-09-17 11:13:00,49.5,37.8,30.47,SE,146,1.0,11.0,64,0.00,,---,0.00,VWS V14.01,2013-09-17 15:13:00,
2013-09-17 11:14:00,48.5,36.5,30.49,North,359,1.0,11.0,63,0.00,,---,0.00,VWS V14.01,2013-09-17 15:14:00,
2013-09-17 11:15:00,49.6,38.3,30.47,NNE,33,7.0,11.0,65,0.00,,---,0.00,VWS V14.01,2013-09-17 15:15:00,
2013-09-17 11:16:00,49.6,38.3,30.47,North,349,4.0,11.0,65,0.00,,---,0.00,VWS V14.01,2013-09-17 15:16:00,
2013-09-17 11:17:00,49.7,38.8,30.47,NE,53,6.0,8.0,66,0.00,,---,0.00,VWS V14.01,2013-09-17 15:17:00,
2013-09-17 11:18:00,49.7,38.8,30.47,NNW,345,8.0,10.0,66,0.00,,---,0.00,VWS V14.01,2013-09-17 15:18:00,
2013-09-17 11:19:00,48.5,36.9,30.48,NNW,330,4.0,10.0,64,0.00,,---,0.00,VWS V14.01,2013-09-17 15:19:00,
2013-09-17 11:20:00,49.7,38.0,30.47,North,360,3.0,11.0,64,0.00,,---,0.00,VWS V14.01,2013-09-17 15:20:00,
2013-09-17 11:21:00,49.7,38.0,30.47,NNE,32,3.0,11.0,64,0.00,,---,0.00,VWS V14.01,2013-09-17 15:21:00,
2013-09-17 11:22:00,49.6,37.9,30.47,North,352,6.0,11.0,64,0.00,,---,0.00,VWS V14.01,2013-09-17 15:22:00,
2013-09-17 11:23:00,49.7,38.4,30.47,NE,39,3.0,11.0,65,0.00,,---,0.00,VWS V14.01,2013-09-17 15:23:00,
2013-09-17 11:24:00,48.6,36.6,30.48,NNW,332,3.0,9.0,63,0.00,,---,0.00,VWS V14.01,2013-09-17 15:24:00,
2013-09-17 11:25:00,49.9,37.4,30.47,East,86,2.0,10.0,62,0.00,,---,0.00,VWS V14.01,2013-09-17 15:25:00,
2013-09-17 11:26:00,49.8,37.3,30.47,NE,35,3.0,10.0,62,0.00,,---,0.00,VWS V14.01,2013-09-17 15:26:00,
2013-09-17 11:27:00,49.7,37.2,30.47,ENE,57,3.0,10.0,62,0.00,,---,0.00,VWS V14.01,2013-09-17 15:27:00,
2013-09-17 11:28:00,49.6,37.1,30.47,SE,139,1.0,10.0,62,0.00,,---,0.00,VWS V14.01,2013-09-17 15:28:00,
2013-09-17 11:29:00,48.8,38.0,30.48,NNW,348,4.0,9.0,66,0.00,,---,0.00,VWS V14.01,2013-09-17 15:29:00,
2013-09-17 11:30:00,49.9,39.4,30.47,NNE,19,6.0,8.0,67,0.00,,---,0.00,VWS V14.01,2013-09-17 15:30:00,
2013-09-17 11:31:00,50.0,39.5,30.47,SE,125,1.0,8.0,67,0.00,,---,0.00,VWS V14.01,2013-09-17 15:31:00,
2013-09-17 11:32:00,50.1,39.2,30.47,East,86,2.0,8.0,66,0.00,,---,0.00,VWS V14.01,2013-09-17 15:32:00,
2013-09-17 11:33:00,50.2,39.7,30.47,East,85,2.0,8.0,67,0.00,,---,0.00,VWS V14.01,2013-09-17 15:33:00,
2013-09-17 11:34:00,49.3,38.0,30.48,NNE,31,5.0,10.0,65,0.00,,---,0.00,VWS V14.01,2013-09-17 15:34:00,
2013-09-17 11:35:00,50.3,39.0,30.47,NNE,22,6.0,6.0,65,0.00,,---,0.00,VWS V14.01,2013-09-17 15:35:00,
2013-09-17 11:36:00,50.4,38.7,30.47,NNE,25,1.0,6.0,64,0.00,,---,0.00,VWS V14.01,2013-09-17 15:36:00,
2013-09-17 11:37:00,50.4,39.9,30.47,NNW,342,3.0,6.0,67,0.00,,---,0.00,VWS V14.01,2013-09-17 15:37:00,
2013-09-17 11:38:00,50.4,38.7,30.47,North,350,7.0,8.0,64,0.00,,---,0.00,VWS V14.01,2013-09-17 15:38:00,
2013-09-17 11:39:00,49.3,36.8,30.48,NNE,29,1.0,7.0,62,0.00,,---,0.00,VWS V14.01,2013-09-17 15:39:00,
2013-09-17 11:40:00,50.3,38.2,30.47,North,352,5.0,12.0,63,0.00,,---,0.00,VWS V14.01,2013-09-17 15:40:00,
2013-09-17 11:41:00,50.3,37.4,30.47,NNE,18,6.0,12.0,61,0.00,,---,0.00,VWS V14.01,2013-09-17 15:41:00,
2013-09-17 11:42:00,50.3,38.6,30.47,North,6,4.0,12.0,64,0.00,,---,0.00,VWS V14.01,2013-09-17 15:42:00,
2013-09-17 11:43:00,50.4,39.1,30.47,NE,45,3.0,12.0,65,0.00,,---,0.00,VWS V14.01,2013-09-17 15:43:00,
2013-09-17 11:44:00,50.5,38.8,30.47,NE,49,4.0,12.0,64,0.00,,---,0.00,VWS V14.01,2013-09-17 15:44:00,
2013-09-17 11:45:00,49.3,37.2,30.48,NE,55,8.0,12.0,63,0.00,,---,0.00,VWS V14.01,2013-09-17 15:45:00,
2013-09-17 11:46:00,50.5,38.4,30.47,NNW,334,5.0,8.0,63,0.00,,---,0.00,VWS V14.01,2013-09-17 15:46:00,
2013-09-17 11:47:00,50.4,37.9,30.47,NNW,342,5.0,8.0,62,0.00,,---,0.00,VWS V14.01,2013-09-17 15:47:00,
2013-09-17 11:48:00,50.3,38.6,30.46,NE,34,2.0,8.0,64,0.00,,---,0.00,VWS V14.01,2013-09-17 15:48:00,
2013-09-17 11:49:00,50.4,39.9,30.47,ENE,65,4.0,8.0,67,0.00,,---,0.00,VWS V14.01,2013-09-17 15:49:00,
2013-09-17 11:50:00,49.2,38.3,30.47,ENE,60,4.0,8.0,66,0.00,,---,0.00,VWS V14.01,2013-09-17 15:50:00,
2013-09-17 11:51:00,50.4,38.7,30.46,ENE,68,8.0,10.0,64,0.00,,---,0.00,VWS V14.01,2013-09-17 15:51:00,
2013-09-17 11:52:00,50.4,38.7,30.46,NNE,15,3.0,10.0,64,0.00,,---,0.00,VWS V14.01,2013-09-17 15:52:00,
2013-09-17 11:53:00,50.5,40.3,30.46,NW,309,6.0,10.0,68,0.00,,---,0.00,VWS V14.01,2013-09-17 15:53:00,
2013-09-17 11:54:00,50.5,39.2,30.46,NW,309,4.0,10.0,65,0.00,,---,0.00,VWS V14.01,2013-09-17 15:54:00,
2013-09-17 11:55:00,49.6,37.9,30.47,NNW,340,4.0,11.0,64,0.00,,---,0.00,VWS V14.01,2013-09-17 15:55:00,
2013-09-17 11:56:00,50.6,40.1,30.46,NW,314,7.0,9.0,67,0.00,,---,0.00,VWS V14.01,2013-09-17 15:56:00,
2013-09-17 11:57:00,50.5,38.8,30.46,NNE,27,5.0,11.0,64,0.00,,---,0.00,VWS V14.01,2013-09-17 15:57:00,
2013-09-17 11:58:00,50.5,39.6,30.46,North,352,5.0,11.0,66,0.00,,---,0.00,VWS V14.01,2013-09-17 15:58:00,
2013-09-17 11:59:00,50.6,39.7,30.46,NE,47,1.0,11.0,66,0.00,,---,0.00,VWS V14.01,2013-09-17 15:59:00,
2013-09-17 12:00:00,49.7,38.0,30.47,NE,36,6.0,11.0,64,0.00,,---,0.00,VWS V14.01,2013-09-17 16:00:00,
2013-09-17 12:01:00,51.1,39.8,30.46,NW,322,2.0,11.0,65,0.00,,---,0.00,VWS V14.01,2013-09-17 16:01:00,
2013-09-17 12:02:00,51.2,40.2,30.46,ENE,58,5.0,8.0,66,0.00,,---,0.00,VWS V14.01,2013-09-17 16:02:00,
2013-09-17 12:03:00,53.6,42.1,30.44,NNW,336,6.0,10.0,65,0.00,,---,0.00,VWS V14.01,2013-09-17 16:03:00,
2013-09-17 12:04:00,51.2,39.5,30.46,ENE,68,1.0,7.0,64,0.00,,---,0.00,VWS V14.01,2013-09-17 16:04:00,
2013-09-17 12:05:00,49.8,39.7,30.47,NE,50,3.0,7.0,68,0.00,,---,0.00,VWS V14.01,2013-09-17 16:05:00,
2013-09-17 12:06:00,51.2,39.8,30.46,ENE,70,6.0,7.0,65,0.00,,---,0.00,VWS V14.01,2013-09-17 16:06:00,
2013-09-17 12:07:00,53.5,40.0,30.44,North,356,9.0,10.0,60,0.00,,---,0.00,VWS V14.01,2013-09-17 16:07:00,
2013-09-17 12:08:00,51.2,39.0,30.46,NE,39,8.0,15.0,63,0.00,,---,0.00,VWS V14.01,2013-09-17 16:08:00,
2013-09-17 12:09:00,51.2,37.8,30.46,NNW,342,7.0,15.0,60,0.00,,---,0.00,VWS V14.01,2013-09-17 16:09:00,
2013-09-17 12:10:00,49.6,37.9,30.47,East,90,4.0,10.0,64,0.00,,---,0.00,VWS V14.01,2013-09-17 16:10:00,
2013-09-17 12:11:00,53.0,38.2,30.43,WNW,288,1.0,10.0,57,0.00,,---,0.00,VWS V14.01,2013-09-17 16:11:00,
2013-09-17 12:12:00,51.1,38.5,30.46,NE,49,2.0,15.0,62,0.00,,---,0.00,VWS V14.01,2013-09-17 16:12:00,
2013-09-17 12:13:00,51.2,39.0,30.46,NNE,20,5.0,12.0,63,0.00,,---,0.00,VWS V14.01,2013-09-17 16:13:00,
2013-09-17 12:14:00,51.2,37.8,30.46,North,352,8.0,12.0,60,0.00,,---,0.00,VWS V14.01,2013-09-17 16:14:00,
2013-09-17 12:15:00,50.3,39.0,30.47,ESE,109,1.0,6.0,65,0.00,,---,0.00,VWS V14.01,2013-09-17 16:15:00,
2013-09-17 12:16:00,53.4,39.5,30.43,NNW,346,1.0,9.0,59,0.00,,---,0.00,VWS V14.01,2013-09-17 16:16:00,
2013-09-17 12:17:00,51.4,40.0,30.45,NW,306,4.0,10.0,65,0.00,,---,0.00,VWS V14.01,2013-09-17 16:17:00,
2013-09-17 12:18:00,53.5,39.1,30.43,NE,44,5.0,9.0,58,0.00,,---,0.00,VWS V14.01,2013-09-17 16:18:00,
2013-09-17 12:19:00,51.6,39.0,30.45,ESE,105,0.0,10.0,62,0.00,,---,0.00,VWS V14.01,2013-09-17 16:19:00,
2013-09-17 12:20:00,50.3,37.8,30.47,NNE,31,8.0,8.0,62,0.00,,---,0.00,VWS V14.01,2013-09-17 16:20:00,
2013-09-17 12:21:00,51.8,39.6,30.45,NNE,27,7.0,8.0,63,0.00,,---,0.00,VWS V14.01,2013-09-17 16:21:00,
2013-09-17 12:22:00,51.8,39.2,30.45,NNE,16,8.0,8.0,62,0.00,,---,0.00,VWS V14.01,2013-09-17 16:22:00,
2013-09-17 12:23:00,51.8,39.2,30.45,NW,305,7.0,8.0,62,0.00,,---,0.00,VWS V14.01,2013-09-17 16:23:00,
2013-09-17 12:24:00,51.8,39.6,30.45,NNW,345,6.0,9.0,63,0.00,,---,0.00,VWS V14.01,2013-09-17 16:24:00,
2013-09-17 12:25:00,50.5,38.8,30.47,NE,49,4.0,12.0,64,0.00,,---,0.00,VWS V14.01,2013-09-17 16:25:00,
2013-09-17 12:26:00,51.7,38.3,30.45,NE,35,6.0,10.0,60,0.00,,---,0.00,VWS V14.01,2013-09-17 16:26:00,
2013-09-17 12:27:00,53.4,39.9,30.43,NNW,346,3.0,11.0,60,0.00,,---,0.00,VWS V14.01,2013-09-17 16:27:00,
2013-09-17 12:28:00,51.6,39.0,30.45,NW,321,2.0,10.0,62,0.00,,---,0.00,VWS V14.01,2013-09-17 16:28:00,
2013-09-17 12:29:00,51.6,39.8,30.45,NW,326,5.0,10.0,64,0.00,,---,0.00,VWS V14.01,2013-09-17 16:29:00,
2013-09-17 12:30:00,50.4,39.9,30.47,ENE,65,4.0,8.0,67,0.00,,---,0.00,VWS V14.01,2013-09-17 16:30:00,
2013-09-17 12:31:00,51.7,38.7,30.45,North,5,2.0,9.0,61,0.00,,---,0.00,VWS V14.01,2013-09-17 16:31:00,
2013-09-17 12:32:00,53.3,41.0,30.42,NNE,13,5.0,10.0,63,0.00,,---,0.00,VWS V14.01,2013-09-17 16:32:00,
2013-09-17 12:33:00,51.8,39.2,30.45,WNW,300,3.0,7.0,62,0.00,,---,0.00,VWS V14.01,2013-09-17 16:33:00,
2013-09-17 12:34:00,51.8,38.8,30.45,North,1,4.0,7.0,61,0.00,,---,0.00,VWS V14.01,2013-09-17 16:34:00,
2013-09-17 12:35:00,50.5,39.2,30.46,NW,309,4.0,10.0,65,0.00,,---,0.00,VWS V14.01,2013-09-17 16:35:00,
2013-09-17 12:36:00,53.8,39.8,30.43,NW,324,4.0,10.0,59,0.00,,---,0.00,VWS V14.01,2013-09-17 16:36:00,
2013-09-17 12:37:00,51.8,37.9,30.45,ESE,115,0.0,7.0,59,0.00,,---,0.00,VWS V14.01,2013-09-17 16:37:00,
2013-09-17 12:38:00,51.8,38.8,30.45,SSE,152,0.0,7.0,61,0.00,,---,0.00,VWS V14.01,2013-09-17 16:38:00,
2013-09-17 12:39:00,51.9,38.9,30.45,SSE,152,0.0,7.0,61,0.00,,---,0.00,VWS V14.01,2013-09-17 16:39:00,
2013-09-17 12:40:00,50.6,39.7,30.46,NE,47,1.0,11.0,66,0.00,,---,0.00,VWS V14.01,2013-09-17 16:40:00,
2013-09-17 12:41:00,52.2,39.2,30.45,NE,46,3.0,10.0,61,0.00,,---,0.00,VWS V14.01,2013-09-17 16:41:00,
2013-09-17 12:42:00,52.2,39.6,30.45,ESE,108,1.0,10.0,62,0.00,,---,0.00,VWS V14.01,2013-09-17 16:42:00,
2013-09-17 12:43:00,52.4,39.8,30.45,North,356,7.0,10.0,62,0.00,,---,0.00,VWS V14.01,2013-09-17 16:43:00,
2013-09-17 12:44:00,52.4,39.8,30.45,North,1,6.0,11.0,62,0.00,,---,0.00,VWS V14.01,2013-09-17 16:44:00,
2013-09-17 12:45:00,51.2,39.5,30.46,ENE,68,1.0,7.0,64,0.00,,---,0.00,VWS V14.01,2013-09-17 16:45:00,
2013-09-17 12:46:00,52.4,39.8,30.45,WNW,302,1.0,11.0,62,0.00,,---,0.00,VWS V14.01,2013-09-17 16:46:00,
2013-09-17 12:47:00,52.4,40.2,30.45,NNE,29,5.0,11.0,63,0.00,,---,0.00,VWS V14.01,2013-09-17 16:47:00,
2013-09-17 12:48:00,52.4,39.8,30.45,NE,36,2.0,11.0,62,0.00,,---,0.00,VWS V14.01,2013-09-17 16:48:00,
2013-09-17 12:49:00,52.4,39.8,30.45,NE,55,3.0,9.0,62,0.00,,---,0.00,VWS V14.01,2013-09-17 16:49:00,
2013-09-17 12:50:00,51.2,37.8,30.46,NNW,342,7.0,15.0,60,0.00,,---,0.00,VWS V14.01,2013-09-17 16:50:00,
2013-09-17 12:51:00,54.2,39.3,30.42,NNE,22,7.0,10.0,57,0.00,,---,0.00,VWS V14.01,2013-09-17 16:51:00,
2013-09-17 12:52:00,52.4,39.4,30.44,ESE,117,4.0,5.0,61,0.00,,---,0.00,VWS V14.01,2013-09-17 16:52:00,
2013-09-17 12:53:00,52.4,39.8,30.44,NNE,27,4.0,7.0,62,0.00,,---,0.00,VWS V14.01,2013-09-17 16:53:00,
2013-09-17 12:54:00,52.4,39.4,30.44,NE,53,2.0,7.0,61,0.00,,---,0.00,VWS V14.01,2013-09-17 16:54:00,
2013-09-17 12:55:00,51.2,37.8,30.46,North,352,8.0,12.0,60,0.00,,---,0.00,VWS V14.01,2013-09-17 16:55:00,
2013-09-17 12:56:00,53.9,38.6,30.42,ENE,67,5.0,9.0,56,0.00,,---,0.00,VWS V14.01,2013-09-17 16:56:00,
2013-09-17 12:57:00,52.8,40.2,30.44,NNE,18,2.0,7.0,62,0.00,,---,0.00,VWS V14.01,2013-09-17 16:57:00,
2013-09-17 12:58:00,53.0,40.8,30.44,North,356,4.0,7.0,63,0.00,,---,0.00,VWS V14.01,2013-09-17 16:58:00,
2013-09-17 12:59:00,53.0,39.1,30.44,NW,305,3.0,10.0,59,0.00,,---,0.00,VWS V14.01,2013-09-17 16:59:00,
2013-09-17 13:00:00,51.6,39.0,30.45,ESE,105,0.0,10.0,62,0.00,,---,0.00,VWS V14.01,2013-09-17 17:00:00,
2013-09-17 13:01:00,53.2,40.5,30.44,WNW,300,1.0,10.0,62,0.00,,---,0.00,VWS V14.01,2013-09-17 17:01:00,
2013-09-17 13:02:00,53.4,40.7,30.44,NW,309,0.0,10.0,62,0.00,,---,0.00,VWS V14.01,2013-09-17 17:02:00,
2013-09-17 13:03:00,53.6,42.1,30.44,NNW,336,6.0,10.0,65,0.00,,---,0.00,VWS V14.01,2013-09-17 17:03:00,
2013-09-17 13:04:00,54.3,41.2,30.42,NNE,12,4.0,7.0,61,0.00,,---,0.00,VWS V14.01,2013-09-17 17:04:00,
2013-09-17 13:05:00,51.8,39.6,30.45,NNW,345,6.0,9.0,63,0.00,,---,0.00,VWS V14.01,2013-09-17 17:05:00,
2013-09-17 13:06:00,53.5,39.1,30.44,NNW,333,6.0,8.0,58,0.00,,---,0.00,VWS V14.01,2013-09-17 17:06:00,
2013-09-17 13:07:00,54.3,40.3,30.42,NE,56,5.0,8.0,59,0.00,,---,0.00,VWS V14.01,2013-09-17 17:07:00,
2013-09-17 13:08:00,53.5,39.1,30.44,North,356,8.0,10.0,58,0.00,,---,0.00,VWS V14.01,2013-09-17 17:08:00,
2013-09-17 13:09:00,54.4,40.4,30.42,NNW,329,3.0,8.0,59,0.00,,---,0.00,VWS V14.01,2013-09-17 17:09:00,
2013-09-17 13:10:00,51.6,39.8,30.45,NW,326,5.0,10.0,64,0.00,,---,0.00,VWS V14.01,2013-09-17 17:10:00,
2013-09-17 13:11:00,53.0,38.2,30.43,WNW,288,1.0,10.0,57,0.00,,---,0.00,VWS V14.01,2013-09-17 17:11:00,
2013-09-17 13:12:00,54.3,39.8,30.42,NNE,27,8.0,8.0,58,0.00,,---,0.00,VWS V14.01,2013-09-17 17:12:00,
2013-09-17 13:13:00,53.2,41.0,30.43,ESE,118,0.0,9.0,63,0.00,,---,0.00,VWS V14.01,2013-09-17 17:13:00,
2013-09-17 13:14:00,54.3,39.4,30.42,NE,47,3.0,9.0,57,0.00,,---,0.00,VWS V14.01,2013-09-17 17:14:00,
2013-09-17 13:15:00,51.8,38.8,30.45,North,1,4.0,7.0,61,0.00,,---,0.00,VWS V14.01,2013-09-17 17:15:00,
2013-09-17 13:16:00,53.4,39.5,30.43,NNW,346,1.0,9.0,59,0.00,,---,0.00,VWS V14.01,2013-09-17 17:16:00,
2013-09-17 13:17:00,53.5,40.4,30.43,ENE,65,5.0,9.0,61,0.00,,---,0.00,VWS V14.01,2013-09-17 17:17:00,
2013-09-17 13:18:00,53.5,39.1,30.43,NE,44,5.0,9.0,58,0.00,,---,0.00,VWS V14.01,2013-09-17 17:18:00,
2013-09-17 13:19:00,53.6,40.5,30.43,NE,44,6.0,9.0,61,0.00,,---,0.00,VWS V14.01,2013-09-17 17:19:00,
2013-09-17 13:20:00,51.9,38.9,30.45,SSE,152,0.0,7.0,61,0.00,,---,0.00,VWS V14.01,2013-09-17 17:20:00,
2013-09-17 13:21:00,53.5,39.1,30.43,ESE,111,1.0,8.0,58,0.00,,---,0.00,VWS V14.01,2013-09-17 17:21:00,
2013-09-17 13:22:00,54.3,40.3,30.41,ENE,63,3.0,6.0,59,0.00,,---,0.00,VWS V14.01,2013-09-17 17:22:00,
2013-09-17 13:23:00,53.5,40.0,30.43,NNE,12,2.0,8.0,60,0.00,,---,0.00,VWS V14.01,2013-09-17 17:23:00,
2013-09-17 13:24:00,53.5,39.5,30.43,ENE,63,8.0,8.0,59,0.00,,---,0.00,VWS V14.01,2013-09-17 17:24:00,
2013-09-17 13:25:00,52.4,39.8,30.45,North,1,6.0,11.0,62,0.00,,---,0.00,VWS V14.01,2013-09-17 17:25:00,
2013-09-17 13:26:00,53.4,39.9,30.43,NNE,30,2.0,11.0,60,0.00,,---,0.00,VWS V14.01,2013-09-17 17:26:00,
2013-09-17 13:27:00,53.4,39.9,30.43,NNW,346,3.0,11.0,60,0.00,,---,0.00,VWS V14.01,2013-09-17 17:27:00,
2013-09-17 13:28:00,53.3,40.2,30.42,NNE,19,6.0,11.0,61,0.00,,---,0.00,VWS V14.01,2013-09-17 17:28:00,
2013-09-17 13:29:00,53.2,39.3,30.42,NNW,340,4.0,11.0,59,0.00,,---,0.00,VWS V14.01,2013-09-17 17:29:00,
2013-09-17 13:30:00,52.4,39.8,30.45,NE,55,3.0,9.0,62,0.00,,---,0.00,VWS V14.01,2013-09-17 17:30:00,
2013-09-17 13:31:00,53.2,39.3,30.42,North,358,4.0,9.0,59,0.00,,---,0.00,VWS V14.01,2013-09-17 17:31:00,
2013-09-17 13:32:00,53.3,41.0,30.42,NNE,13,5.0,10.0,63,0.00,,---,0.00,VWS V14.01,2013-09-17 17:32:00,
2013-09-17 13:33:00,53.4,39.9,30.42,NNE,27,3.0,10.0,60,0.00,,---,0.00,VWS V14.01,2013-09-17 17:33:00,
2013-09-17 13:34:00,53.6,40.9,30.42,NNE,30,3.0,10.0,62,0.00,,---,0.00,VWS V14.01,2013-09-17 17:34:00,
2013-09-17 13:35:00,52.4,39.4,30.44,NE,53,2.0,7.0,61,0.00,,---,0.00,VWS V14.01,2013-09-17 17:35:00,
2013-09-17 13:36:00,53.8,39.8,30.43,NW,324,4.0,10.0,59,0.00,,---,0.00,VWS V14.01,2013-09-17 17:36:00,
2013-09-17 13:37:00,53.9,40.8,30.42,NE,36,4.0,7.0,61,0.00,,---,0.00,VWS V14.01,2013-09-17 17:37:00,
2013-09-17 13:38:00,53.9,39.9,30.42,ENE,60,7.0,7.0,59,0.00,,---,0.00,VWS V14.01,2013-09-17 17:38:00,
2013-09-17 13:39:00,53.9,39.9,30.42,ENE,64,6.0,8.0,59,0.00,,---,0.00,VWS V14.01,2013-09-17 17:39:00,
2013-09-17 13:40:00,53.0,39.1,30.44,NW,305,3.0,10.0,59,0.00,,---,0.00,VWS V14.01,2013-09-17 17:40:00,
2013-09-17 13:41:00,53.9,40.3,30.42,NW,326,7.0,11.0,60,0.00,,---,0.00,VWS V14.01,2013-09-17 17:41:00,
2013-09-17 13:42:00,53.9,40.3,30.42,NNW,346,4.0,11.0,60,0.00,,---,0.00,VWS V14.01,2013-09-17 17:42:00,
2013-09-17 13:43:00,54.0,40.4,30.42,NW,306,3.0,11.0,60,0.00,,---,0.00,VWS V14.01,2013-09-17 17:43:00,
2013-09-17 13:44:00,54.1,41.8,30.42,NW,322,6.0,11.0,63,0.00,,---,0.00,VWS V14.01,2013-09-17 17:44:00,
2013-09-17 13:45:00,53.6,39.2,30.44,NNE,25,2.0,9.0,58,0.00,,---,0.00,VWS V14.01,2013-09-17 17:45:00,
2013-09-17 13:46:00,53.9,39.9,30.42,WNW,292,6.0,8.0,59,0.00,,---,0.00,VWS V14.01,2013-09-17 17:46:00,
2013-09-17 13:47:00,53.8,39.8,30.42,WNW,288,4.0,7.0,59,0.00,,---,0.00,VWS V14.01,2013-09-17 17:47:00,
2013-09-17 13:48:00,53.8,41.1,30.42,North,358,8.0,9.0,62,0.00,,---,0.00,VWS V14.01,2013-09-17 17:48:00,
2013-09-17 13:49:00,54.0,40.9,30.42,ENE,63,3.0,9.0,61,0.00,,---,0.00,VWS V14.01,2013-09-17 17:49:00,
2013-09-17 13:50:00,53.3,38.9,30.44,NNE,26,7.0,10.0,58,0.00,,---,0.00,VWS V14.01,2013-09-17 17:50:00,
2013-09-17 13:51:00,54.2,39.3,30.42,NNE,22,7.0,10.0,57,0.00,,---,0.00,VWS V14.01,2013-09-17 17:51:00,
2013-09-17 13:52:00,54.2,39.8,30.42,NE,44,5.0,10.0,58,0.00,,---,0.00,VWS V14.01,2013-09-17 17:52:00,
2013-09-17 13:53:00,54.1,39.7,30.42,NNE,20,3.0,10.0,58,0.00,,---,0.00,VWS V14.01,2013-09-17 17:53:00,
2013-09-17 13:54:00,54.0,39.6,30.42,East,83,2.0,10.0,58,0.00,,---,0.00,VWS V14.01,2013-09-17 17:54:00,
2013-09-17 13:55:00,53.3,41.0,30.43,ENE,75,2.0,9.0,63,0.00,,---,0.00,VWS V14.01,2013-09-17 17:55:00,
2013-09-17 13:56:00,53.9,38.6,30.42,ENE,67,5.0,9.0,56,0.00,,---,0.00,VWS V14.01,2013-09-17 17:56:00,
2013-09-17 13:57:00,53.9,39.5,30.42,NE,44,4.0,9.0,58,0.00,,---,0.00,VWS V14.01,2013-09-17 17:57:00,
2013-09-17 13:58:00,53.9,39.9,30.42,NNW,330,2.0,9.0,59,0.00,,---,0.00,VWS V14.01,2013-09-17 17:58:00,
2013-09-17 13:59:00,54.0,40.0,30.42,NNW,347,0.0,9.0,59,0.00,,---,0.00,VWS V14.01,2013-09-17 17:59:00,
2013-09-17 14:00:00,53.6,40.5,30.43,NE,44,6.0,9.0,61,0.00,,---,0.00,VWS V14.01,2013-09-17 18:00:00,
2013-09-17 14:01:00,54.1,39.7,30.42,SSW,203,1.0,7.0,58,0.00,,---,0.00,VWS V14.01,2013-09-17 18:01:00,
2013-09-17 14:02:00,54.2,41.1,30.42,East,89,4.0,5.0,61,0.00,,---,0.00,VWS V14.01,2013-09-17 18:02:00,
2013-09-17 14:03:00,54.2,40.2,30.42,NNE,15,2.0,7.0,59,0.00,,---,0.00,VWS V14.01,2013-09-17 18:03:00,
2013-09-17 14:04:00,54.3,41.2,30.42,NNE,12,4.0,7.0,61,0.00,,---,0.00,VWS V14.01,2013-09-17 18:04:00,
2013-09-17 14:05:00,53.5,39.5,30.43,ENE,63,8.0,8.0,59,0.00,,---,0.00,VWS V14.01,2013-09-17 18:05:00,
2013-09-17 14:06:00,54.3,40.3,30.42,NE,56,3.0,8.0,59,0.00,,---,0.00,VWS V14.01,2013-09-17 18:06:00,
2013-09-17 14:07:00,54.3,40.3,30.42,NE,56,5.0,8.0,59,0.00,,---,0.00,VWS V14.01,2013-09-17 18:07:00,
2013-09-17 14:08:00,54.3,40.3,30.42,NW,318,3.0,8.0,59,0.00,,---,0.00,VWS V14.01,2013-09-17 18:08:00,
2013-09-17 14:09:00,54.4,40.4,30.42,NNW,329,3.0,8.0,59,0.00,,---,0.00,VWS V14.01,2013-09-17 18:09:00,
2013-09-17 14:10:00,53.2,39.3,30.42,NNW,340,4.0,11.0,59,0.00,,---,0.00,VWS V14.01,2013-09-17 18:10:00,
2013-09-17 14:11:00,54.4,40.8,30.42,NNE,25,2.0,7.0,60,0.00,,---,0.00,VWS V14.01,2013-09-17 18:11:00,
2013-09-17 14:12:00,54.3,39.8,30.42,NNE,27,8.0,8.0,58,0.00,,---,0.00,VWS V14.01,2013-09-17 18:12:00,
2013-09-17 14:13:00,54.3,39.0,30.42,North,354,3.0,8.0,56,0.00,,---,0.00,VWS V14.01,2013-09-17 18:13:00,
2013-09-17 14:14:00,54.3,39.4,30.42,NE,47,3.0,9.0,57,0.00,,---,0.00,VWS V14.01,2013-09-17 18:14:00,
2013-09-17 14:15:00,54.2,39.8,30.42,ENE,57,2.0,9.0,58,0.00,,---,0.00,VWS V14.01,2013-09-17 18:15:00,
2013-09-17 14:16:00,54.1,39.7,30.42,NE,49,4.0,9.0,58,0.00,,---,0.00,VWS V14.01,2013-09-17 18:16:00,
2013-09-17 14:17:00,54.1,40.1,30.41,NE,44,2.0,9.0,59,0.00,,---,0.00,VWS V14.01,2013-09-17 18:17:00,
2013-09-17 14:18:00,53.9,40.8,30.42,NE,36,4.0,7.0,61,0.00,,---,0.00,VWS V14.01,2013-09-17 18:18:00,
2013-09-17 14:19:00,54.1,40.1,30.41,NE,39,4.0,6.0,59,0.00,,---,0.00,VWS V14.01,2013-09-17 18:19:00,
2013-09-17 14:20:00,54.1,40.5,30.41,North,9,3.0,6.0,60,0.00,,---,0.00,VWS V14.01,2013-09-17 18:20:00,
2013-09-17 14:21:00,54.3,41.2,30.42,ENE,62,6.0,6.0,61,0.00,,---,0.00,VWS V14.01,2013-09-17 18:21:00,
2013-09-17 14:22:00,54.3,40.3,30.41,ENE,63,3.0,6.0,59,0.00,,---,0.00,VWS V14.01,2013-09-17 18:22:00,
2013-09-17 14:23:00,53.9,40.3,30.42,NNW,346,4.0,11.0,60,0.00,,---,0.00,VWS V14.01,2013-09-17 18:23:00,
2013-09-17 14:24:00,54.3,40.3,30.41,NE,39,6.0,7.0,59,0.00,,---,0.00,VWS V14.01,2013-09-17 18:24:00,
2013-09-17 14:25:00,54.3,40.3,30.41,NNE,19,3.0,8.0,59,0.00,,---,0.00,VWS V14.01,2013-09-17 18:25:00,
2013-09-17 14:26:00,54.4,39.5,30.41,NE,39,8.0,9.0,57,0.00,,---,0.00,VWS V14.01,2013-09-17 18:26:00,
2013-09-17 14:27:00,54.3,39.4,30.41,North,350,3.0,9.0,57,0.00,,---,0.00,VWS V14.01,2013-09-17 18:27:00,
2013-09-17 14:28:00,53.8,39.8,30.42,WNW,288,4.0,7.0,59,0.00,,---,0.00,VWS V14.01,2013-09-17 18:28:00,
2013-09-17 14:29:00,54.4,39.5,30.42,ESE,119,4.0,9.0,57,0.00,,---,0.00,VWS V14.01,2013-09-17 18:29:00,
2013-09-17 14:30:00,54.4,39.5,30.41,North,352,0.0,9.0,57,0.00,,---,0.00,VWS V14.01,2013-09-17 18:30:00,
2013-09-17 14:31:00,54.5,39.1,30.41,North,354,1.0,8.0,56,0.00,,---,0.00,VWS V14.01,2013-09-17 18:31:00,
2013-09-17 14:32:00,54.5,40.0,30.41,North,4,4.0,5.0,58,0.00,,---,0.00,VWS V14.01,2013-09-17 18:32:00,
2013-09-17 14:33:00,54.2,39.8,30.42,NE,44,5.0,10.0,58,0.00,,---,0.00,VWS V14.01,2013-09-17 18:33:00,
2013-09-17 14:34:00,54.6,39.2,30.41,NNW,342,5.0,6.0,56,0.00,,---,0.00,VWS V14.01,2013-09-17 18:34:00,
2013-09-17 14:35:00,54.6,38.8,30.41,East,89,4.0,7.0,55,0.00,,---,0.00,VWS V14.01,2013-09-17 18:35:00,
2013-09-17 14:36:00,54.6,40.1,30.41,North,359,7.0,7.0,58,0.00,,---,0.00,VWS V14.01,2013-09-17 18:36:00,
2013-09-17 14:37:00,54.7,39.8,30.41,NNW,345,4.0,7.0,57,0.00,,---,0.00,VWS V14.01,2013-09-17 18:37:00,
2013-09-17 14:38:00,53.9,39.5,30.42,NE,44,4.0,9.0,58,0.00,,---,0.00,VWS V14.01,2013-09-17 18:38:00,
2013-09-17 14:39:00,54.9,40.9,30.41,NNE,25,7.0,8.0,59,0.00,,---,0.00,VWS V14.01,2013-09-17 18:39:00,
2013-09-17 14:40:00,54.9,40.4,30.41,NNE,13,3.0,8.0,58,0.00,,---,0.00,VWS V14.01,2013-09-17 18:40:00,
2013-09-17 14:41:00,54.9,40.4,30.41,North,358,4.0,8.0,58,0.00,,---,0.00,VWS V14.01,2013-09-17 18:41:00,
2013-09-17 14:42:00,54.9,40.0,30.41,North,9,1.0,8.0,57,0.00,,---,0.00,VWS V14.01,2013-09-17 18:42:00,
2013-09-17 14:43:00,54.2,41.1,30.42,East,89,4.0,5.0,61,0.00,,---,0.00,VWS V14.01,2013-09-17 18:43:00,
2013-09-17 14:44:00,55.0,40.5,30.41,North,350,7.0,8.0,58,0.00,,---,0.00,VWS V14.01,2013-09-17 18:44:00,
2013-09-17 14:45:00,55.0,40.5,30.41,NNE,22,1.0,9.0,58,0.00,,---,0.00,VWS V14.01,2013-09-17 18:45:00,
2013-09-17 14:46:00,55.1,41.0,30.41,East,88,4.0,9.0,59,0.00,,---,0.00,VWS V14.01,2013-09-17 18:46:00,
2013-09-17 14:47:00,55.1,40.2,30.41,East,99,6.0,9.0,57,0.00,,---,0.00,VWS V14.01,2013-09-17 18:47:00,
2013-09-17 14:48:00,55.1,39.7,30.41,East,81,2.0,9.0,56,0.00,,---,0.00,VWS V14.01,2013-09-17 18:48:00,
2013-09-17 14:49:00,54.3,40.3,30.42,NW,318,3.0,8.0,59,0.00,,---,0.00,VWS V14.01,2013-09-17 18:49:00,
2013-09-17 14:50:00,55.2,39.8,30.41,East,79,2.0,7.0,56,0.00,,---,0.00,VWS V14.01,2013-09-17 18:50:00,
2013-09-17 14:51:00,55.1,39.7,30.40,East,83,6.0,7.0,56,0.00,,---,0.00,VWS V14.01,2013-09-17 18:51:00,
2013-09-17 14:52:00,55.3,41.2,30.40,NNE,25,7.0,9.0,59,0.00,,---,0.00,VWS V14.01,2013-09-17 18:52:00,
2013-09-17 14:53:00,55.4,40.9,30.40,ENE,70,2.0,9.0,58,0.00,,---,0.00,VWS V14.01,2013-09-17 18:53:00,
2013-09-17 14:54:00,54.3,39.0,30.42,North,354,3.0,8.0,56,0.00,,---,0.00,VWS V14.01,2013-09-17 18:54:00,
2013-09-17 14:55:00,55.5,40.5,30.40,ENE,77,1.0,9.0,57,0.00,,---,0.00,VWS V14.01,2013-09-17 18:55:00,
2013-09-17 14:56:00,55.5,41.0,30.40,ENE,63,0.0,9.0,58,0.00,,---,0.00,VWS V14.01,2013-09-17 18:56:00,
2013-09-17 14:57:00,55.5,41.0,30.40,NW,320,0.0,8.0,58,0.00,,---,0.00,VWS V14.01,2013-09-17 18:57:00,
2013-09-17 14:58:00,55.6,40.2,30.40,NNW,335,1.0,5.0,56,0.00,,---,0.00,VWS V14.01,2013-09-17 18:58:00,
2013-09-17 14:59:00,54.1,40.1,30.41,ENE,76,1.0,9.0,59,0.00,,---,0.00,VWS V14.01,2013-09-17 18:59:00,
2013-09-17 15:00:00,55.6,40.2,30.40,ENE,70,0.0,4.0,56,0.00,,---,0.00,VWS V14.01,2013-09-17 19:00:00,
2013-09-17 15:01:00,55.6,41.1,30.40,North,358,3.0,5.0,58,0.00,,---,0.00,VWS V14.01,2013-09-17 19:01:00,
2013-09-17 15:02:00,55.6,41.1,30.40,WNW,291,2.0,5.0,58,0.00,,---,0.00,VWS V14.01,2013-09-17 19:02:00,
2013-09-17 15:03:00,55.6,40.2,30.40,NNW,333,2.0,6.0,56,0.00,,---,0.00,VWS V14.01,2013-09-17 19:03:00,
2013-09-17 15:04:00,54.3,40.3,30.42,NW,312,6.0,7.0,59,0.00,,---,0.00,VWS V14.01,2013-09-17 19:04:00,
2013-09-17 15:05:00,55.7,41.2,30.40,North,11,3.0,6.0,58,0.00,,---,0.00,VWS V14.01,2013-09-17 19:05:00,
2013-09-17 15:06:00,55.7,41.2,30.40,NNW,332,3.0,6.0,58,0.00,,---,0.00,VWS V14.01,2013-09-17 19:06:00,
2013-09-17 15:07:00,55.7,40.7,30.40,NNW,332,1.0,6.0,57,0.00,,---,0.00,VWS V14.01,2013-09-17 19:07:00,
2013-09-17 15:08:00,55.7,40.3,30.40,North,352,0.0,5.0,56,0.00,,---,0.00,VWS V14.01,2013-09-17 19:08:00,
2013-09-17 15:09:00,54.3,39.4,30.42,ENE,70,3.0,9.0,57,0.00,,---,0.00,VWS V14.01,2013-09-17 19:09:00,
2013-09-17 15:10:00,55.8,41.7,30.40,WNW,288,5.0,5.0,59,0.00,,---,0.00,VWS V14.01,2013-09-17 19:10:00,
2013-09-17 15:11:00,55.8,40.3,30.39,NNW,330,4.0,5.0,56,0.00,,---,0.00,VWS V14.01,2013-09-17 19:11:00,
2013-09-17 15:12:00,55.8,40.8,30.40,North,359,2.0,5.0,57,0.00,,---,0.00,VWS V14.01,2013-09-17 19:12:00,
2013-09-17 15:13:00,55.8,40.8,30.39,NE,45,3.0,5.0,57,0.00,,---,0.00,VWS V14.01,2013-09-17 19:13:00,
2013-09-17 15:14:00,54.6,39.2,30.42,NNW,338,2.0,5.0,56,0.00,,---,0.00,VWS V14.01,2013-09-17 19:14:00,
2013-09-17 15:15:00,55.9,40.5,30.40,North,352,3.0,5.0,56,0.00,,---,0.00,VWS V14.01,2013-09-17 19:15:00,
2013-09-17 15:16:00,55.9,39.5,30.39,West,278,3.0,5.0,54,0.00,,---,0.00,VWS V14.01,2013-09-17 19:16:00,
2013-09-17 15:17:00,55.8,39.4,30.39,West,264,1.0,5.0,54,0.00,,---,0.00,VWS V14.01,2013-09-17 19:17:00,
2013-09-17 15:18:00,55.8,39.9,30.39,North,354,2.0,5.0,55,0.00,,---,0.00,VWS V14.01,2013-09-17 19:18:00,
2013-09-17 15:19:00,54.8,40.8,30.41,NNE,32,4.0,7.0,59,0.00,,---,0.00,VWS V14.01,2013-09-17 19:19:00,
2013-09-17 15:20:00,55.9,40.5,30.39,NW,308,2.0,5.0,56,0.00,,---,0.00,VWS V14.01,2013-09-17 19:20:00,
2013-09-17 15:21:00,56.0,40.5,30.39,West,277,2.0,5.0,56,0.00,,---,0.00,VWS V14.01,2013-09-17 19:21:00,
2013-09-17 15:22:00,56.0,40.1,30.39,WNW,294,2.0,5.0,55,0.00,,---,0.00,VWS V14.01,2013-09-17 19:22:00,
2013-09-17 15:23:00,56.0,40.1,30.39,NW,322,4.0,7.0,55,0.00,,---,0.00,VWS V14.01,2013-09-17 19:23:00,
2013-09-17 15:24:00,54.9,40.4,30.41,North,349,4.0,8.0,58,0.00,,---,0.00,VWS V14.01,2013-09-17 19:24:00,
2013-09-17 15:25:00,56.0,39.6,30.40,WNW,292,3.0,7.0,54,0.00,,---,0.00,VWS V14.01,2013-09-17 19:25:00,
2013-09-17 15:26:00,56.0,39.1,30.39,NW,311,3.0,7.0,53,0.00,,---,0.00,VWS V14.01,2013-09-17 19:26:00,
2013-09-17 15:27:00,55.9,39.5,30.39,North,352,1.0,7.0,54,0.00,,---,0.00,VWS V14.01,2013-09-17 19:27:00,
2013-09-17 15:28:00,55.9,40.5,30.40,NNE,15,4.0,9.0,56,0.00,,---,0.00,VWS V14.01,2013-09-17 19:28:00,
2013-09-17 15:29:00,55.1,39.7,30.41,East,81,2.0,9.0,56,0.00,,---,0.00,VWS V14.01,2013-09-17 19:29:00,
2013-09-17 15:30:00,55.9,39.5,30.39,East,98,2.0,9.0,54,0.00,,---,0.00,VWS V14.01,2013-09-17 19:30:00,
2013-09-17 15:31:00,55.8,38.9,30.40,East,89,1.0,9.0,53,0.00,,---,0.00,VWS V14.01,2013-09-17 19:31:00,
2013-09-17 15:32:00,55.8,38.9,30.40,NW,309,3.0,9.0,53,0.00,,---,0.00,VWS V14.01,2013-09-17 19:32:00,
2013-09-17 15:33:00,55.8,39.4,30.40,NW,309,2.0,6.0,54,0.00,,---,0.00,VWS V14.01,2013-09-17 19:33:00,
2013-09-17 15:34:00,55.4,40.9,30.40,ENE,70,2.0,9.0,58,0.00,,---,0.00,VWS V14.01,2013-09-17 19:34:00,
2013-09-17 15:35:00,55.9,39.5,30.40,WNW,294,3.0,5.0,54,0.00,,---,0.00,VWS V14.01,2013-09-17 19:35:00,
2013-09-17 15:36:00,56.0,40.1,30.40,NNE,19,6.0,6.0,55,0.00,,---,0.00,VWS V14.01,2013-09-17 19:36:00,
2013-09-17 15:37:00,56.0,38.6,30.40,North,5,4.0,7.0,52,0.00,,---,0.00,VWS V14.01,2013-09-17 19:37:00,
2013-09-17 15:38:00,56.0,38.6,30.40,NE,44,6.0,7.0,52,0.00,,---,0.00,VWS V14.01,2013-09-17 19:38:00,
2013-09-17 15:39:00,56.0,38.6,30.40,NNW,338,2.0,7.0,52,0.00,,---,0.00,VWS V14.01,2013-09-17 19:39:00,
2013-09-17 15:40:00,55.6,40.2,30.40,North,354,1.0,5.0,56,0.00,,---,0.00,VWS V14.01,2013-09-17 19:40:00,
2013-09-17 15:41:00,55.9,40.0,30.39,East,101,2.0,7.0,55,0.00,,---,0.00,VWS V14.01,2013-09-17 19:41:00,
2013-09-17 15:42:00,56.0,39.6,30.39,ESE,123,0.0,7.0,54,0.00,,---,0.00,VWS V14.01,2013-09-17 19:42:00,
2013-09-17 15:43:00,56.1,40.2,30.39,SSW,207,0.0,7.0,55,0.00,,---,0.00,VWS V14.01,2013-09-17 19:43:00,
2013-09-17 15:44:00,56.3,41.3,30.39,SSW,207,0.0,4.0,57,0.00,,---,0.00,VWS V14.01,2013-09-17 19:44:00,
2013-09-17 15:45:00,55.6,40.2,30.40,NNE,15,3.0,6.0,56,0.00,,---,0.00,VWS V14.01,2013-09-17 19:45:00,
2013-09-17 15:46:00,56.6,40.6,30.39,East,99,1.0,4.0,55,0.00,,---,0.00,VWS V14.01,2013-09-17 19:46:00,
2013-09-17 15:47:00,56.7,40.7,30.39,ESE,102,2.0,4.0,55,0.00,,---,0.00,VWS V14.01,2013-09-17 19:47:00,
2013-09-17 15:48:00,56.7,40.7,30.39,ESE,118,2.0,4.0,55,0.00,,---,0.00,VWS V14.01,2013-09-17 19:48:00,
2013-09-17 15:49:00,56.8,40.3,30.39,ESE,105,0.0,4.0,54,0.00,,---,0.00,VWS V14.01,2013-09-17 19:49:00,
2013-09-17 15:50:00,56.8,40.3,30.39,ESE,120,1.0,4.0,54,0.00,,---,0.00,VWS V14.01,2013-09-17 19:50:00,
2013-09-17 15:51:00,55.8,41.7,30.40,WNW,288,5.0,5.0,59,0.00,,---,0.00,VWS V14.01,2013-09-17 19:51:00,
2013-09-17 15:52:00,56.8,40.3,30.39,NNE,32,1.0,6.0,54,0.00,,---,0.00,VWS V14.01,2013-09-17 19:52:00,
2013-09-17 15:53:00,56.7,39.8,30.39,NNE,32,1.0,6.0,53,0.00,,---,0.00,VWS V14.01,2013-09-17 19:53:00,
2013-09-17 15:54:00,56.7,40.3,30.39,East,85,0.0,6.0,54,0.00,,---,0.00,VWS V14.01,2013-09-17 19:54:00,
2013-09-17 15:55:00,56.7,41.2,30.39,NNE,33,4.0,6.0,56,0.00,,---,0.00,VWS V14.01,2013-09-17 19:55:00,
2013-09-17 15:56:00,55.9,40.5,30.40,North,352,3.0,5.0,56,0.00,,---,0.00,VWS V14.01,2013-09-17 19:56:00,
2013-09-17 15:57:00,56.7,40.7,30.39,SE,134,1.0,4.0,55,0.00,,---,0.00,VWS V14.01,2013-09-17 19:57:00,
2013-09-17 15:58:00,56.7,40.7,30.40,SSE,150,0.0,4.0,55,0.00,,---,0.00,VWS V14.01,2013-09-17 19:58:00,
2013-09-17 15:59:00,56.9,40.9,30.39,NE,45,1.0,4.0,55,0.00,,---,0.00,VWS V14.01,2013-09-17 19:59:00,
2013-09-17 16:00:00,57.0,41.9,30.39,West,278,2.0,4.0,57,0.00,,---,0.00,VWS V14.01,2013-09-17 20:00:00,
2013-09-17 16:01:00,55.9,40.5,30.39,NW,308,2.0,5.0,56,0.00,,---,0.00,VWS V14.01,2013-09-17 20:01:00,
2013-09-17 16:02:00,57.3,42.2,30.39,West,278,1.0,2.0,57,0.00,,---,0.00,VWS V14.01,2013-09-17 20:02:00,
2013-09-17 16:03:00,57.4,41.4,30.39,NNW,328,4.0,4.0,55,0.00,,---,0.00,VWS V14.01,2013-09-17 20:03:00,
2013-09-17 16:04:00,57.4,41.4,30.39,North,354,3.0,5.0,55,0.00,,---,0.00,VWS V14.01,2013-09-17 20:04:00,
2013-09-17 16:05:00,57.3,40.3,30.39,North,356,4.0,5.0,53,0.00,,---,0.00,VWS V14.01,2013-09-17 20:05:00,
2013-09-17 16:06:00,56.0,39.6,30.40,WNW,292,3.0,7.0,54,0.00,,---,0.00,VWS V14.01,2013-09-17 20:06:00,
2013-09-17 16:07:00,57.0,40.1,30.39,NNE,30,3.0,6.0,53,0.00,,---,0.00,VWS V14.01,2013-09-17 20:07:00,
2013-09-17 16:08:00,56.8,40.3,30.39,East,91,2.0,6.0,54,0.00,,---,0.00,VWS V14.01,2013-09-17 20:08:00,
2013-09-17 16:09:00,56.7,39.8,30.39,North,5,4.0,6.0,53,0.00,,---,0.00,VWS V14.01,2013-09-17 20:09:00,
2013-09-17 16:10:00,56.6,40.2,30.39,NW,314,1.0,6.0,54,0.00,,---,0.00,VWS V14.01,2013-09-17 20:10:00,
2013-09-17 16:11:00,55.9,39.5,30.39,East,98,2.0,9.0,54,0.00,,---,0.00,VWS V14.01,2013-09-17 20:11:00,
2013-09-17 16:12:00,56.6,41.1,30.39,WNW,302,1.0,5.0,56,0.00,,---,0.00,VWS V14.01,2013-09-17 20:12:00,
2013-09-17 16:13:00,56.7,40.7,30.39,ENE,70,0.0,5.0,55,0.00,,---,0.00,VWS V14.01,2013-09-17 20:13:00,
2013-09-17 16:14:00,56.7,40.7,30.39,North,4,2.0,5.0,55,0.00,,---,0.00,VWS V14.01,2013-09-17 20:14:00,
2013-09-17 16:15:00,56.8,40.8,30.39,NNE,13,3.0,5.0,55,0.00,,---,0.00,VWS V14.01,2013-09-17 20:15:00,
2013-09-17 16:16:00,55.9,39.5,30.40,WNW,294,3.0,5.0,54,0.00,,---,0.00,VWS V14.01,2013-09-17 20:16:00,
2013-09-17 16:17:00,56.7,40.7,30.39,NE,36,2.0,5.0,55,0.00,,---,0.00,VWS V14.01,2013-09-17 20:17:00,
2013-09-17 16:18:00,56.7,40.3,30.39,North,352,2.0,5.0,54,0.00,,---,0.00,VWS V14.01,2013-09-17 20:18:00,
2013-09-17 16:19:00,56.6,39.7,30.39,NNW,345,1.0,5.0,53,0.00,,---,0.00,VWS V14.01,2013-09-17 20:19:00,
2013-09-17 16:20:00,56.6,39.7,30.39,NNW,345,0.0,5.0,53,0.00,,---,0.00,VWS V14.01,2013-09-17 20:20:00,
2013-09-17 16:21:00,56.6,39.7,30.39,ENE,76,0.0,4.0,53,0.00,,---,0.00,VWS V14.01,2013-09-17 20:21:00,
2013-09-17 16:22:00,55.9,40.0,30.39,East,101,2.0,7.0,55,0.00,,---,0.00,VWS V14.01,2013-09-17 20:22:00,
2013-09-17 16:23:00,56.7,39.3,30.39,North,11,4.0,4.0,52,0.00,,---,0.00,VWS V14.01,2013-09-17 20:23:00,
2013-09-17 16:24:00,56.7,39.3,30.39,North,356,2.0,4.0,52,0.00,,---,0.00,VWS V14.01,2013-09-17 20:24:00,
2013-09-17 16:25:00,56.6,39.2,30.39,NNE,19,3.0,4.0,52,0.00,,---,0.00,VWS V14.01,2013-09-17 20:25:00,
2013-09-17 16:26:00,56.5,38.6,30.39,NNW,346,0.0,4.0,51,0.00,,---,0.00,VWS V14.01,2013-09-17 20:26:00,
2013-09-17 16:27:00,56.6,40.6,30.39,East,99,1.0,4.0,55,0.00,,---,0.00,VWS V14.01,2013-09-17 20:27:00,
2013-09-17 16:28:00,56.4,39.0,30.39,SE,134,1.0,4.0,52,0.00,,---,0.00,VWS V14.01,2013-09-17 20:28:00,
2013-09-17 16:29:00,56.3,38.9,30.39,ESE,104,1.0,4.0,52,0.00,,---,0.00,VWS V14.01,2013-09-17 20:29:00,
2013-09-17 16:30:00,56.3,39.4,30.39,NE,49,2.0,4.0,53,0.00,,---,0.00,VWS V14.01,2013-09-17 20:30:00,
2013-09-17 16:31:00,56.3,38.9,30.39,NNE,19,2.0,4.0,52,0.00,,---,0.00,VWS V14.01,2013-09-17 20:31:00,
2013-09-17 16:32:00,56.9,40.4,30.39,NE,51,6.0,6.0,54,0.00,,---,0.00,VWS V14.01,2013-09-17 20:32:00,
2013-09-17 16:33:00,56.2,38.8,30.39,NNW,347,2.0,4.0,52,0.00,,---,0.00,VWS V14.01,2013-09-17 20:33:00,
2013-09-17 16:34:00,56.2,39.3,30.39,North,356,3.0,4.0,53,0.00,,---,0.00,VWS V14.01,2013-09-17 20:34:00,
2013-09-17 16:35:00,56.1,39.7,30.39,North,9,2.0,4.0,54,0.00,,---,0.00,VWS V14.01,2013-09-17 20:35:00,
2013-09-17 16:36:00,56.1,39.7,30.39,NNW,340,3.0,4.0,54,0.00,,---,0.00,VWS V14.01,2013-09-17 20:36:00,
2013-09-17 16:37:00,56.7,40.7,30.39,ENE,59,1.0,6.0,55,0.00,,---,0.00,VWS V14.01,2013-09-17 20:37:00,
2013-09-17 16:38:00,56.1,40.2,30.39,ENE,65,2.0,4.0,55,0.00,,---,0.00,VWS V14.01,2013-09-17 20:38:00,
2013-09-17 16:39:00,56.1,40.6,30.39,NW,325,2.0,4.0,56,0.00,,---,0.00,VWS V14.01,2013-09-17 20:39:00,
2013-09-17 16:40:00,56.2,40.3,30.39,WNW,287,2.0,4.0,55,0.00,,---,0.00,VWS V14.01,2013-09-17 20:40:00,
2013-09-17 16:41:00,56.3,40.8,30.39,NW,321,3.0,5.0,56,0.00,,---,0.00,VWS V14.01,2013-09-17 20:41:00,
2013-09-17 16:42:00,57.1,41.1,30.39,NW,316,0.0,2.0,55,0.00,,---,0.00,VWS V14.01,2013-09-17 20:42:00,
2013-09-17 16:43:00,56.3,40.4,30.39,NW,319,4.0,6.0,55,0.00,,---,0.00,VWS V14.01,2013-09-17 20:43:00,
2013-09-17 16:44:00,56.2,40.7,30.38,NW,323,7.0,7.0,56,0.00,,---,0.00,VWS V14.01,2013-09-17 20:44:00,
2013-09-17 16:45:00,56.1,40.2,30.39,East,87,3.0,8.0,55,0.00,,---,0.00,VWS V14.01,2013-09-17 20:45:00,
2013-09-17 16:46:00,56.1,40.2,30.39,NNE,15,4.0,8.0,55,0.00,,---,0.00,VWS V14.01,2013-09-17 20:46:00,
2013-09-17 16:47:00,57.2,40.2,30.39,NNE,27,4.0,5.0,53,0.00,,---,0.00,VWS V14.01,2013-09-17 20:47:00,
2013-09-17 16:48:00,57.1,43.8,30.38,WNW,295,0.0,1.0,61,0.00,,---,0.00,VWS V14.01,2013-09-17 20:48:00,
2013-09-17 16:49:00,55.8,40.3,30.38,NE,45,3.0,8.0,56,0.00,,---,0.00,VWS V14.01,2013-09-17 20:49:00,
2013-09-17 16:50:00,55.8,39.9,30.39,NNE,12,2.0,7.0,55,0.00,,---,0.00,VWS V14.01,2013-09-17 20:50:00,
2013-09-17 16:51:00,55.8,40.3,30.38,NNE,12,1.0,5.0,56,0.00,,---,0.00,VWS V14.01,2013-09-17 20:51:00,
2013-09-17 16:52:00,56.6,40.6,30.39,NW,318,2.0,6.0,55,0.00,,---,0.00,VWS V14.01,2013-09-17 20:52:00,
2013-09-17 16:53:00,55.8,40.8,30.38,NW,325,2.0,5.0,57,0.00,,---,0.00,VWS V14.01,2013-09-17 20:53:00,
2013-09-17 16:54:00,55.8,40.8,30.38,NW,318,1.0,4.0,57,0.00,,---,0.00,VWS V14.01,2013-09-17 20:54:00,
2013-09-17 16:55:00,55.9,40.9,30.38,NW,320,2.0,4.0,57,0.00,,---,0.00,VWS V14.01,2013-09-17 20:55:00,
2013-09-17 16:56:00,56.0,40.5,30.38,NW,306,1.0,4.0,56,0.00,,---,0.00,VWS V14.01,2013-09-17 20:56:00,
2013-09-17 16:57:00,56.1,41.5,30.38,North,9,1.0,1.0,58,0.00,,---,0.00,VWS V14.01,2013-09-17 20:57:00,
2013-09-17 16:58:00,56.7,40.7,30.39,NE,36,2.0,5.0,55,0.00,,---,0.00,VWS V14.01,2013-09-17 20:58:00,
2013-09-17 16:59:00,56.3,40.8,30.38,NW,322,1.0,3.0,56,0.00,,---,0.00,VWS V14.01,2013-09-17 20:59:00,
2013-09-17 17:00:00,55.5,41.0,30.38,NNE,26,1.0,2.0,58,0.00,,---,0.00,VWS V14.01,2013-09-17 21:00:00,
2013-09-17 17:01:00,55.3,40.8,30.38,NNE,25,0.0,2.0,58,0.00,,---,0.00,VWS V14.01,2013-09-17 21:01:00,
2013-09-17 17:02:00,55.1,41.0,30.37,NNE,25,0.0,2.0,59,0.00,,---,0.00,VWS V14.01,2013-09-17 21:02:00,
2013-09-17 17:03:00,56.7,40.7,30.39,NNE,33,4.0,4.0,55,0.00,,---,0.00,VWS V14.01,2013-09-17 21:03:00,
2013-09-17 17:04:00,56.5,40.5,30.38,NW,309,1.0,3.0,55,0.00,,---,0.00,VWS V14.01,2013-09-17 21:04:00,
2013-09-17 17:05:00,56.5,40.1,30.38,NW,308,2.0,3.0,54,0.00,,---,0.00,VWS V14.01,2013-09-17 21:05:00,
2013-09-17 17:06:00,54.4,42.1,30.37,NNE,26,1.0,1.0,63,0.00,,---,0.00,VWS V14.01,2013-09-17 21:06:00,
2013-09-17 17:07:00,54.2,41.1,30.37,NNE,31,0.0,1.0,61,0.00,,---,0.00,VWS V14.01,2013-09-17 21:07:00,
2013-09-17 17:08:00,56.4,38.5,30.39,NE,36,0.0,4.0,51,0.00,,---,0.00,VWS V14.01,2013-09-17 21:08:00,
2013-09-17 17:09:00,56.5,40.5,30.38,North,11,0.0,4.0,55,0.00,,---,0.00,VWS V14.01,2013-09-17 21:09:00,
2013-09-17 17:10:00,56.5,41.0,30.38,WNW,300,2.0,4.0,56,0.00,,---,0.00,VWS V14.01,2013-09-17 21:10:00,
2013-09-17 17:11:00,56.6,41.1,30.38,NW,322,2.0,4.0,56,0.00,,---,0.00,VWS V14.01,2013-09-17 21:11:00,
2013-09-17 17:12:00,56.6,40.6,30.38,NW,325,2.0,4.0,55,0.00,,---,0.00,VWS V14.01,2013-09-17 21:12:00,
2013-09-17 17:13:00,56.2,39.3,30.39,NNW,342,2.0,4.0,53,0.00,,---,0.00,VWS V14.01,2013-09-17 21:13:00,
2013-09-17 17:14:00,56.5,41.0,30.38,WNW,287,2.0,3.0,56,0.00,,---,0.00,VWS V14.01,2013-09-17 21:14:00,
2013-09-17 17:15:00,52.6,42.7,30.37,NNE,32,0.0,0.0,69,0.00,,---,0.00,VWS V14.01,2013-09-17 21:15:00,
2013-09-17 17:16:00,52.3,42.5,30.37,NNE,32,0.0,0.0,69,0.00,,---,0.00,VWS V14.01,2013-09-17 21:16:00,
2013-09-17 17:17:00,56.4,41.4,30.38,WNW,302,0.0,3.0,57,0.00,,---,0.00,VWS V14.01,2013-09-17 21:17:00,
2013-09-17 17:18:00,56.1,39.7,30.39,NNW,331,1.0,4.0,54,0.00,,---,0.00,VWS V14.01,2013-09-17 21:18:00,
2013-09-17 17:19:00,56.5,41.0,30.38,WNW,297,1.0,3.0,56,0.00,,---,0.00,VWS V14.01,2013-09-17 21:19:00,
2013-09-17 17:20:00,51.1,41.3,30.37,NNE,31,0.0,0.0,69,0.00,,---,0.00,VWS V14.01,2013-09-17 21:20:00,
2013-09-17 17:21:00,50.8,41.4,30.37,NNE,32,0.0,0.0,70,0.00,,---,0.00,VWS V14.01,2013-09-17 21:21:00,
2013-09-17 17:22:00,50.6,41.6,30.37,NNE,32,0.0,0.0,71,0.00,,---,0.00,VWS V14.01,2013-09-17 21:22:00,
2013-09-17 17:23:00,56.3,40.8,30.38,WNW,298,3.0,5.0,56,0.00,,---,0.00,VWS V14.01,2013-09-17 21:23:00,
2013-09-17 17:24:00,56.4,40.9,30.38,West,277,1.0,3.0,56,0.00,,---,0.00,VWS V14.01,2013-09-17 21:24:00,
2013-09-17 17:25:00,56.4,41.4,30.38,WNW,291,1.0,2.0,57,0.00,,---,0.00,VWS V14.01,2013-09-17 21:25:00,
2013-09-17 17:26:00,56.5,41.5,30.38,WNW,297,1.0,2.0,57,0.00,,---,0.00,VWS V14.01,2013-09-17 21:26:00,
2013-09-17 17:27:00,56.5,41.9,30.38,WNW,285,2.0,2.0,58,0.00,,---,0.00,VWS V14.01,2013-09-17 21:27:00,
2013-09-17 17:28:00,56.0,40.5,30.39,NE,36,3.0,8.0,56,0.00,,---,0.00,VWS V14.01,2013-09-17 21:28:00,
2013-09-17 17:29:00,49.3,39.6,30.37,North,1,1.0,2.0,69,0.00,,---,0.00,VWS V14.01,2013-09-17 21:29:00,
2013-09-17 17:30:00,49.3,39.6,30.37,NNE,18,0.0,2.0,69,0.00,,---,0.00,VWS V14.01,2013-09-17 21:30:00,
2013-09-17 17:31:00,56.4,41.4,30.38,WNW,302,1.0,2.0,57,0.00,,---,0.00,VWS V14.01,2013-09-17 21:31:00,
2013-09-17 17:32:00,56.4,42.3,30.38,WNW,302,1.0,2.0,59,0.00,,---,0.00,VWS V14.01,2013-09-17 21:32:00,
2013-09-17 17:33:00,56.4,42.3,30.38,WNW,302,1.0,2.0,59,0.00,,---,0.00,VWS V14.01,2013-09-17 21:33:00,
2013-09-17 17:34:00,55.8,40.8,30.38,NW,325,2.0,5.0,57,0.00,,---,0.00,VWS V14.01,2013-09-17 21:34:00,
2013-09-17 17:35:00,56.4,41.8,30.38,WNW,302,0.0,2.0,58,0.00,,---,0.00,VWS V14.01,2013-09-17 21:35:00,
2013-09-17 17:36:00,56.5,42.8,30.38,WNW,302,0.0,1.0,60,0.00,,---,0.00,VWS V14.01,2013-09-17 21:36:00,
2013-09-17 17:37:00,56.5,43.7,30.38,WNW,302,0.0,1.0,62,0.00,,---,0.00,VWS V14.01,2013-09-17 21:37:00,
2013-09-17 17:38:00,56.5,43.2,30.38,WNW,302,0.0,1.0,61,0.00,,---,0.00,VWS V14.01,2013-09-17 21:38:00,
2013-09-17 17:39:00,56.2,40.7,30.38,NNW,336,1.0,3.0,56,0.00,,---,0.00,VWS V14.01,2013-09-17 21:39:00,
2013-09-17 17:40:00,56.6,42.9,30.38,WNW,302,0.0,1.0,60,0.00,,---,0.00,VWS V14.01,2013-09-17 21:40:00,
2013-09-17 17:41:00,56.7,43.4,30.38,WNW,302,1.0,1.0,61,0.00,,---,0.00,VWS V14.01,2013-09-17 21:41:00,
2013-09-17 17:42:00,56.7,43.0,30.38,WNW,302,1.0,1.0,60,0.00,,---,0.00,VWS V14.01,2013-09-17 21:42:00,
2013-09-17 17:43:00,56.8,42.6,30.38,WNW,295,0.0,1.0,59,0.00,,---,0.00,VWS V14.01,2013-09-17 21:43:00,
2013-09-17 17:44:00,48.2,40.0,30.37,NNE,26,0.0,0.0,73,0.00,,---,0.00,VWS V14.01,2013-09-17 21:44:00,
2013-09-17 17:45:00,56.5,40.5,30.38,NW,309,1.0,3.0,55,0.00,,---,0.00,VWS V14.01,2013-09-17 21:45:00,
2013-09-17 17:46:00,56.8,43.1,30.38,WNW,295,0.0,1.0,60,0.00,,---,0.00,VWS V14.01,2013-09-17 21:46:00,
2013-09-17 17:47:00,57.0,43.7,30.38,WNW,295,0.0,1.0,61,0.00,,---,0.00,VWS V14.01,2013-09-17 21:47:00,
2013-09-17 17:48:00,57.1,43.8,30.38,WNW,295,0.0,1.0,61,0.00,,---,0.00,VWS V14.01,2013-09-17 21:48:00,
2013-09-17 17:49:00,57.2,43.5,30.38,WNW,295,0.0,0.0,60,0.00,,---,0.00,VWS V14.01,2013-09-17 21:49:00,
2013-09-17 17:50:00,56.5,40.5,30.38,North,11,0.0,4.0,55,0.00,,---,0.00,VWS V14.01,2013-09-17 21:50:00,
2013-09-17 17:51:00,57.2,43.0,30.38,WNW,295,0.0,0.0,59,0.00,,---,0.00,VWS V14.01,2013-09-17 21:51:00,
2013-09-17 17:52:00,57.1,42.5,30.38,WNW,295,0.0,1.0,58,0.00,,---,0.00,VWS V14.01,2013-09-17 21:52:00,
2013-09-17 17:53:00,57.0,41.9,30.38,NNW,328,1.0,1.0,57,0.00,,---,0.00,VWS V14.01,2013-09-17 21:53:00,
2013-09-17 17:54:00,56.8,41.8,30.38,NNW,328,0.0,1.0,57,0.00,,---,0.00,VWS V14.01,2013-09-17 21:54:00,
2013-09-17 17:55:00,56.5,41.0,30.38,WNW,287,2.0,3.0,56,0.00,,---,0.00,VWS V14.01,2013-09-17 21:55:00,
2013-09-17 17:56:00,56.3,41.3,30.38,North,360,1.0,1.0,57,0.00,,---,0.00,VWS V14.01,2013-09-17 21:56:00,
2013-09-17 17:57:00,56.1,41.5,30.38,North,9,1.0,1.0,58,0.00,,---,0.00,VWS V14.01,2013-09-17 21:57:00,
2013-09-17 17:58:00,55.9,41.3,30.38,North,9,1.0,2.0,58,0.00,,---,0.00,VWS V14.01,2013-09-17 21:58:00,
2013-09-17 17:59:00,55.7,41.2,30.38,NNE,26,2.0,2.0,58,0.00,,---,0.00,VWS V14.01,2013-09-17 21:59:00,
2013-09-17 18:00:00,56.5,41.0,30.38,WNW,297,1.0,3.0,56,0.00,,---,0.00,VWS V14.01,2013-09-17 22:00:00,
2013-09-17 18:01:00,55.3,40.8,30.38,NNE,25,0.0,2.0,58,0.00,,---,0.00,VWS V14.01,2013-09-17 22:01:00,
2013-09-17 18:02:00,55.1,41.0,30.37,NNE,25,0.0,2.0,59,0.00,,---,0.00,VWS V14.01,2013-09-17 22:02:00,
2013-09-17 18:03:00,55.0,41.4,30.37,NNE,26,0.0,2.0,60,0.00,,---,0.00,VWS V14.01,2013-09-17 22:03:00,
2013-09-17 18:04:00,54.8,41.6,30.37,NNE,26,0.0,2.0,61,0.00,,---,0.00,VWS V14.01,2013-09-17 22:04:00,
2013-09-17 18:05:00,56.4,40.9,30.38,West,277,1.0,3.0,56,0.00,,---,0.00,VWS V14.01,2013-09-17 22:05:00,
2013-09-17 18:06:00,54.4,42.1,30.37,NNE,26,1.0,1.0,63,0.00,,---,0.00,VWS V14.01,2013-09-17 22:06:00,
2013-09-17 18:07:00,54.2,41.1,30.37,NNE,31,0.0,1.0,61,0.00,,---,0.00,VWS V14.01,2013-09-17 22:07:00,
2013-09-17 18:08:00,54.0,40.9,30.37,NNE,32,1.0,1.0,61,0.00,,---,0.00,VWS V14.01,2013-09-17 22:08:00,
2013-09-17 18:09:00,53.8,40.7,30.37,NNE,32,0.0,1.0,61,0.00,,---,0.00,VWS V14.01,2013-09-17 22:09:00,
2013-09-17 18:10:00,56.5,41.0,30.38,WNW,302,2.0,2.0,56,0.00,,---,0.00,VWS V14.01,2013-09-17 22:10:00,
2013-09-17 18:11:00,53.6,41.7,30.37,NNE,32,0.0,1.0,64,0.00,,---,0.00,VWS V14.01,2013-09-17 22:11:00,
2013-09-17 18:12:00,53.4,41.9,30.37,NNE,32,0.0,1.0,65,0.00,,---,0.00,VWS V14.01,2013-09-17 22:12:00,
2013-09-17 18:13:00,44.5,39.0,30.37,NNE,26,0.0,1.0,81,0.00,,---,0.00,VWS V14.01,2013-09-17 22:13:00,
2013-09-17 18:14:00,44.5,39.0,30.37,NNE,25,0.0,1.0,81,0.00,,---,0.00,VWS V14.01,2013-09-17 22:14:00,
2013-09-17 18:15:00,56.4,41.4,30.38,WNW,302,0.0,2.0,57,0.00,,---,0.00,VWS V14.01,2013-09-17 22:15:00,
2013-09-17 18:16:00,52.3,42.5,30.37,NNE,32,0.0,0.0,69,0.00,,---,0.00,VWS V14.01,2013-09-17 22:16:00,
2013-09-17 18:17:00,52.0,42.2,30.37,NNE,31,0.0,0.0,69,0.00,,---,0.00,VWS V14.01,2013-09-17 22:17:00,
2013-09-17 18:18:00,44.3,38.5,30.37,NNE,25,0.0,0.0,80,0.00,,---,0.00,VWS V14.01,2013-09-17 22:18:00,
2013-09-17 18:19:00,44.3,38.5,30.37,NNE,25,0.0,0.0,80,0.00,,---,0.00,VWS V14.01,2013-09-17 22:19:00,
2013-09-17 18:20:00,56.6,43.8,30.38,WNW,302,0.0,1.0,62,0.00,,---,0.00,VWS V14.01,2013-09-17 22:20:00,
2013-09-17 18:21:00,50.8,41.4,30.37,NNE,32,0.0,0.0,70,0.00,,---,0.00,VWS V14.01,2013-09-17 22:21:00,
2013-09-17 18:22:00,50.6,41.6,30.37,NNE,32,0.0,0.0,71,0.00,,---,0.00,VWS V14.01,2013-09-17 22:22:00,
2013-09-17 18:23:00,50.3,41.3,30.37,NNE,32,0.0,0.0,71,0.00,,---,0.00,VWS V14.01,2013-09-17 22:23:00,
2013-09-17 18:24:00,50.1,40.7,30.37,NNE,32,0.0,0.0,70,0.00,,---,0.00,VWS V14.01,2013-09-17 22:24:00,
2013-09-17 18:25:00,56.8,42.6,30.38,WNW,295,0.0,1.0,59,0.00,,---,0.00,VWS V14.01,2013-09-17 22:25:00,
2013-09-17 18:26:00,43.6,37.8,30.37,NNE,26,0.0,0.0,80,0.00,,---,0.00,VWS V14.01,2013-09-17 22:26:00,
2013-09-17 18:27:00,49.5,39.4,30.37,NE,36,1.0,1.0,68,0.00,,---,0.00,VWS V14.01,2013-09-17 22:27:00,
2013-09-17 18:28:00,49.4,39.7,30.37,NE,36,1.0,2.0,69,0.00,,---,0.00,VWS V14.01,2013-09-17 22:28:00,
2013-09-17 18:29:00,43.1,37.7,30.38,NNE,26,0.0,0.0,81,0.00,,---,0.00,VWS V14.01,2013-09-17 22:29:00,
2013-09-17 18:30:00,57.2,43.5,30.38,WNW,295,0.0,0.0,60,0.00,,---,0.00,VWS V14.01,2013-09-17 22:30:00,
2013-09-17 18:31:00,49.2,39.8,30.37,NNE,22,1.0,2.0,70,0.00,,---,0.00,VWS V14.01,2013-09-17 22:31:00,
2013-09-17 18:32:00,49.1,39.8,30.37,NNE,23,1.0,2.0,70,0.00,,---,0.00,VWS V14.01,2013-09-17 22:32:00,
2013-09-17 18:33:00,42.4,37.3,30.38,NNE,25,0.0,0.0,82,0.00,,---,0.00,VWS V14.01,2013-09-17 22:33:00,
2013-09-17 18:34:00,42.3,37.5,30.37,NNE,26,0.0,0.0,83,0.00,,---,0.00,VWS V14.01,2013-09-17 22:34:00,
2013-09-17 18:35:00,56.8,41.8,30.38,NNW,328,0.0,1.0,57,0.00,,---,0.00,VWS V14.01,2013-09-17 22:35:00,
2013-09-17 18:36:00,42.3,38.1,30.38,NNE,25,0.0,0.0,85,0.00,,---,0.00,VWS V14.01,2013-09-17 22:36:00,
2013-09-17 18:37:00,49.0,39.3,30.37,NNE,26,0.0,1.0,69,0.00,,---,0.00,VWS V14.01,2013-09-17 22:37:00,
2013-09-17 18:38:00,49.0,39.7,30.37,NNE,26,0.0,1.0,70,0.00,,---,0.00,VWS V14.01,2013-09-17 22:38:00,
2013-09-17 18:39:00,48.9,39.6,30.37,NNE,25,0.0,1.0,70,0.00,,---,0.00,VWS V14.01,2013-09-17 22:39:00,
2013-09-17 18:40:00,55.7,41.2,30.38,NNE,26,2.0,2.0,58,0.00,,---,0.00,VWS V14.01,2013-09-17 22:40:00,
2013-09-17 18:41:00,42.5,38.0,30.38,NNE,25,0.0,0.0,84,0.00,,---,0.00,VWS V14.01,2013-09-17 22:41:00,
2013-09-17 18:42:00,48.6,40.0,30.37,NNE,26,0.0,1.0,72,0.00,,---,0.00,VWS V14.01,2013-09-17 22:42:00,
2013-09-17 18:43:00,42.5,38.0,30.38,NNE,26,0.0,0.0,84,0.00,,---,0.00,VWS V14.01,2013-09-17 22:43:00,
2013-09-17 18:44:00,48.2,40.0,30.37,NNE,26,0.0,0.0,73,0.00,,---,0.00,VWS V14.01,2013-09-17 22:44:00,
2013-09-17 18:45:00,54.8,41.6,30.37,NNE,26,0.0,2.0,61,0.00,,---,0.00,VWS V14.01,2013-09-17 22:45:00,
2013-09-17 18:46:00,47.7,39.8,30.37,NNE,25,0.0,0.0,74,0.00,,---,0.00,VWS V14.01,2013-09-17 22:46:00,
2013-09-17 18:47:00,42.6,37.8,30.38,NNE,25,0.0,0.0,83,0.00,,---,0.00,VWS V14.01,2013-09-17 22:47:00,
2013-09-17 18:48:00,47.2,39.7,30.37,NNE,26,0.0,0.0,75,0.00,,---,0.00,VWS V14.01,2013-09-17 22:48:00,
2013-09-17 18:49:00,47.0,39.5,30.37,NNE,25,0.0,0.0,75,0.00,,---,0.00,VWS V14.01,2013-09-17 22:49:00,
2013-09-17 18:50:00,53.8,40.7,30.37,NNE,32,0.0,1.0,61,0.00,,---,0.00,VWS V14.01,2013-09-17 22:50:00,
2013-09-17 18:51:00,46.5,39.7,30.37,NNE,25,0.0,0.0,77,0.00,,---,0.00,VWS V14.01,2013-09-17 22:51:00,
2013-09-17 18:52:00,42.5,37.4,30.38,NNE,26,0.0,0.0,82,0.00,,---,0.00,VWS V14.01,2013-09-17 22:52:00,
2013-09-17 18:53:00,46.2,39.7,30.37,NNE,25,0.0,1.0,78,0.00,,---,0.00,VWS V14.01,2013-09-17 22:53:00,
2013-09-17 18:54:00,42.5,37.4,30.38,NNE,26,0.0,0.0,82,0.00,,---,0.00,VWS V14.01,2013-09-17 22:54:00,
2013-09-17 18:55:00,45.8,39.7,30.37,NNE,26,0.0,1.0,79,0.00,,---,0.00,VWS V14.01,2013-09-17 22:55:00,
2013-09-17 18:56:00,45.6,39.8,30.37,NNE,25,0.0,1.0,80,0.00,,---,0.00,VWS V14.01,2013-09-17 22:56:00,
2013-09-17 18:57:00,42.6,37.5,30.38,NNE,25,0.0,0.0,82,0.00,,---,0.00,VWS V14.01,2013-09-17 22:57:00,
2013-09-17 18:58:00,52.0,42.2,30.37,NNE,31,0.0,0.0,69,0.00,,---,0.00,VWS V14.01,2013-09-17 22:58:00,
2013-09-17 18:59:00,45.2,39.7,30.37,NNE,26,0.0,0.0,81,0.00,,---,0.00,VWS V14.01,2013-09-17 22:59:00,
2013-09-17 19:00:00,45.1,39.6,30.37,NNE,26,0.0,0.0,81,0.00,,---,0.00,VWS V14.01,2013-09-17 23:00:00,
2013-09-17 19:02:00,44.9,39.4,30.37,NNE,26,0.0,0.0,81,0.00,,---,0.00,VWS V14.01,2013-09-17 23:02:00,
2013-09-17 19:03:00,44.8,39.7,30.37,NNE,26,0.0,0.0,82,0.00,,---,0.00,VWS V14.01,2013-09-17 23:03:00,
2013-09-17 19:04:00,44.7,39.5,30.37,NNE,26,0.0,0.0,82,0.00,,---,0.00,VWS V14.01,2013-09-17 23:04:00,
2013-09-17 19:05:00,50.1,40.7,30.37,NNE,32,0.0,0.0,70,0.00,,---,0.00,VWS V14.01,2013-09-17 23:05:00,
2013-09-17 19:06:00,43.2,38.1,30.38,NNE,26,0.0,0.0,82,0.00,,---,0.00,VWS V14.01,2013-09-17 23:06:00,
2013-09-17 19:07:00,44.6,39.1,30.37,NNE,25,1.0,1.0,81,0.00,,---,0.00,VWS V14.01,2013-09-17 23:07:00,
2013-09-17 19:08:00,43.1,38.0,30.38,NNE,26,0.0,0.0,82,0.00,,---,0.00,VWS V14.01,2013-09-17 23:08:00,
2013-09-17 19:09:00,42.9,37.8,30.38,NNE,26,0.0,0.0,82,0.00,,---,0.00,VWS V14.01,2013-09-17 23:09:00,
2013-09-17 19:10:00,44.6,39.1,30.37,NNE,25,0.0,1.0,81,0.00,,---,0.00,VWS V14.01,2013-09-17 23:10:00,
2013-09-17 19:11:00,44.6,39.1,30.37,NNE,25,0.0,1.0,81,0.00,,---,0.00,VWS V14.01,2013-09-17 23:11:00,
2013-09-17 19:12:00,49.2,39.8,30.37,NNE,22,1.0,2.0,70,0.00,,---,0.00,VWS V14.01,2013-09-17 23:12:00,
2013-09-17 19:13:00,42.4,37.6,30.38,NNE,25,0.0,0.0,83,0.00,,---,0.00,VWS V14.01,2013-09-17 23:13:00,
2013-09-17 19:14:00,44.5,39.0,30.37,NNE,25,0.0,1.0,81,0.00,,---,0.00,VWS V14.01,2013-09-17 23:14:00,
2013-09-17 19:15:00,44.4,38.9,30.37,NNE,26,0.0,0.0,81,0.00,,---,0.00,VWS V14.01,2013-09-17 23:15:00,
2013-09-17 19:16:00,44.4,38.9,30.37,NNE,26,0.0,0.0,81,0.00,,---,0.00,VWS V14.01,2013-09-17 23:16:00,
2013-09-17 19:17:00,49.0,39.3,30.37,NNE,26,0.0,1.0,69,0.00,,---,0.00,VWS V14.01,2013-09-17 23:17:00,
2013-09-17 19:18:00,44.3,38.5,30.37,NNE,25,0.0,0.0,80,0.00,,---,0.00,VWS V14.01,2013-09-17 23:18:00,
2013-09-17 19:19:00,44.3,38.5,30.37,NNE,25,0.0,0.0,80,0.00,,---,0.00,VWS V14.01,2013-09-17 23:19:00,
2013-09-17 19:20:00,44.3,38.5,30.37,NNE,26,0.0,0.0,80,0.00,,---,0.00,VWS V14.01,2013-09-17 23:20:00,
2013-09-17 19:21:00,44.2,38.4,30.38,NNE,26,0.0,0.0,80,0.00,,---,0.00,VWS V14.01,2013-09-17 23:21:00,
2013-09-17 19:22:00,48.7,39.7,30.37,NNE,26,0.0,1.0,71,0.00,,---,0.00,VWS V14.01,2013-09-17 23:22:00,
2013-09-17 19:23:00,44.0,38.2,30.37,NNE,26,0.0,0.0,80,0.00,,---,0.00,VWS V14.01,2013-09-17 23:23:00,
2013-09-17 19:24:00,43.8,38.4,30.37,NNE,26,0.0,0.0,81,0.00,,---,0.00,VWS V14.01,2013-09-17 23:24:00,
2013-09-17 19:25:00,43.7,37.9,30.37,NNE,25,0.0,0.0,80,0.00,,---,0.00,VWS V14.01,2013-09-17 23:25:00,
2013-09-17 19:26:00,43.6,37.8,30.37,NNE,26,0.0,0.0,80,0.00,,---,0.00,VWS V14.01,2013-09-17 23:26:00,
2013-09-17 19:27:00,47.7,39.8,30.37,NNE,25,0.0,0.0,74,0.00,,---,0.00,VWS V14.01,2013-09-17 23:27:00,
2013-09-17 19:28:00,43.2,37.5,30.37,NNE,26,0.0,0.0,80,0.00,,---,0.00,VWS V14.01,2013-09-17 23:28:00,
2013-09-17 19:29:00,43.1,37.7,30.38,NNE,26,0.0,0.0,81,0.00,,---,0.00,VWS V14.01,2013-09-17 23:29:00,
2013-09-17 19:30:00,42.9,37.5,30.38,NNE,26,0.0,0.0,81,0.00,,---,0.00,VWS V14.01,2013-09-17 23:30:00,
2013-09-17 19:31:00,42.7,37.3,30.38,NNE,25,0.0,0.0,81,0.00,,---,0.00,VWS V14.01,2013-09-17 23:31:00,
2013-09-17 19:32:00,46.5,39.7,30.37,NNE,25,0.0,0.0,77,0.00,,---,0.00,VWS V14.01,2013-09-17 23:32:00,
2013-09-17 19:33:00,42.4,37.3,30.38,NNE,25,0.0,0.0,82,0.00,,---,0.00,VWS V14.01,2013-09-17 23:33:00,
2013-09-17 19:34:00,42.3,37.5,30.37,NNE,26,0.0,0.0,83,0.00,,---,0.00,VWS V14.01,2013-09-17 23:34:00,
2013-09-17 19:35:00,42.3,37.8,30.37,NNE,25,0.0,0.0,84,0.00,,---,0.00,VWS V14.01,2013-09-17 23:35:00,
2013-09-17 19:36:00,42.3,38.1,30.38,NNE,25,0.0,0.0,85,0.00,,---,0.00,VWS V14.01,2013-09-17 23:36:00,
2013-09-17 19:37:00,45.6,39.8,30.37,NNE,25,0.0,1.0,80,0.00,,---,0.00,VWS V14.01,2013-09-17 23:37:00,
2013-09-17 19:38:00,42.4,38.2,30.38,NNE,25,0.0,0.0,85,0.00,,---,0.00,VWS V14.01,2013-09-17 23:38:00,
2013-09-17 19:39:00,42.5,38.0,30.38,NNE,26,0.0,0.0,84,0.00,,---,0.00,VWS V14.01,2013-09-17 23:39:00,
2013-09-17 19:40:00,42.5,38.0,30.38,NNE,25,0.0,0.0,84,0.00,,---,0.00,VWS V14.01,2013-09-17 23:40:00,
2013-09-17 19:41:00,42.5,38.0,30.38,NNE,25,0.0,0.0,84,0.00,,---,0.00,VWS V14.01,2013-09-17 23:41:00,
2013-09-17 19:42:00,45.0,39.5,30.37,NNE,26,0.0,0.0,81,0.00,,---,0.00,VWS V14.01,2013-09-17 23:42:00,
2013-09-17 19:43:00,42.5,38.0,30.38,NNE,26,0.0,0.0,84,0.00,,---,0.00,VWS V14.01,2013-09-17 23:43:00,
2013-09-17 19:44:00,42.5,38.0,30.38,NNE,26,0.0,0.0,84,0.00,,---,0.00,VWS V14.01,2013-09-17 23:44:00,
2013-09-17 19:45:00,42.5,38.0,30.38,NNE,26,0.0,0.0,84,0.00,,---,0.00,VWS V14.01,2013-09-17 23:45:00,
2013-09-17 19:46:00,42.5,38.0,30.38,NNE,25,0.0,0.0,84,0.00,,---,0.00,VWS V14.01,2013-09-17 23:46:00,
2013-09-17 19:48:00,44.6,39.1,30.37,NNE,25,1.0,1.0,81,0.00,,---,0.00,VWS V14.01,2013-09-17 23:48:00,
2013-09-17 19:49:00,42.6,37.5,30.38,NNE,26,0.0,0.0,82,0.00,,---,0.00,VWS V14.01,2013-09-17 23:49:00,
2013-09-17 19:50:00,42.6,37.5,30.38,NNE,26,0.0,0.0,82,0.00,,---,0.00,VWS V14.01,2013-09-17 23:50:00,
2013-09-17 19:51:00,42.5,37.4,30.38,NNE,26,0.0,0.0,82,0.00,,---,0.00,VWS V14.01,2013-09-17 23:51:00,
2013-09-17 19:52:00,42.5,37.4,30.38,NNE,26,0.0,0.0,82,0.00,,---,0.00,VWS V14.01,2013-09-17 23:52:00,
2013-09-17 19:53:00,42.5,37.4,30.38,NNE,26,0.0,0.0,82,0.00,,---,0.00,VWS V14.01,2013-09-17 23:53:00,
2013-09-17 19:54:00,42.5,37.4,30.38,NNE,26,0.0,0.0,82,0.00,,---,0.00,VWS V14.01,2013-09-17 23:54:00,
2013-09-17 19:55:00,42.5,37.4,30.38,NNE,25,0.0,0.0,82,0.00,,---,0.00,VWS V14.01,2013-09-17 23:55:00,
2013-09-17 19:56:00,44.4,38.9,30.37,NNE,26,0.0,0.0,81,0.00,,---,0.00,VWS V14.01,2013-09-17 23:56:00,
2013-09-17 19:57:00,42.6,37.5,30.38,NNE,25,0.0,0.0,82,0.00,,---,0.00,VWS V14.01,2013-09-17 23:57:00,
2013-09-17 19:58:00,42.7,37.6,30.38,NNE,25,0.0,0.0,82,0.00,,---,0.00,VWS V14.01,2013-09-17 23:58:00,
2013-09-17 19:59:00,42.7,37.6,30.38,NNE,26,0.0,0.0,82,0.00,,---,0.00,VWS V14.01,2013-09-17 23:59:00,
2013-09-17 20:00:00,42.9,37.5,30.38,NNE,26,0.0,0.0,81,0.00,,---,0.00,VWS V14.01,2013-09-18 00:00:00,
2013-09-17 20:01:00,44.3,38.5,30.37,NNE,26,0.0,0.0,80,0.00,,---,0.00,VWS V14.01,2013-09-18 00:01:00,
2013-09-17 20:02:00,43.1,37.7,30.38,NNE,26,0.0,0.0,81,0.00,,---,0.00,VWS V14.01,2013-09-18 00:02:00,
2013-09-17 20:03:00,43.2,37.8,30.38,NNE,25,0.0,0.0,81,0.00,,---,0.00,VWS V14.01,2013-09-18 00:03:00,
2013-09-17 20:04:00,43.2,38.1,30.38,NNE,26,0.0,0.0,82,0.00,,---,0.00,VWS V14.01,2013-09-18 00:04:00,
2013-09-17 20:05:00,43.2,38.1,30.38,NNE,26,0.0,0.0,82,0.00,,---,0.00,VWS V14.01,2013-09-18 00:05:00,
2013-09-17 20:06:00,43.7,38.0,30.37,NNE,25,0.0,0.0,80,0.00,,---,0.00,VWS V14.01,2013-09-18 00:06:00,
2013-09-17 20:07:00,43.1,38.0,30.37,NNE,26,0.0,0.0,82,0.00,,---,0.00,VWS V14.01,2013-09-18 00:07:00,
2013-09-17 20:08:00,43.1,38.0,30.38,NNE,26,0.0,0.0,82,0.00,,---,0.00,VWS V14.01,2013-09-18 00:08:00,
2013-09-17 20:09:00,42.9,37.8,30.38,NNE,26,0.0,0.0,82,0.00,,---,0.00,VWS V14.01,2013-09-18 00:09:00,
2013-09-17 20:10:00,42.8,37.7,30.38,NNE,26,0.0,0.0,82,0.00,,---,0.00,VWS V14.01,2013-09-18 00:10:00,
2013-09-17 20:11:00,42.7,37.6,30.38,NNE,26,0.0,0.0,82,0.00,,---,0.00,VWS V14.01,2013-09-18 00:11:00,
2013-09-17 20:12:00,42.7,37.3,30.38,NNE,25,0.0,0.0,81,0.00,,---,0.00,VWS V14.01,2013-09-18 00:12:00,
2013-09-17 20:13:00,42.4,37.6,30.38,NNE,25,0.0,0.0,83,0.00,,---,0.00,VWS V14.01,2013-09-18 00:13:00,
2013-09-17 20:14:00,42.3,37.5,30.38,NNE,25,0.0,0.0,83,0.00,,---,0.00,VWS V14.01,2013-09-18 00:14:00,
2013-09-17 20:15:00,42.2,37.4,30.38,NNE,25,0.0,0.0,83,0.00,,---,0.00,VWS V14.01,2013-09-18 00:15:00,
2013-09-17 20:16:00,41.9,37.1,30.38,NNE,26,0.0,0.0,83,0.00,,---,0.00,VWS V14.01,2013-09-18 00:16:00,
2013-09-17 20:17:00,41.8,37.0,30.38,NNE,25,0.0,0.0,83,0.00,,---,0.00,VWS V14.01,2013-09-18 00:17:00,
2013-09-17 20:18:00,42.3,38.1,30.38,NNE,26,0.0,0.0,85,0.00,,---,0.00,VWS V14.01,2013-09-18 00:18:00,
2013-09-17 20:19:00,41.5,37.0,30.37,NNE,25,0.0,0.0,84,0.00,,---,0.00,VWS V14.01,2013-09-18 00:19:00,
2013-09-17 20:20:00,41.5,37.3,30.38,NNE,26,0.0,0.0,85,0.00,,---,0.00,VWS V14.01,2013-09-18 00:20:00,
2013-09-17 20:21:00,41.4,37.2,30.37,NNE,26,0.0,0.0,85,0.00,,---,0.00,VWS V14.01,2013-09-18 00:21:00,
2013-09-17 20:22:00,41.4,37.5,30.37,NNE,26,0.0,0.0,86,0.00,,---,0.00,VWS V14.01,2013-09-18 00:22:00,
2013-09-17 20:23:00,42.5,38.0,30.38,NNE,25,0.0,0.0,84,0.00,,---,0.00,VWS V14.01,2013-09-18 00:23:00,
2013-09-17 20:24:00,41.4,37.5,30.38,NNE,25,0.0,0.0,86,0.00,,---,0.00,VWS V14.01,2013-09-18 00:24:00,
2013-09-17 20:25:00,41.5,37.3,30.38,NNE,26,0.0,0.0,85,0.00,,---,0.00,VWS V14.01,2013-09-18 00:25:00,
2013-09-17 20:26:00,41.6,37.4,30.38,NNE,26,0.0,0.0,85,0.00,,---,0.00,VWS V14.01,2013-09-18 00:26:00,
2013-09-17 20:27:00,41.7,37.5,30.38,NNE,25,0.0,0.0,85,0.00,,---,0.00,VWS V14.01,2013-09-18 00:27:00,
2013-09-17 20:28:00,41.9,37.4,30.37,NNE,26,1.0,1.0,84,0.00,,---,0.00,VWS V14.01,2013-09-18 00:28:00,
2013-09-17 20:29:00,42.6,37.8,30.38,NNE,26,0.0,0.0,83,0.00,,---,0.00,VWS V14.01,2013-09-18 00:29:00,
2013-09-17 20:30:00,42.4,37.6,30.38,NNE,26,0.0,1.0,83,0.00,,---,0.00,VWS V14.01,2013-09-18 00:30:00,
2013-09-17 20:31:00,42.7,37.6,30.38,NNE,25,0.0,1.0,82,0.00,,---,0.00,VWS V14.01,2013-09-18 00:31:00,
2013-09-17 20:32:00,42.9,37.5,30.38,NNE,26,0.0,1.0,81,0.00,,---,0.00,VWS V14.01,2013-09-18 00:32:00,
2013-09-17 20:33:00,43.0,37.6,30.38,NNE,25,0.0,1.0,81,0.00,,---,0.00,VWS V14.01,2013-09-18 00:33:00,
2013-09-17 20:34:00,42.5,37.4,30.38,NNE,26,0.0,0.0,82,0.00,,---,0.00,VWS V14.01,2013-09-18 00:34:00,
2013-09-17 20:35:00,43.3,37.6,30.37,NNE,26,0.0,0.0,80,0.00,,---,0.00,VWS V14.01,2013-09-18 00:35:00,
2013-09-17 20:36:00,43.4,37.7,30.37,NNE,26,0.0,1.0,80,0.00,,---,0.00,VWS V14.01,2013-09-18 00:36:00,
2013-09-17 20:37:00,43.6,37.5,30.37,ENE,64,1.0,1.0,79,0.00,,---,0.00,VWS V14.01,2013-09-18 00:37:00,
2013-09-17 20:38:00,43.7,37.6,30.37,ENE,72,1.0,1.0,79,0.00,,---,0.00,VWS V14.01,2013-09-18 00:38:00,
2013-09-17 20:39:00,42.7,37.6,30.38,NNE,25,0.0,0.0,82,0.00,,---,0.00,VWS V14.01,2013-09-18 00:39:00,
2013-09-17 20:40:00,44.0,37.9,30.37,ENE,72,0.0,1.0,79,0.00,,---,0.00,VWS V14.01,2013-09-18 00:40:00,
2013-09-17 20:41:00,44.0,38.2,30.38,ENE,72,0.0,1.0,80,0.00,,---,0.00,VWS V14.01,2013-09-18 00:41:00,
2013-09-17 20:42:00,43.9,38.1,30.38,ENE,72,0.0,1.0,80,0.00,,---,0.00,VWS V14.01,2013-09-18 00:42:00,
2013-09-17 20:43:00,43.7,37.9,30.38,ENE,72,0.0,1.0,80,0.00,,---,0.00,VWS V14.01,2013-09-18 00:43:00,
2013-09-17 20:44:00,43.2,37.8,30.38,NNE,25,0.0,0.0,81,0.00,,---,0.00,VWS V14.01,2013-09-18 00:44:00,
2013-09-17 20:45:00,43.4,37.7,30.38,ENE,72,0.0,0.0,80,0.00,,---,0.00,VWS V14.01,2013-09-18 00:45:00,
2013-09-17 20:46:00,43.3,37.6,30.38,ENE,72,0.0,1.0,80,0.00,,---,0.00,VWS V14.01,2013-09-18 00:46:00,
2013-09-17 20:47:00,43.2,37.8,30.38,ENE,72,0.0,1.0,81,0.00,,---,0.00,VWS V14.01,2013-09-18 00:47:00,
2013-09-17 20:48:00,43.1,37.7,30.38,ENE,72,0.0,1.0,81,0.00,,---,0.00,VWS V14.01,2013-09-18 00:48:00,
2013-09-17 20:49:00,43.1,37.7,30.38,ENE,72,0.0,1.0,81,0.00,,---,0.00,VWS V14.01,2013-09-18 00:49:00,
2013-09-17 20:50:00,43.1,37.7,30.38,ENE,72,0.0,1.0,81,0.00,,---,0.00,VWS V14.01,2013-09-18 00:50:00,
2013-09-17 20:51:00,42.8,37.7,30.38,NNE,26,0.0,0.0,82,0.00,,---,0.00,VWS V14.01,2013-09-18 00:51:00,
2013-09-17 20:52:00,43.2,37.8,30.38,ENE,72,0.0,0.0,81,0.00,,---,0.00,VWS V14.01,2013-09-18 00:52:00,
2013-09-17 20:53:00,43.2,37.5,30.38,ENE,72,0.0,0.0,80,0.00,,---,0.00,VWS V14.01,2013-09-18 00:53:00,
2013-09-17 20:54:00,43.3,37.6,30.38,ENE,72,1.0,1.0,80,0.00,,---,0.00,VWS V14.01,2013-09-18 00:54:00,
2013-09-17 20:55:00,43.3,37.6,30.37,ENE,72,1.0,1.0,80,0.00,,---,0.00,VWS V14.01,2013-09-18 00:55:00,
2013-09-17 20:56:00,42.2,37.4,30.38,NNE,25,0.0,0.0,83,0.00,,---,0.00,VWS V14.01,2013-09-18 00:56:00,
2013-09-17 20:57:00,43.7,37.6,30.37,ENE,72,0.0,1.0,79,0.00,,---,0.00,VWS V14.01,2013-09-18 00:57:00,
2013-09-17 20:58:00,43.9,37.8,30.38,ENE,72,0.0,1.0,79,0.00,,---,0.00,VWS V14.01,2013-09-18 00:58:00,
2013-09-17 20:59:00,44.1,37.7,30.38,ENE,72,0.0,1.0,78,0.00,,---,0.00,VWS V14.01,2013-09-18 00:59:00,
2013-09-17 21:00:00,44.2,37.8,30.38,ENE,72,0.0,1.0,78,0.00,,---,0.00,VWS V14.01,2013-09-18 01:00:00,
2013-09-17 21:01:00,41.5,37.3,30.38,NNE,26,0.0,0.0,85,0.00,,---,0.00,VWS V14.01,2013-09-18 01:01:00,
2013-09-17 21:02:00,44.0,37.9,30.37,ENE,72,0.0,0.0,79,0.00,,---,0.00,VWS V14.01,2013-09-18 01:02:00,
2013-09-17 21:03:00,43.9,37.8,30.38,ENE,72,0.0,0.0,79,0.00,,---,0.00,VWS V14.01,2013-09-18 01:03:00,
2013-09-17 21:04:00,43.6,37.8,30.37,ENE,72,0.0,0.0,80,0.00,,---,0.00,VWS V14.01,2013-09-18 01:04:00,
2013-09-17 21:05:00,43.5,37.8,30.38,ENE,72,0.0,0.0,80,0.00,,---,0.00,VWS V14.01,2013-09-18 01:05:00,
2013-09-17 21:06:00,41.5,37.3,30.38,NNE,26,0.0,0.0,85,0.00,,---,0.00,VWS V14.01,2013-09-18 01:06:00,
2013-09-17 21:07:00,43.1,37.7,30.38,ENE,72,0.0,0.0,81,0.00,,---,0.00,VWS V14.01,2013-09-18 01:07:00,
2013-09-17 21:08:00,43.0,37.6,30.38,ENE,72,0.0,0.0,81,0.00,,---,0.00,VWS V14.01,2013-09-18 01:08:00,
2013-09-17 21:09:00,42.8,37.4,30.38,ENE,72,0.0,0.0,81,0.00,,---,0.00,VWS V14.01,2013-09-18 01:09:00,
2013-09-17 21:10:00,42.7,37.3,30.37,ENE,72,0.0,0.0,81,0.00,,---,0.00,VWS V14.01,2013-09-18 01:10:00,
2013-09-17 21:11:00,42.4,37.6,30.38,NNE,26,0.0,1.0,83,0.00,,---,0.00,VWS V14.01,2013-09-18 01:11:00,
2013-09-17 21:12:00,42.4,37.3,30.37,ENE,72,0.0,0.0,82,0.00,,---,0.00,VWS V14.01,2013-09-18 01:12:00,
2013-09-17 21:13:00,42.4,37.3,30.37,ENE,72,0.0,0.0,82,0.00,,---,0.00,VWS V14.01,2013-09-18 01:13:00,
2013-09-17 21:14:00,42.3,37.2,30.37,ENE,72,0.0,0.0,82,0.00,,---,0.00,VWS V14.01,2013-09-18 01:14:00,
2013-09-17 21:15:00,42.2,37.1,30.38,ENE,72,0.0,0.0,82,0.00,,---,0.00,VWS V14.01,2013-09-18 01:15:00,
2013-09-17 21:16:00,43.3,37.6,30.37,NNE,26,0.0,0.0,80,0.00,,---,0.00,VWS V14.01,2013-09-18 01:16:00,
2013-09-17 21:17:00,42.2,37.4,30.38,ENE,72,0.0,1.0,83,0.00,,---,0.00,VWS V14.01,2013-09-18 01:17:00,
2013-09-17 21:18:00,42.2,37.4,30.38,ENE,72,0.0,1.0,83,0.00,,---,0.00,VWS V14.01,2013-09-18 01:18:00,
2013-09-17 21:19:00,42.2,37.4,30.37,ENE,72,0.0,1.0,83,0.00,,---,0.00,VWS V14.01,2013-09-18 01:19:00,
2013-09-17 21:20:00,42.3,37.5,30.37,ENE,72,0.0,1.0,83,0.00,,---,0.00,VWS V14.01,2013-09-18 01:20:00,
2013-09-17 21:21:00,44.0,37.9,30.37,ENE,72,0.0,1.0,79,0.00,,---,0.00,VWS V14.01,2013-09-18 01:21:00,
2013-09-17 21:22:00,42.5,37.4,30.38,ENE,72,0.0,1.0,82,0.00,,---,0.00,VWS V14.01,2013-09-18 01:22:00,
2013-09-17 21:23:00,42.7,37.6,30.38,ENE,72,0.0,1.0,82,0.00,,---,0.00,VWS V14.01,2013-09-18 01:23:00,
2013-09-17 21:24:00,42.8,37.7,30.37,East,86,1.0,1.0,82,0.00,,---,0.00,VWS V14.01,2013-09-18 01:24:00,
2013-09-17 21:25:00,42.9,37.5,30.37,East,86,1.0,1.0,81,0.00,,---,0.00,VWS V14.01,2013-09-18 01:25:00,
2013-09-17 21:26:00,43.4,37.7,30.38,ENE,72,0.0,0.0,80,0.00,,---,0.00,VWS V14.01,2013-09-18 01:26:00,
2013-09-17 21:27:00,43.1,37.7,30.38,East,86,1.0,1.0,81,0.00,,---,0.00,VWS V14.01,2013-09-18 01:27:00,
2013-09-17 21:28:00,43.2,38.1,30.38,East,86,1.0,1.0,82,0.00,,---,0.00,VWS V14.01,2013-09-18 01:28:00,
2013-09-17 21:29:00,43.0,37.9,30.38,East,86,1.0,1.0,82,0.00,,---,0.00,VWS V14.01,2013-09-18 01:29:00,
2013-09-17 21:30:00,42.8,38.0,30.38,East,86,0.0,1.0,83,0.00,,---,0.00,VWS V14.01,2013-09-18 01:30:00,
2013-09-17 21:31:00,43.1,37.7,30.38,ENE,72,0.0,1.0,81,0.00,,---,0.00,VWS V14.01,2013-09-18 01:31:00,
2013-09-17 21:32:00,42.7,37.6,30.38,East,86,0.0,1.0,82,0.00,,---,0.00,VWS V14.01,2013-09-18 01:32:00,
2013-09-17 21:33:00,42.8,37.7,30.38,East,86,0.0,1.0,82,0.00,,---,0.00,VWS V14.01,2013-09-18 01:33:00,
2013-09-17 21:34:00,42.8,37.7,30.38,East,86,0.0,1.0,82,0.00,,---,0.00,VWS V14.01,2013-09-18 01:34:00,
2013-09-17 21:35:00,42.9,37.5,30.37,East,86,0.0,1.0,81,0.00,,---,0.00,VWS V14.01,2013-09-18 01:35:00,
2013-09-17 21:36:00,43.3,37.6,30.37,ENE,72,1.0,1.0,80,0.00,,---,0.00,VWS V14.01,2013-09-18 01:36:00,
2013-09-17 21:37:00,43.0,37.6,30.38,East,86,0.0,0.0,81,0.00,,---,0.00,VWS V14.01,2013-09-18 01:37:00,
2013-09-17 21:38:00,43.1,37.7,30.38,East,86,0.0,0.0,81,0.00,,---,0.00,VWS V14.01,2013-09-18 01:38:00,
2013-09-17 21:39:00,43.1,37.7,30.38,East,86,0.0,0.0,81,0.00,,---,0.00,VWS V14.01,2013-09-18 01:39:00,
2013-09-17 21:40:00,43.2,37.5,30.38,East,86,0.0,0.0,80,0.00,,---,0.00,VWS V14.01,2013-09-18 01:40:00,
2013-09-17 21:41:00,44.2,37.8,30.38,ENE,72,0.0,1.0,78,0.00,,---,0.00,VWS V14.01,2013-09-18 01:41:00,
2013-09-17 21:42:00,43.2,37.5,30.38,East,86,0.0,1.0,80,0.00,,---,0.00,VWS V14.01,2013-09-18 01:42:00,
2013-09-17 21:43:00,43.2,37.5,30.38,East,86,0.0,1.0,80,0.00,,---,0.00,VWS V14.01,2013-09-18 01:43:00,
2013-09-17 21:44:00,43.2,37.5,30.38,East,86,1.0,1.0,80,0.00,,---,0.00,VWS V14.01,2013-09-18 01:44:00,
2013-09-17 21:45:00,43.1,37.7,30.38,East,86,1.0,1.0,81,0.00,,---,0.00,VWS V14.01,2013-09-18 01:45:00,
2013-09-17 21:46:00,43.0,37.9,30.38,East,86,1.0,1.0,82,0.00,,---,0.00,VWS V14.01,2013-09-18 01:46:00,
2013-09-17 21:47:00,43.3,37.6,30.37,ENE,72,0.0,0.0,80,0.00,,---,0.00,VWS V14.01,2013-09-18 01:47:00,
2013-09-17 21:48:00,42.8,37.7,30.38,East,86,0.0,1.0,82,0.00,,---,0.00,VWS V14.01,2013-09-18 01:48:00,
2013-09-17 21:49:00,42.8,37.7,30.38,East,86,0.0,1.0,82,0.00,,---,0.00,VWS V14.01,2013-09-18 01:49:00,
2013-09-17 21:50:00,42.8,37.7,30.38,East,86,0.0,1.0,82,0.00,,---,0.00,VWS V14.01,2013-09-18 01:50:00,
2013-09-17 21:51:00,42.8,37.7,30.38,East,84,0.0,1.0,82,0.00,,---,0.00,VWS V14.01,2013-09-18 01:51:00,
2013-09-17 21:52:00,42.5,37.1,30.37,ENE,72,0.0,0.0,81,0.00,,---,0.00,VWS V14.01,2013-09-18 01:52:00,
2013-09-17 21:53:00,42.9,37.5,30.38,East,86,0.0,0.0,81,0.00,,---,0.00,VWS V14.01,2013-09-18 01:53:00,
2013-09-17 21:54:00,43.0,37.6,30.38,East,86,0.0,1.0,81,0.00,,---,0.00,VWS V14.01,2013-09-18 01:54:00,
2013-09-17 21:55:00,43.1,37.7,30.38,East,86,0.0,1.0,81,0.00,,---,0.00,VWS V14.01,2013-09-18 01:55:00,
2013-09-17 21:56:00,43.2,37.5,30.38,East,86,0.0,1.0,80,0.00,,---,0.00,VWS V14.01,2013-09-18 01:56:00,
2013-09-17 21:57:00,42.2,37.1,30.38,ENE,72,0.0,1.0,82,0.00,,---,0.00,VWS V14.01,2013-09-18 01:57:00,
2013-09-17 21:58:00,43.3,37.6,30.38,East,86,0.0,1.0,80,0.00,,---,0.00,VWS V14.01,2013-09-18 01:58:00,
2013-09-17 21:59:00,43.3,37.6,30.38,East,84,0.0,0.0,80,0.00,,---,0.00,VWS V14.01,2013-09-18 01:59:00,
2013-09-17 22:00:00,43.3,37.6,30.38,East,85,0.0,1.0,80,0.00,,---,0.00,VWS V14.01,2013-09-18 02:00:00,
2013-09-17 22:01:00,43.4,37.7,30.38,East,86,0.0,1.0,80,0.00,,---,0.00,VWS V14.01,2013-09-18 02:01:00,
2013-09-17 22:02:00,42.3,37.5,30.38,ENE,72,1.0,1.0,83,0.00,,---,0.00,VWS V14.01,2013-09-18 02:02:00,
2013-09-17 22:03:00,43.5,37.4,30.38,East,86,0.0,1.0,79,0.00,,---,0.00,VWS V14.01,2013-09-18 02:03:00,
2013-09-17 22:04:00,43.6,37.5,30.38,East,86,0.0,1.0,79,0.00,,---,0.00,VWS V14.01,2013-09-18 02:04:00,
2013-09-17 22:05:00,43.6,37.5,30.38,East,88,1.0,1.0,79,0.00,,---,0.00,VWS V14.01,2013-09-18 02:05:00,
2013-09-17 22:06:00,43.5,37.4,30.38,ESE,104,1.0,1.0,79,0.00,,---,0.00,VWS V14.01,2013-09-18 02:06:00,
2013-09-17 22:07:00,43.0,37.6,30.38,East,86,1.0,1.0,81,0.00,,---,0.00,VWS V14.01,2013-09-18 02:07:00,
2013-09-17 22:08:00,43.3,37.6,30.37,ESE,104,0.0,1.0,80,0.00,,---,0.00,VWS V14.01,2013-09-18 02:08:00,
2013-09-17 22:09:00,43.2,37.5,30.38,ESE,104,1.0,1.0,80,0.00,,---,0.00,VWS V14.01,2013-09-18 02:09:00,
2013-09-17 22:10:00,43.0,37.9,30.38,East,91,1.0,2.0,82,0.00,,---,0.00,VWS V14.01,2013-09-18 02:10:00,
2013-09-17 22:11:00,42.8,37.7,30.37,East,91,1.0,2.0,82,0.00,,---,0.00,VWS V14.01,2013-09-18 02:11:00,
2013-09-17 22:12:00,42.7,37.9,30.38,East,86,0.0,1.0,83,0.00,,---,0.00,VWS V14.01,2013-09-18 02:12:00,
2013-09-17 22:13:00,42.4,37.6,30.37,East,91,1.0,2.0,83,0.00,,---,0.00,VWS V14.01,2013-09-18 02:13:00,
2013-09-17 22:14:00,42.3,37.5,30.37,East,92,1.0,2.0,83,0.00,,---,0.00,VWS V14.01,2013-09-18 02:14:00,
2013-09-17 22:15:00,42.2,37.4,30.37,East,92,0.0,2.0,83,0.00,,---,0.00,VWS V14.01,2013-09-18 02:15:00,
2013-09-17 22:16:00,42.1,37.3,30.37,East,91,1.0,2.0,83,0.00,,---,0.00,VWS V14.01,2013-09-18 02:16:00,
2013-09-17 22:17:00,42.9,37.5,30.37,East,85,0.0,0.0,81,0.00,,---,0.00,VWS V14.01,2013-09-18 02:17:00,
2013-09-17 22:18:00,41.9,37.1,30.37,East,86,1.0,2.0,83,0.00,,---,0.00,VWS V14.01,2013-09-18 02:18:00,
2013-09-17 22:19:00,41.8,37.3,30.38,East,90,1.0,2.0,84,0.00,,---,0.00,VWS V14.01,2013-09-18 02:19:00,
2013-09-17 22:20:00,43.0,37.3,30.37,East,82,0.0,0.0,80,0.00,,---,0.00,VWS V14.01,2013-09-18 02:20:00,
2013-09-17 22:21:00,42.8,37.1,30.37,East,82,0.0,0.0,80,0.00,,---,0.00,VWS V14.01,2013-09-18 02:21:00,
2013-09-17 22:22:00,42.7,37.3,30.37,East,82,0.0,0.0,81,0.00,,---,0.00,VWS V14.01,2013-09-18 02:22:00,
2013-09-17 22:23:00,43.2,37.5,30.38,East,86,0.0,1.0,80,0.00,,---,0.00,VWS V14.01,2013-09-18 02:23:00,
2013-09-17 22:24:00,42.5,37.1,30.37,East,82,0.0,0.0,81,0.00,,---,0.00,VWS V14.01,2013-09-18 02:24:00,
2013-09-17 22:25:00,42.5,37.1,30.37,East,82,0.0,0.0,81,0.00,,---,0.00,VWS V14.01,2013-09-18 02:25:00,
2013-09-17 22:26:00,42.5,37.1,30.37,East,82,0.0,0.0,81,0.00,,---,0.00,VWS V14.01,2013-09-18 02:26:00,
2013-09-17 22:27:00,42.6,37.2,30.37,East,82,0.0,0.0,81,0.00,,---,0.00,VWS V14.01,2013-09-18 02:27:00,
2013-09-17 22:28:00,42.9,37.8,30.38,East,86,0.0,1.0,82,0.00,,---,0.00,VWS V14.01,2013-09-18 02:28:00,
2013-09-17 22:29:00,42.7,37.3,30.37,East,84,0.0,0.0,81,0.00,,---,0.00,VWS V14.01,2013-09-18 02:29:00,
2013-09-17 22:30:00,42.9,37.2,30.37,East,82,0.0,0.0,80,0.00,,---,0.00,VWS V14.01,2013-09-18 02:30:00,
2013-09-17 22:31:00,43.0,37.3,30.37,East,82,0.0,0.0,80,0.00,,---,0.00,VWS V14.01,2013-09-18 02:31:00,
2013-09-17 22:32:00,43.1,37.4,30.37,East,82,0.0,0.0,80,0.00,,---,0.00,VWS V14.01,2013-09-18 02:32:00,
2013-09-17 22:33:00,42.8,37.4,30.38,East,86,0.0,0.0,81,0.00,,---,0.00,VWS V14.01,2013-09-18 02:33:00,
2013-09-17 22:34:00,43.3,37.2,30.37,East,82,0.0,0.0,79,0.00,,---,0.00,VWS V14.01,2013-09-18 02:34:00,
2013-09-17 22:35:00,43.5,37.4,30.37,East,82,0.0,0.0,79,0.00,,---,0.00,VWS V14.01,2013-09-18 02:35:00,
2013-09-17 22:36:00,43.5,37.4,30.37,East,84,0.0,0.0,79,0.00,,---,0.00,VWS V14.01,2013-09-18 02:36:00,
2013-09-17 22:37:00,43.6,37.5,30.37,East,82,1.0,1.0,79,0.00,,---,0.00,VWS V14.01,2013-09-18 02:37:00,
2013-09-17 22:38:00,43.3,37.6,30.38,East,86,0.0,1.0,80,0.00,,---,0.00,VWS V14.01,2013-09-18 02:38:00,
2013-09-17 22:39:00,43.3,37.2,30.37,East,83,1.0,1.0,79,0.00,,---,0.00,VWS V14.01,2013-09-18 02:39:00,
2013-09-17 22:40:00,43.1,37.4,30.37,East,92,1.0,1.0,80,0.00,,---,0.00,VWS V14.01,2013-09-18 02:40:00,
2013-09-17 22:41:00,43.0,37.3,30.37,East,92,1.0,2.0,80,0.00,,---,0.00,VWS V14.01,2013-09-18 02:41:00,
2013-09-17 22:42:00,42.9,37.5,30.37,East,85,1.0,2.0,81,0.00,,---,0.00,VWS V14.01,2013-09-18 02:42:00,
2013-09-17 22:43:00,43.4,37.7,30.38,East,86,1.0,1.0,80,0.00,,---,0.00,VWS V14.01,2013-09-18 02:43:00,
2013-09-17 22:44:00,42.8,37.7,30.37,East,85,1.0,2.0,82,0.00,,---,0.00,VWS V14.01,2013-09-18 02:44:00,
2013-09-17 22:45:00,42.8,37.7,30.37,East,85,1.0,2.0,82,0.00,,---,0.00,VWS V14.01,2013-09-18 02:45:00,
2013-09-17 22:46:00,42.8,37.7,30.37,East,85,0.0,2.0,82,0.00,,---,0.00,VWS V14.01,2013-09-18 02:46:00,
2013-09-17 22:47:00,42.9,37.8,30.37,East,85,0.0,1.0,82,0.00,,---,0.00,VWS V14.01,2013-09-18 02:47:00,
2013-09-17 22:48:00,43.4,37.3,30.37,ESE,104,0.0,1.0,79,0.00,,---,0.00,VWS V14.01,2013-09-18 02:48:00,
2013-09-17 22:49:00,43.1,38.0,30.36,East,85,0.0,1.0,82,0.00,,---,0.00,VWS V14.01,2013-09-18 02:49:00,
2013-09-17 22:50:00,43.1,38.0,30.36,East,85,0.0,1.0,82,0.00,,---,0.00,VWS V14.01,2013-09-18 02:50:00,
2013-09-17 22:51:00,43.1,38.0,30.36,East,84,0.0,1.0,82,0.00,,---,0.00,VWS V14.01,2013-09-18 02:51:00,
2013-09-17 22:52:00,43.1,37.7,30.36,East,84,0.0,1.0,81,0.00,,---,0.00,VWS V14.01,2013-09-18 02:52:00,
2013-09-17 22:53:00,43.1,37.7,30.36,East,84,0.0,0.0,81,0.00,,---,0.00,VWS V14.01,2013-09-18 02:53:00,
2013-09-17 22:54:00,42.4,37.6,30.37,East,91,1.0,2.0,83,0.00,,---,0.00,VWS V14.01,2013-09-18 02:54:00,
2013-09-17 22:55:00,43.1,38.0,30.36,East,85,1.0,1.0,82,0.00,,---,0.00,VWS V14.01,2013-09-18 02:55:00,
2013-09-17 22:56:00,43.2,38.1,30.36,East,84,0.0,1.0,82,0.00,,---,0.00,VWS V14.01,2013-09-18 02:56:00,
2013-09-17 22:57:00,43.3,38.2,30.36,East,84,0.0,1.0,82,0.00,,---,0.00,VWS V14.01,2013-09-18 02:57:00,
2013-09-17 22:58:00,43.5,38.4,30.36,East,84,0.0,1.0,82,0.00,,---,0.00,VWS V14.01,2013-09-18 02:58:00,
2013-09-17 22:59:00,43.6,38.5,30.36,East,85,0.0,1.0,82,0.00,,---,0.00,VWS V14.01,2013-09-18 02:59:00,
2013-09-17 23:00:00,41.8,37.3,30.38,East,90,1.0,2.0,84,0.00,,---,0.00,VWS V14.01,2013-09-18 03:00:00,
2013-09-17 23:01:00,43.8,38.4,30.36,East,85,0.0,0.0,81,0.00,,---,0.00,VWS V14.01,2013-09-18 03:01:00,
2013-09-17 23:02:00,43.8,38.4,30.36,East,85,0.0,0.0,81,0.00,,---,0.00,VWS V14.01,2013-09-18 03:02:00,
2013-09-17 23:03:00,43.8,38.4,30.36,East,85,0.0,0.0,81,0.00,,---,0.00,VWS V14.01,2013-09-18 03:03:00,
2013-09-17 23:04:00,43.8,38.4,30.36,East,84,0.0,0.0,81,0.00,,---,0.00,VWS V14.01,2013-09-18 03:04:00,
2013-09-17 23:05:00,41.2,37.3,30.37,East,85,1.0,1.0,86,0.00,,---,0.00,VWS V14.01,2013-09-18 03:05:00,
2013-09-17 23:06:00,43.9,38.5,30.36,East,84,0.0,0.0,81,0.00,,---,0.00,VWS V14.01,2013-09-18 03:06:00,
2013-09-17 23:07:00,43.9,38.5,30.36,East,85,0.0,0.0,81,0.00,,---,0.00,VWS V14.01,2013-09-18 03:07:00,
2013-09-17 23:08:00,43.9,38.5,30.36,East,85,0.0,0.0,81,0.00,,---,0.00,VWS V14.01,2013-09-18 03:08:00,
2013-09-17 23:09:00,43.9,38.5,30.36,East,85,0.0,0.0,81,0.00,,---,0.00,VWS V14.01,2013-09-18 03:09:00,
2013-09-17 23:10:00,41.7,37.5,30.37,East,84,0.0,2.0,85,0.00,,---,0.00,VWS V14.01,2013-09-18 03:10:00,
2013-09-17 23:11:00,44.0,38.5,30.36,East,85,0.0,0.0,81,0.00,,---,0.00,VWS V14.01,2013-09-18 03:11:00,
2013-09-17 23:12:00,44.0,38.5,30.36,East,84,0.0,0.0,81,0.00,,---,0.00,VWS V14.01,2013-09-18 03:12:00,
2013-09-17 23:13:00,44.1,38.7,30.36,East,85,0.0,0.0,81,0.00,,---,0.00,VWS V14.01,2013-09-18 03:13:00,
2013-09-17 23:14:00,44.1,38.7,30.36,East,84,0.0,0.0,81,0.00,,---,0.00,VWS V14.01,2013-09-18 03:14:00,
2013-09-17 23:15:00,42.6,37.5,30.37,East,86,1.0,2.0,82,0.00,,---,0.00,VWS V14.01,2013-09-18 03:15:00,
2013-09-17 23:16:00,44.0,38.5,30.36,East,85,0.0,1.0,81,0.00,,---,0.00,VWS V14.01,2013-09-18 03:16:00,
2013-09-17 23:17:00,44.0,38.5,30.36,East,85,0.0,1.0,81,0.00,,---,0.00,VWS V14.01,2013-09-18 03:17:00,
2013-09-17 23:18:00,44.0,38.5,30.36,East,85,0.0,1.0,81,0.00,,---,0.00,VWS V14.01,2013-09-18 03:18:00,
2013-09-17 23:19:00,43.9,38.5,30.36,East,85,0.0,1.0,81,0.00,,---,0.00,VWS V14.01,2013-09-18 03:19:00,
2013-09-17 23:20:00,43.9,38.5,30.36,East,84,0.0,0.0,81,0.00,,---,0.00,VWS V14.01,2013-09-18 03:20:00,
2013-09-17 23:21:00,42.7,37.3,30.37,East,82,0.0,1.0,81,0.00,,---,0.00,VWS V14.01,2013-09-18 03:21:00,
2013-09-17 23:22:00,43.9,38.5,30.36,East,84,0.0,0.0,81,0.00,,---,0.00,VWS V14.01,2013-09-18 03:22:00,
2013-09-17 23:23:00,43.9,38.8,30.36,East,84,0.0,0.0,82,0.00,,---,0.00,VWS V14.01,2013-09-18 03:23:00,
2013-09-17 23:24:00,44.0,38.9,30.36,East,85,0.0,1.0,82,0.00,,---,0.00,VWS V14.01,2013-09-18 03:24:00,
2013-09-17 23:25:00,44.1,39.0,30.36,East,84,0.0,1.0,82,0.00,,---,0.00,VWS V14.01,2013-09-18 03:25:00,
2013-09-17 23:26:00,42.7,37.3,30.37,East,82,1.0,1.0,81,0.00,,---,0.00,VWS V14.01,2013-09-18 03:26:00,
2013-09-17 23:27:00,44.3,38.8,30.36,East,84,0.0,1.0,81,0.00,,---,0.00,VWS V14.01,2013-09-18 03:27:00,
2013-09-17 23:28:00,42.6,37.2,30.37,East,82,0.0,0.0,81,0.00,,---,0.00,VWS V14.01,2013-09-18 03:28:00,
2013-09-17 23:29:00,44.5,39.0,30.36,East,84,0.0,0.0,81,0.00,,---,0.00,VWS V14.01,2013-09-18 03:29:00,
2013-09-17 23:30:00,42.9,37.2,30.37,East,82,0.0,0.0,80,0.00,,---,0.00,VWS V14.01,2013-09-18 03:30:00,
2013-09-17 23:31:00,44.5,39.0,30.36,East,84,0.0,0.0,81,0.00,,---,0.00,VWS V14.01,2013-09-18 03:31:00,
2013-09-17 23:32:00,42.6,37.5,30.37,East,82,0.0,2.0,82,0.00,,---,0.00,VWS V14.01,2013-09-18 03:32:00,
2013-09-17 23:33:00,44.5,38.7,30.35,East,85,0.0,0.0,80,0.00,,---,0.00,VWS V14.01,2013-09-18 03:33:00,
2013-09-17 23:34:00,44.4,38.6,30.35,East,84,0.0,0.0,80,0.00,,---,0.00,VWS V14.01,2013-09-18 03:34:00,
2013-09-17 23:35:00,43.5,37.4,30.37,East,82,0.0,0.0,79,0.00,,---,0.00,VWS V14.01,2013-09-18 03:35:00,
2013-09-17 23:36:00,43.5,37.4,30.37,East,84,0.0,0.0,79,0.00,,---,0.00,VWS V14.01,2013-09-18 03:36:00,
2013-09-17 23:37:00,42.5,37.4,30.37,East,82,0.0,1.0,82,0.00,,---,0.00,VWS V14.01,2013-09-18 03:37:00,
2013-09-17 23:38:00,44.2,38.8,30.36,East,85,0.0,0.0,81,0.00,,---,0.00,VWS V14.01,2013-09-18 03:38:00,
2013-09-17 23:39:00,44.1,38.7,30.36,East,85,0.0,0.0,81,0.00,,---,0.00,VWS V14.01,2013-09-18 03:39:00,
2013-09-17 23:40:00,44.0,38.5,30.36,East,84,0.0,0.0,81,0.00,,---,0.00,VWS V14.01,2013-09-18 03:40:00,
2013-09-17 23:41:00,43.0,37.3,30.37,East,92,1.0,2.0,80,0.00,,---,0.00,VWS V14.01,2013-09-18 03:41:00,
2013-09-17 23:42:00,43.4,37.7,30.37,East,82,0.0,1.0,80,0.00,,---,0.00,VWS V14.01,2013-09-18 03:42:00,
2013-09-17 23:43:00,43.9,38.8,30.36,East,85,0.0,0.0,82,0.00,,---,0.00,VWS V14.01,2013-09-18 03:43:00,
2013-09-17 23:44:00,43.8,38.7,30.36,East,85,0.0,0.0,82,0.00,,---,0.00,VWS V14.01,2013-09-18 03:44:00,
2013-09-17 23:45:00,42.8,37.7,30.37,East,85,1.0,2.0,82,0.00,,---,0.00,VWS V14.01,2013-09-18 03:45:00,
2013-09-17 23:46:00,42.8,37.7,30.37,East,85,0.0,2.0,82,0.00,,---,0.00,VWS V14.01,2013-09-18 03:46:00,
2013-09-17 23:47:00,43.7,37.6,30.37,East,82,0.0,1.0,79,0.00,,---,0.00,VWS V14.01,2013-09-18 03:47:00,
2013-09-17 23:48:00,43.5,38.4,30.36,East,84,0.0,0.0,82,0.00,,---,0.00,VWS V14.01,2013-09-18 03:48:00,
2013-09-17 23:49:00,43.4,38.3,30.36,East,85,0.0,0.0,82,0.00,,---,0.00,VWS V14.01,2013-09-18 03:49:00,
2013-09-17 23:50:00,43.3,38.2,30.36,East,85,0.0,0.0,82,0.00,,---,0.00,VWS V14.01,2013-09-18 03:50:00,
2013-09-17 23:51:00,43.1,38.0,30.36,East,84,0.0,1.0,82,0.00,,---,0.00,VWS V14.01,2013-09-18 03:51:00,
2013-09-17 23:52:00,43.9,37.5,30.37,East,82,0.0,0.0,78,0.00,,---,0.00,VWS V14.01,2013-09-18 03:52:00,
2013-09-17 23:53:00,43.3,38.5,30.36,East,85,0.0,0.0,83,0.00,,---,0.00,VWS V14.01,2013-09-18 03:53:00,
2013-09-17 23:54:00,43.3,38.5,30.36,East,84,0.0,0.0,83,0.00,,---,0.00,VWS V14.01,2013-09-18 03:54:00,
2013-09-17 23:55:00,43.3,38.5,30.35,East,85,0.0,0.0,83,0.00,,---,0.00,VWS V14.01,2013-09-18 03:55:00,
2013-09-17 23:56:00,43.3,38.5,30.36,East,84,0.0,0.0,83,0.00,,---,0.00,VWS V14.01,2013-09-18 03:56:00,
2013-09-17 23:57:00,43.3,38.5,30.36,East,85,0.0,0.0,83,0.00,,---,0.00,VWS V14.01,2013-09-18 03:57:00,
2013-09-17 23:58:00,43.5,37.4,30.37,East,82,0.0,0.0,79,0.00,,---,0.00,VWS V14.01,2013-09-18 03:58:00,
2013-09-17 23:59:00,43.2,38.4,30.36,East,85,0.0,0.0,83,0.00,,---,0.00,VWS V14.01,2013-09-18 03:59:00,